     2              OBSERVATION DATA    GPS                 RINEX VERSION / TYPE
teqc 1997Jul24 19970814                                     PGM / RUN BY / DATE
                                                            COMMENT
Original Marker Name: PEAR                                  COMMENT
Campaign Name: HPGN 1991                                    COMMENT
4-Character Station Name: PEAR                              COMMENT
6-Character Antenna Code: TRMSST                            COMMENT
Vertical Measurement Point: TGP                             COMMENT
Vertical Offset to Rinex Ref. Point: 0.0629                 COMMENT
Radial Measurement Point: OGP                               COMMENT
Radial Offset to Rinex Ref. Point: 0.2413                   COMMENT
Antenna Height from Field Measurement: 1.5800 m             COMMENT
Original XYZ: -2464071.8706 -4649423.3672 3593907.7403      COMMENT
New XYZ position is based on association with SCEC monument COMMENT
E1F2D3B2+0011. Position of that monument is believed to be  COMMENT
valid to within 1 m horizontally; vertical accuracy         COMMENT
should be no worse than 3-times this value.                 COMMENT
                                                            COMMENT
Revised Rinex header created by UCSD GPS archive for        COMMENT
GSAC on 14-Apr-1999 (1999:104) 21:31:10 GMT                 COMMENT
For assistance contact dagnew@ucsd.edu or hjohnson@ucsd.edu COMMENT
                                                            COMMENT
PEARBLOSSOM NCMN 1983                                       MARKER NAME
unknown CALIF DEPT TRANSPORTATION                           OBSERVER / AGENCY
622 TRIMBLE 4000 SST NP 4.30 / SP 4.20                      REC # / TYPE / VERS
123 TR 4000SST L1/L2 GEO                                    ANT # / TYPE
 -2464071.0000 -4649425.0000  3593906.0000                  APPROX POSITION XYZ
        1.4986        0.0000        0.0000                  ANTENNA: DELTA H/E/N
     1     1     0                                          WAVELENGTH FACT L1/2
     3    C1    L1    L2                                    # / TYPES OF OBSERV
     0                                                      INTERVAL
  1991     4    24    19    51   45.000000                  TIME OF FIRST OBS
  1991     4    25     1    54   15.000000                  TIME OF LAST OBS
     0                                                      # OF SATELLITES
                                                            END OF HEADER
 91  4 24 19 51 45.0000000  0  4G18G 2G11G19
  20524786.5164         -0.16258        -0.47573
  23650052.313          -0.31815        -0.18831
  23569608.5314         -0.05556        -0.28271
  20741435.6094         -0.68957        -0.01773
 91  4 24 19 52  0.0000000  0  4G18G 2G11G19
  20529321.7114      23827.86848     18566.79463
  23642245.2974     -41034.36645    -31974.59761
  23564793.3984     -25306.29146    -19719.31961
  20741975.2344       2845.33747      2217.67163
 91  4 24 19 52 15.0000000  0  4G18G 2G11G19
  20533873.4384      47749.76348     37207.19863
  23634441.4384     -82040.12045    -63926.96161
  23559991.1884     -50533.82146    -39377.01661
  20742525.0004       5716.35747      4454.83863
 91  4 24 19 52 30.0000000  0  4G18G 2G11G19
  20538445.1484      71769.05648     55923.49563
  23626641.305     -123014.174 5    -95854.62821
  23555205.242      -75679.089 6    -58970.63221
  20743074.6414       8615.53347      6713.94362
 91  4 24 19 52 45.0000000  0  4G18G 2G11G19
  20543034.9454      95892.83648     74721.20763
  23618850.164     -163948.943 6   -127751.70721
  23550439.281     -100734.381 6    -78494.11521
  20743636.5474      11550.07747      9000.60462
 91  4 24 19 53  0.0000000  0  4G18G 2G11G19
  20547647.0944     120129.04348     93606.53263
  23611072.2664    -204836.35046   -159611.86861
  23545687.828     -125691.409 6    -97941.05521
  20744199.9064      14527.84847     11320.94463
 91  4 24 19 53 15.0000000  0  4G18G 2G11G19
  20552279.4924     144475.68648    112577.91163
  23603298.367     -245677.821 5   -191436.22921
  23540959.453     -150551.443 6   -117312.40521
  20744778.0634      17547.25747     13673.74163
 91  4 24 19 53 30.0000000  0  4G18G 2G11G19
  20556934.5944     168931.93748    131634.69663
  23595535.445     -286474.429 5   -223225.62821
  23536247.6094    -175315.33646   -136608.83861
  20745358.8134      20607.27147     16058.17563
 91  4 24 19 53 45.0000000  0  4G18G 2G11G19
  20561608.6254     193498.10048    150777.12263
  23587782.2424    -327225.55946   -254979.60161
  23531554.648     -199982.456 6   -155829.87421
  20745948.1884      23708.14047     18474.44263
 91  4 24 19 54  0.0000000  0  4G18G 2G11G19
  20566306.4534     218175.94348    170006.57763
  23580033.2194    -367929.35845   -286696.69561
  23526876.9144    -224550.42946   -174973.64961
  20746544.8054      26851.54647     20923.85762
 91  4 24 19 54 15.0000000  0  4G18G 2G11G19
  20571022.3594     242966.30248    189323.69863
  23572295.844     -408584.588 5   -318375.96421
  23522222.3914    -249018.04046   -194039.22661
  20747152.9304      30038.46547     23407.17462
 91  4 24 19 54 30.0000000  0  4G18G 2G11G19
  20575762.4304     267871.92848    208730.64463
  23564571.211     -449188.240 5   -350015.03321
  23517587.211     -273382.117 6   -213024.11821
  20747766.4844      33271.71247     25926.59262
 91  4 24 19 54 45.0000000  0  4G18G 2G11G19
  20580523.2974     292898.71848    228232.00063
  23556857.4924    -489734.16446   -381609.11361
  23512969.2734    -297636.15246   -231923.26861
  20748395.2424      36557.45347     28486.91762
 91  4 24 19 55  0.0000000  0  4G18G 2G11G19
  20585310.4384     318047.03348    247828.05063
  23549153.8204    -530222.08046   -413157.98561
  23508375.977     -321779.748 6   -250736.37121
  20749026.4064      39895.71647     31088.16462
 91  4 24 19 55 15.0000000  0  4G18G 2G11G19
  20590119.328      343319.291 8    267520.67623
  23541461.453     -570649.442 6   -444659.69121
  23503804.7034    -345810.14746   -269461.25061
  20749674.4144      43288.93547     33732.23662
 91  4 24 19 55 30.0000000  0  4G18G 2G11G19
  20594953.1024     368715.73748    287310.07463
  23533777.9694    -611015.77246   -476113.83061
  23499252.3444    -369726.43446   -288097.23761
  20750329.6334      46737.75347     36419.63362
 91  4 24 19 55 45.0000000  0  4G18G 2G11G19
  20599809.0634     394239.30348    307198.52663
  23526106.000     -651317.992 6   -507518.01121
  23494722.3204    -393525.58246   -306641.93461
  20750998.7894      50244.66647     39152.29462
 91  4 24 19 56  0.0000000  0  4G18G 2G11G19
  20604689.7504     419888.59648    327184.95063
  23518449.914     -691557.282 6   -538873.16721
  23490218.031     -417208.580 6   -325096.13821
  20751673.7974      53808.29447     41929.15062
 91  4 24 19 56 15.0000000  0  4G18G 2G11G19
  20609594.9534     445664.96148    347270.38563
  23510806.742     -731731.956 6   -570177.97521
  23485730.7424    -440773.49646   -343458.31261
  20752364.5004      57430.25847     44751.46562
 91  4 24 19 56 30.0000000  0  4G18G 2G11G19
  20614523.7974     471569.69448    367455.85763
  23503173.164     -771840.471 6   -601431.23421
  23481271.508     -464218.744 6   -361727.25021
  20753063.7974      61111.84547     47620.24163
 91  4 24 19 56 45.0000000  0  4G18G 2G11G19
  20619478.5704     497602.21948    387740.90063
  23495554.180     -811883.124 6   -632633.16521
  23476829.8444    -487544.54746   -379903.10561
  20753778.2114      64852.44447     50535.00063
 91  4 24 19 57  0.0000000  0  4G18G 2G11G19
  20624455.578      523757.325 8    408121.46023
  23487944.156     -851865.005 6   -663787.74221
  23472413.352     -510755.679 6   -397989.60521
  20754496.8674      68647.01847     53491.81662
 91  4 24 19 57 15.0000000  0  4G18G 2G11G19
  20629457.422      550033.907 8    428596.67123
  23480347.1954    -891787.18846   -694895.80861
  23468018.0394    -533852.84546   -415987.30461
  20755231.9064      72494.41447     56489.79062
 91  4 24 19 57 30.0000000  0  4G18G 2G11G19
  20634478.797      576429.876 8    449164.91123
  23472762.3754    -931651.11946   -725958.48761
  23463645.4844    -556837.40846   -433897.25861
  20755970.4924      76393.00147     59527.65062
 91  4 24 19 57 45.0000000  0  4G18G 2G11G19
  20639522.1094     602940.42948    469822.44863
  23465185.992     -971461.652 6   -756979.56021
  23459292.1564    -579714.17346   -451723.21661
  20756723.6414      80337.53447     62601.31662
 91  4 24 19 58  0.0000000  0  4G18G 2G11G19
  20644592.3524     629570.45148    490573.07963
  23457620.719    -1011213.772 6   -787955.10821
  23454960.8364    -602477.81546   -469461.02861
  20757480.8054      84332.78547     65714.50263
 91  4 24 19 58 15.0000000  0  4G18G 2G11G19
  20649681.141      656317.848 8    511415.16523
  23450069.3674   -1050909.23846   -818886.51061
  23450647.6254    -625129.89746   -487111.90961
  20758253.5084      88376.87047     68865.74162
 91  4 24 19 58 30.0000000  0  4G18G 2G11G19
  20654792.3204     683180.81848    532347.31163
  23442525.4144   -1090549.68346   -849775.04661
  23446359.6484    -647671.88446   -504677.00061
  20759033.6954      92468.13747     72053.74262
 91  4 24 19 58 45.0000000  0  4G18G 2G11G19
  20659926.9144     710160.44248    553370.35663
  23434990.266    -1130133.897 6   -880619.76921
  23442091.3754    -670102.24346   -522155.10661
  20759820.0394      96607.82847     75279.47562
 91  4 24 19 59  0.0000000  0  4G18G 2G11G19
  20665083.2894     737255.53048    574483.37663
  23427468.1094   -1169662.81446   -911421.40061
  23437842.8054    -692421.78646   -539546.86961
  20760617.1724     100794.53847     78541.84862
 91  4 24 19 59 15.0000000  0  4G18G 2G11G19
  20670261.3444     764465.40648    595685.83363
  23419955.6804   -1209136.98746   -942180.38061
  23433616.055     -714630.997 6   -556852.64421
  20761421.8054     105027.53847     81840.29263
 91  4 24 19 59 30.0000000  0  4G18G 2G11G19
  20675459.570      791784.278 8    616973.22523
  23412453.6094   -1248561.97646   -972901.02161
  23429411.1024    -736735.07946   -574076.52061
  20762233.9924     109301.26647     85170.47462
 91  4 24 19 59 45.0000000  0  4G18G 2G11G19
  20680680.3284     819216.30748    638348.79163
  23404960.1094   -1287933.26546  -1003579.82361
  23425223.242     -758729.469 6   -591214.89321
  20763057.8524     113620.07747     88535.78562
 91  4 24 20  0  0.0000000  0  4G18G 2G11G19
  20685920.9844     846759.01948    659810.60563
  23397479.000    -1327252.994 6  -1034218.43421
  23421058.0474    -780616.17046   -608269.37361
  20763882.2274     117981.49747     91934.29662
 91  4 24 20  0 15.0000000  0  4G18G 2G11G19
  20691183.1564     874410.98248    681357.55163
  23390003.9224   -1366522.51246  -1064817.94061
  23416914.477     -802396.337 6   -625240.82721
  20764722.6884     122384.18247     95364.95763
 91  4 24 20  0 30.0000000  0  4G18G 2G11G19
  20696466.508      902175.221 8    702991.97623
  23382543.945    -1405738.465 6  -1095375.69621
  23412788.8284    -824066.40046   -642126.50161
  20765570.2114     126831.20647     98830.17762
 91  4 24 20  0 45.0000000  0  4G18G 2G11G19
  20701770.508      930051.511 8    724713.71523
  23375092.641    -1444901.132 6  -1125891.94021
  23408690.1644    -845626.38946   -658926.39361
  20766422.9304     131322.22547    102329.67162
 91  4 24 20  1  0.0000000  0  4G18G 2G11G19
  20707096.5864     958039.76248    746522.70663
  23367650.313    -1484010.529 6  -1156366.66121
  23404607.352     -867075.956 6   -675640.23721
  20767288.7734     135857.27847    105863.48062
 91  4 24 20  1 15.0000000  0  4G18G 2G11G19
  20712443.234      986137.607 8    768417.08223
  23360215.5394   -1523068.68346  -1186801.45361
  23400546.8914    -888417.01546   -692269.53961
  20768156.0234     140434.11147    109429.84662
 91  4 24 20  1 30.0000000  0  4G18G 2G11G19
  20717810.703     1014347.118 8    790398.47623
  23352794.789    -1562073.129 6  -1217194.40321
  23396506.5164    -909647.05246   -708812.32561
  20769040.7734     145054.85847    113030.42962
 91  4 24 20  1 45.0000000  0  4G18G 2G11G19
  20723201.555     1042665.362 8    812464.59923
  23345379.9694   -1601026.45646  -1247547.50861
  23392487.3444    -930768.55746   -725270.55161
  20769922.6334     149716.85347    116663.15163
 91  4 24 20  2  0.0000000  0  4G18G 2G11G19
  20728612.156     1071096.217 8    834618.46623
  23337976.6564   -1639924.79646  -1277857.78961
  23388489.3284    -951777.37546   -741640.96761
  20770821.6804     154423.73047    120330.84662
 91  4 24 20  2 15.0000000  0  4G18G 2G11G19
  20734041.844     1099635.695 8    856856.97423
  23330585.5234   -1678771.93446  -1308128.16261
  23384511.633     -972677.134 6   -757926.38721
  20771722.0704     159171.49947    124030.41063
 91  4 24 20  2 30.0000000  0  4G18G 2G11G19
  20739493.461     1128284.051 8    879180.32023
  23323203.883    -1717567.605 6  -1338358.42221
  23380555.8284    -993467.39846   -774126.50961
  20772633.7504     163960.32647    127761.96162
 91  4 24 20  2 45.0000000  0  4G18G 2G11G19
  20744966.3204    1157048.79148    901594.36863
  23315834.867    -1756303.446 6  -1368542.06321
  23376621.875    -1014139.767 6   -790234.74621
  20773554.4384     168798.28347    131531.80163
 91  4 24 20  3  0.0000000  0  4G18G 2G11G19
  20750462.211     1185926.789 8    924096.65623
  23308474.8054   -1794982.50446  -1398681.46261
  23372708.3834   -1034696.97646   -806253.26261
  20774487.5554     173682.33547    135337.55363
 91  4 24 20  3 15.0000000  0  4G18G 2G11G19
  20755979.180     1214920.200 8    946688.86923
  23301125.086    -1833602.767 6  -1428775.03421
  23368820.1254   -1055136.68446   -822180.22061
  20775421.6484     178614.47447    139180.77662
 91  4 24 20  3 30.0000000  0  4G18G 2G11G19
  20761517.813     1244027.134 8    969369.55023
  23293784.2974   -1872165.55146  -1458823.83761
  23364953.2974   -1075460.24146   -838016.66861
  20776370.8594     183592.90947    143060.07262
 91  4 24 20  3 45.0000000  0  4G18G 2G11G19
  20767078.063     1273244.117 8    992135.98723
  23286454.2424   -1910674.56146  -1488830.71761
  23361107.6094   -1095671.10046   -853765.30161
  20777325.4774     188613.96647    146972.58762
 91  4 24 20  4  0.0000000  0  4G18G 2G11G19
  20772660.648     1302574.870 8   1014991.06323
  23279137.586    -1949125.702 6  -1518792.52821
  23357283.5474   -1115765.13446   -869422.90461
  20778291.3204     193681.65047    150921.42362
 91  4 24 20  4 15.0000000  0  4G18G 2G11G19
  20778264.820     1332021.130 8   1037936.14923
  23271834.2734   -1987516.94646  -1548707.66261
  23353480.9614   -1135740.06246   -884987.69761
  20779263.5704     198797.72747    154907.97163
 91  4 24 20  4 30.0000000  0  4G18G 2G11G19
  20783888.227     1361581.635 8   1060970.25923
  23264540.750    -2025849.356 6  -1578576.93221
  23349703.352    -1155596.742 6   -900460.35221
  20780246.3674     203961.03747    158931.33163
 91  4 24 20  4 45.0000000  0  4G18G 2G11G19
  20789535.102     1391253.445 8   1084091.10223
  23257257.148    -2064125.646 6  -1608402.48321
  23345945.9844   -1175337.60246   -915842.75661
  20781236.3754     209168.61947    162989.18362
 91  4 24 20  5  0.0000000  0  4G18G 2G11G19
  20795202.375     1421036.766 8   1107298.84023
  23249983.1724   -2102345.42246  -1638183.99361
  23342212.313    -1194962.066 6   -931134.46221
  20782237.2734     214421.02347    167081.96563
 91  4 24 20  5 15.0000000  0  4G18G 2G11G19
  20800890.961     1450931.269 8   1130593.21223
  23242720.383    -2140508.602 6  -1667921.40521
  23338498.4144   -1214469.93746   -946335.31961
  20783243.0474     219717.96647    171209.45462
 91  4 24 20  5 30.0000000  0  4G18G 2G11G19
  20806600.695     1480937.386 8   1153974.55523
  23235469.406    -2178614.735 6  -1697614.36521
  23334810.375    -1233860.618 6   -961444.86421
  20784260.4454     225059.96347    175372.04662
 91  4 24 20  5 45.0000000  0  4G18G 2G11G19
  20812332.352     1511055.484 8   1177443.15123
  23228227.156    -2216663.196 6  -1727262.38221
  23331141.8284   -1253133.32346   -976462.46961
  20785284.6334     230447.39647    179570.03862
 91  4 24 20  6  0.0000000  0  4G18G 2G11G19
  20818085.789     1541284.538 8   1200998.20923
  23220996.773    -2254654.762 6  -1756866.06221
  23327497.2974   -1272288.56646   -991388.54461
  20786321.5004     235879.37747    183802.75063
 91  4 24 20  6 15.0000000  0  5G18G 2G11G16G19
  20823859.461     1571623.813 8   1224639.14923
  23213777.1334   -2292589.90446  -1786425.78361
  23323875.609    -1291326.865 6  -1006223.49921
  24218038.5944     -20775.20745
  20787361.0944     241355.08947    188069.54263
 91  4 24 20  6 30.0000000  0  5G18G 2G11G16G19
  20829653.5784    1602073.50348   1248366.12063
  23206573.0164   -2330468.17846  -1815941.20461
  23320274.047    -1310247.483 6  -1020966.76321
  24214107.6174     -41430.26944
  20788413.7504     246875.00847    192370.77162
 91  4 24 20  6 45.0000000  0  5G18G 2G11G16G19
  20835468.898     1632634.431 8   1272179.78423
  23199375.9454   -2368288.47846  -1845411.43761
  23316694.3204   -1329049.37246  -1035617.49961
  24210197.578      -61964.852 4
  20789469.6884     252440.05447    196707.16563
 91  4 24 20  7  0.0000000  0  5G18G 2G11G16G19
  20841306.695     1663306.829 8   1296080.30123
  23192189.9064   -2406050.21846  -1874836.04261
  23313139.930    -1347731.617 6  -1050175.01621
  24206310.727      -82378.453 5
  20790538.7814     258050.57147    201078.99962
 91  4 24 20  7 15.0000000  0  5G18G 2G11G16G19
  20847163.703     1694091.138 8   1320068.01923
  23185015.6254   -2443752.86946  -1904214.60461
  23309607.258    -1366293.350 6  -1064638.62421
  24202452.9224    -102670.10645        -0.07171
  20791615.3594     263707.08147    205486.66462
 91  4 24 20  7 30.0000000  0  5G18G 2G11G16G19
  20853042.922     1724985.991 8   1344141.87423
  23177849.680    -2481397.939 6  -1933548.30621
  23306097.688    -1384735.936 6  -1079009.40321
  24198615.7894    -122841.61745    -15718.14261
  20792700.5004     269407.98347    209928.92062
 91  4 24 20  7 45.0000000  0  5G18G 2G11G16G19
  20858943.477     1755991.274 8   1368301.78823
  23170697.1024   -2518985.18546  -1962836.94661
  23302612.391    -1403059.010 6  -1093287.03721
  24194793.453     -142892.668 5    -31342.36321
  20793794.6954     275153.39947    214405.87163
 91  4 24 20  8  0.0000000  0  5G18G 2G11G16G19
  20864864.875     1787108.749 8   1392549.12223
  23163555.180    -2556512.518 6  -1992078.89521
  23299147.250    -1421260.434 6  -1107469.88821
  24191005.227     -162821.024 5    -46870.97521
  20794897.7584     280945.14447    218918.92063
 91  4 24 20  8 15.0000000  0  5G18G 2G11G16G19
  20870806.852     1818332.472 8   1416879.24923
  23156426.5164   -2593985.31846  -2021278.35161
  23295706.8984   -1439345.49646  -1121562.07461
  24187236.2664    -182632.15045    -62308.21061
  20796005.2894     286777.73147    223463.79562
 91  4 24 20  8 30.0000000  0  5G18G 2G11G16G19
  20876769.211     1849666.780 8   1441295.54323
  23149306.6174   -2631399.37646  -2050432.03561
  23292286.4384   -1457309.65946  -1135560.04661
  24183490.8134    -202321.77445    -77650.79761
  20797125.0164     292655.32747    228043.74062
 91  4 24 20  8 45.0000000  0  5G18G 2G11G16G19
  20882751.172     1881108.058 8   1465795.19123
  23142195.5784   -2668758.02646  -2079542.54661
  23288891.5944   -1475156.02746  -1149466.23861
  24179761.2664    -221893.08845    -92901.16761
  20798249.8524     298574.33647    232655.95462
 91  4 24 20  9  0.0000000  0  5G18G 2G11G16G19
  20888756.273     1912662.974 8   1490383.38723
  23135099.1954   -2706054.46446  -2108604.58361
  23285517.477    -1492877.658 6  -1163275.22821
  24176063.828     -241339.295 5   -108054.06821
  20799386.2194     304541.58547    237305.75163
 91  4 24 20  9 15.0000000  0  5G18G 2G11G16G19
  20894781.469     1944326.325 8   1515056.07423
  23128015.023    -2743293.434 6  -2137621.83021
  23282169.016    -1510479.290 6  -1176990.71721
  24172384.3914    -260665.07145   -123113.13061
  20800530.2974     310552.14347    241989.30163
 91  4 24 20  9 30.0000000  0  5G18G 2G11G16G19
  20900827.906     1976101.417 8   1539815.83223
  23120939.8674   -2780471.37146  -2166591.52461
  23278844.4774   -1527957.18146  -1190609.77761
  24168727.9774    -279867.10045   -138075.77761
  20801682.4924     316609.37747    246709.21963
 91  4 24 20  9 45.0000000  0  5G18G 2G11G16G19
  20906896.188     2007988.401 8   1564662.78423
  23113876.3674   -2817588.00746  -2195513.45561
  23275543.0394   -1545310.78946  -1204131.99661
  24165101.5784    -298944.79745   -152941.50661
  20802843.8914     322713.45047    251465.63863
 91  4 24 20 10  0.0000000  0  5G18G 2G11G16G19
  20912985.922     2039981.302 8   1589592.27323
  23106820.8524   -2854649.12346  -2224392.12561
  23272261.281    -1562545.763 6  -1217561.77021
  24161498.750     -317903.938 5   -167714.88621
  20804013.4534     328858.43847    256253.94463
 91  4 24 20 10 15.0000000  0  5G18G 2G11G16G19
  20919094.555     2072083.421 8   1614606.85523
  23099779.2034   -2891651.18846  -2253224.77961
  23269005.688    -1579658.412 6  -1230896.23021
  24157909.7584    -336740.91745   -182393.06961
  20805190.6644     335047.75747    261076.78663
 91  4 24 20 10 30.0000000  0  5G18G 2G11G16G19
  20925223.453     2104294.933 8   1639706.68723
  23092750.9144   -2928593.36346  -2282010.77061
  23265770.711    -1596647.865 6  -1244134.69221
  24154347.359     -355455.194 5   -196975.63521
  20806376.1414     341281.96247    265934.61162
 91  4 24 20 10 45.0000000  0  5G18G 2G11G16G19
  20931372.250     2136613.321 8   1664889.80323
  23085733.0474   -2965478.57946  -2310752.38461
  23262562.7194   -1613516.65546  -1257279.14061
  24150810.125     -374049.498 5   -211464.72221
  20807571.8834     347558.18747    270825.17063
 91  4 24 20 11  0.0000000  0  5G18G 2G11G16G19
  20937544.336     2169039.269 8   1690156.72623
  23078725.4694   -3002305.59946  -2339448.63261
  23259374.867    -1630263.512 6  -1270328.57121
  24147293.055     -392522.367 5   -225859.16721
  20808777.1174     353877.41547    275749.24162
 91  4 24 20 11 15.0000000  0  5G18G 2G11G16G19
  20943735.148     2201571.964 8   1715506.82623
  23071725.9224   -3039075.00946  -2368100.00661
  23256212.2424   -1646888.82146  -1283283.28561
  24143801.844     -410874.353 5   -240159.43221
  20809985.6884     360238.99847    280706.31763
 91  4 24 20 11 30.0000000  0  5G18G 2G11G16G19
  20949944.711     2234210.469 8   1740939.37523
  23064739.9304   -3075787.65346  -2396707.13661
  23253072.750    -1663393.362 6  -1296143.90021
  24140332.875     -429106.309 5   -254366.15721
  20811205.3524     366641.99247    285695.66063
 91  4 24 20 11 45.0000000  0  5G18G 2G11G16G19
  20956178.117     2266957.015 8   1766456.11723
  23057764.9144   -3112441.12746  -2425268.16261
  23249954.6334   -1679774.35646  -1308908.24661
  24136888.5784    -447215.59945   -268477.30161
  20812429.2504     373089.00547    290719.30262
 91  4 24 20 12  0.0000000  0  5G18G 2G11G16G19
  20962429.641     2299809.430 8   1792055.35023
  23050800.461    -3149037.267 6  -2453784.51521
  23246858.2424   -1696033.65146  -1321577.76161
  24133462.930     -465204.445 5   -282494.59921
  20813665.3834     379577.91347    295775.59563
 91  4 24 20 12 15.0000000  0  5G18G 2G11G16G19
  20968700.7894    2332769.25748   1817738.27563
  23043849.2344   -3185574.26746  -2482254.78561
  23243789.4064   -1712169.17746  -1334150.82961
  24130063.531     -483071.125 5   -296416.71321
  20814908.9454     386110.32247    300865.78463
 91  4 24 20 12 30.0000000  0  5G18G 2G11G16G19
  20974991.945     2365836.030 8   1843504.53523
  23036908.4224   -3222052.25846  -2510679.06661
  23240741.7424   -1728181.11746  -1346627.60361
  24126689.4534    -500815.71745   -310243.66161
  20816158.8914     392685.88347    305989.59762
 91  4 24 20 12 45.0000000  0  5G18G 2G11G16G19
  20981306.328     2399011.609 8   1869355.58623
  23029978.195    -3258469.045 6  -2539055.67421
  23237721.1094   -1744067.00346  -1359006.14861
  24123335.391     -518435.929 5   -323973.69721
  20817419.1564     399306.62747    311148.61762
 91  4 24 20 13  0.0000000  0  5G18G 2G11G16G19
  20987639.9614    2432291.67248   1895288.04563
  23023055.016    -3294828.876 6  -2567387.89821
  23234717.9304   -1759830.99146  -1371289.72261
  24120003.5634    -535935.75345   -337609.94461
  20818687.6804     405968.12047    316339.39163
 91  4 24 20 13 15.0000000  0  5G18G 2G11G16G19
  20993994.7194    2465679.40148   1921304.39463
  23016148.938    -3331128.434 6  -2595673.15221
  23231743.1804   -1775469.55246  -1383475.54761
  24116697.703     -553311.390 5   -351149.42021
  20819961.9224     412673.88447    321564.66062
 91  4 24 20 13 30.0000000  0  5G18G 2G11G16G19
  21000365.953     2499171.180 8   1947401.82923
  23009253.6644   -3367370.97446  -2623913.97861
  23228791.2114   -1790985.91746  -1395566.16561
  24113413.0634    -570566.78045   -364595.17361
  20821249.5004     419420.30747    326821.61562
 91  4 24 20 13 45.0000000  0  5G18G 2G11G16G19
  21006760.016     2532769.702 8   1973582.44323
  23002369.6024   -3403553.68646  -2652108.17661
  23225860.4224   -1806377.02646  -1407559.17861
  24110154.3914    -587698.87645   -377944.91261
  20822538.7894     426210.25047    332112.47763
 91  4 24 20 14  0.0000000  0  5G18G 2G11G16G19
  21013174.7034    2566474.60848   1999845.94163
  22995494.117    -3439676.640 6  -2680255.82121
  23222956.813    -1821642.703 6  -1419454.45921
  24106917.6564    -604707.89845   -391198.67261
  20823843.3984     433043.43747    337437.04163
 91  4 24 20 14 15.0000000  0  5G18G 2G11G16G19
  21019608.1484    2600283.89148   2026190.77763
  22988631.2974   -3475741.57846  -2708358.25061
  23220073.3674   -1836784.67546  -1431253.33561
  24103704.2584    -621595.56245   -404357.88861
  20825146.6644     439917.99647    342793.83963
 91  4 24 20 14 30.0000000  0  5G18G 2G11G16G19
  21026060.797     2634198.671 8   2052617.82223
  22981777.430    -3511746.889 6  -2736414.21821
  23217216.055    -1851801.316 6  -1442954.56421
  24100512.5084    -638360.40045   -417421.43161
  20826465.0234     446835.27747    348183.92862
 91  4 24 20 14 45.0000000  0  5G18G 2G11G16G19
  21032536.953     2668218.384 8   2079126.64023
  22974938.234    -3547693.074 6  -2764424.12321
  23214384.3754   -1866692.87746  -1454558.32261
  24097346.992     -655002.501 5   -430389.31221
  20827787.9224     453794.80547    353606.93862
 91  4 24 20 15  0.0000000  0  5G18G 2G11G16G19
  21039029.6094    2702343.41548   2105717.51463
  22968106.594    -3583579.488 6  -2792387.44821
  23211575.3834   -1881458.65646  -1466064.06061
  24094201.4534    -671521.48145   -443261.27661
  20829120.1174     460797.07847    359063.25263
 91  4 24 20 15 15.0000000  0  5G18G 2G11G16G19
  21045543.422     2736573.644 8   2132390.36223
  22961291.180    -3619406.072 6  -2820304.15621
  23208789.078    -1896098.167 6  -1477471.41621
  24091083.555     -687917.022 5   -456037.02521
  20830461.3054     467842.20047    364552.95862
 91  4 24 20 15 30.0000000  0  5G18G 2G11G16G19
  21052076.4454    2770908.98448   2159145.11463
  22954488.250    -3655172.768 6  -2848174.19321
  23206024.609    -1910611.284 6  -1488780.28221
  24087984.703     -704189.147 5   -468716.60021
  20831814.1804     474930.14047    370076.02862
 91  4 24 20 15 45.0000000  0  5G18G 2G11G16G19
  21058630.7734    2805349.72848   2185981.99963
  22947692.469    -3690878.949 6  -2875997.09021
  23203286.250    -1924997.341 6  -1499990.14321
  24084913.664     -720337.041 5   -481299.41421
  20833165.6414     482061.34547    375632.80962
 91  4 24 20 16  0.0000000  0  5G18G 2G11G16G19
  21065205.4224    2839897.28748   2212902.11663
  22940908.078    -3726522.667 6  -2903771.30821
  23200575.4304   -1939254.34146  -1511099.44361
  24081866.391     -736359.266 5   -493784.29221
  20834532.0234     489237.42047    381224.55163
 91  4 24 20 16 15.0000000  0  5G18G 2G11G16G19
  21071799.1254    2874546.77248   2239901.65263
  22934135.930    -3762108.715 6  -2931500.58321
  23197886.1024   -1953386.86346  -1522111.73761
  24078838.7894    -752260.20645   -506174.62561
  20835904.8914     496453.72747    386847.65363
 91  4 24 20 16 30.0000000  0  5G18G 2G11G16G19
  21078413.0084    2909298.52948   2266980.87363
  22927373.063    -3797636.829 6  -2959184.72521
  23195220.453    -1967394.295 6  -1533026.57021
  24075836.8984    -768039.47445   -518470.17461
  20837287.9064     503710.48447    392502.26863
 91  4 24 20 16 45.0000000  0  5G18G 2G11G16G19
  21085043.6954    2944154.59748   2294141.38163
  22920624.9774   -3833104.67646  -2986821.90461
  23192579.023    -1981274.310 6  -1543842.10521
  24072852.820     -783694.656 5   -530669.01221
  20838675.6644     511009.69047    398189.96263
 91  4 24 20 17  0.0000000  0  5G18G 2G11G16G19
  21091695.5864    2979111.64147   2321380.57563
  22913886.8674   -3868514.85646  -3014414.14661
  23189962.086    -1995029.285 6  -1554560.22321
  24069902.9304    -799228.67945   -542773.46061
  20840072.5784     518348.94047    403908.85263
 91  4 24 20 17 15.0000000  0  5G18G 2G11G16G19
  21098369.0554    3014172.11048   2348700.36163
  22907160.836    -3903865.272 6  -3041959.82721
  23187367.742    -2008657.222 6  -1565179.34421
  24066968.2274    -814639.51145   -554781.91861
  20841476.9694     525729.97947    409660.30863
 91  4 24 20 17 30.0000000  0  5G18G 2G11G16G19
  21105058.9774    3049334.10247   2376099.25663
  22900447.0634   -3939157.41046  -3069460.08461
  23184800.453    -2022159.402 6  -1575700.46721
  24064062.773     -829928.324 5   -566695.29721
  20842888.6644     533151.20847    415443.08263
 91  4 24 20 17 45.0000000  0  5G18G 2G11G16G19
  21111769.8754    3084598.95748   2403578.30263
  22893741.539    -3974389.606 6  -3096913.63921
  23182253.7034   -2035533.91746  -1586122.11061
  24061175.023     -845093.317 5   -578512.18721
  20844309.3444     540614.45247    421258.59263
 91  4 24 20 18  0.0000000  0  5G18G 2G11G16G19
  21118502.5164    3119970.52348   2431140.49663
  22887048.086    -4009557.920 6  -3124317.41621
  23179734.9224   -2048776.71846  -1596441.12061
  24058313.211     -860130.837 5   -590229.74221
  20845739.2504     548123.35847    427109.68962
 91  4 24 20 18 15.0000000  0  5G18G 2G11G16G19
  21125252.2114    3155447.12148   2458784.52963
  22880365.914    -4044663.442 6  -3151672.26021
  23177236.508    -2061888.818 6  -1606658.28221
  24055473.594     -875042.104 4   -601848.91121
  20847175.1564     555676.64747    432995.36662
 91  4 24 20 18 30.0000000  0  5G18G 2G11G16G19
  21132022.6564    3191027.20347   2486509.20763
  22873697.977    -4079707.635 6  -3178979.31821
  23174769.313    -2074871.534 6  -1616774.63021
  24052661.5864    -889828.59445   -613370.86561
  20848622.2194     563272.84947    438914.48262
 91  4 24 20 18 45.0000000  0  5G18G 2G11G16G19
  21138812.0554    3226703.93547   2514309.19863
  22867041.078    -4114696.778 6  -3206243.47921
  23172318.5944   -2087731.04746  -1626794.97561
  24049870.6334    -904496.28545   -624800.21761
  20850072.9614     570905.51547    444862.00863
 91  4 24 20 19  0.0000000  0  5G18G 2G11G16G19
  21145620.6954    3262482.57747   2542188.59563
  22860392.6094   -4149625.68746  -3233460.70961
  23169897.953    -2100461.925 6  -1636715.08221
  24047102.8754    -919039.85645   -636132.88261
  20851535.4844     578579.84147    450841.99563
 91  4 24 20 19 15.0000000  0  5G18G 2G11G16G19
  21152450.7974    3298368.66948   2570151.71863
  22853758.2424   -4184488.75446  -3260626.63961
  23167503.5084   -2113058.49046  -1646530.52761
  24044357.609     -933454.080 5   -647364.77621
  20853003.1954     586301.36647    456858.76463
 91  4 24 20 19 30.0000000  0  5G18G 2G11G16G19
  21159298.2584    3334355.60348   2598193.41763
  22847135.938    -4219292.057 6  -3287745.99021
  23165129.000    -2125526.688 6  -1656245.95421
  24041639.078     -947744.617 5   -658500.27821
  20854479.7034     594063.90047    462907.48763
 91  4 24 20 19 45.0000000  0  5G18G 2G11G16G19
  21166168.2034    3370455.66348   2626323.27463
  22840525.9304   -4254023.19946  -3314809.12461
  23162782.453    -2137853.987 6  -1665851.58821
  24038945.0704    -961899.39945   -669529.97761
  20855965.9534     601879.63647    468997.66363
 91  4 24 20 20  0.0000000  0  5G18G 2G11G16G19
  21173058.3984    3406663.45348   2654537.07363
  22833930.648    -4288687.217 6  -3341819.94621
  23160463.016    -2150045.361 6  -1675351.30821
  24036279.961     -975923.353 5   -680457.74921
  20857465.1564     609743.36747    475125.24463
 91  4 24 20 20 15.0000000  0  5G18G 2G11G16G19
  21179969.0164    3442980.80348   2682836.24263
  22827348.977    -4323282.195 6  -3368776.95521
  23158168.2274   -2162098.69546  -1684743.45961
  24033634.4384    -989814.46945   -691281.99761
  20858969.1954     617657.16047    481291.82963
 91  4 24 20 20 30.0000000  0  6G18G 2G11G16G19G 6
  21186899.8364    3479405.84748   2711219.33263
  22820776.2894   -4357809.78246  -3395681.48161
  23155900.648    -2174015.489 6  -1694029.22421
  24031017.6254   -1003574.61845   -702004.20761
  20860485.4694     625619.23547    487496.04063
  24447562.773          -0.58314
 91  4 24 20 20 45.0000000  0  6G18G 2G11G16G19G 6
  21193853.2894    3515941.03848   2739688.24763
  22814220.3204   -4392266.95546  -3422531.12761
  23153658.3364   -2185792.72146  -1703206.23161
  24028421.7974   -1017200.71845   -712621.94361
  20862008.7424     633632.41247    493740.06963
  24442288.781      -27731.162 4
 91  4 24 20 21  0.0000000  0  6G18G 2G11G16G19G 6
  21200827.5234    3552587.70048   2768244.02263
  22807675.484    -4426652.174 6  -3449324.70321
  23151444.656    -2197428.523 6  -1712273.03821
  24025854.625    -1030691.237 5   -723134.07621
  20863545.1094     641698.21247    500025.10163
  24437016.242      -55441.814 4        -0.06631
 91  4 24 20 21 15.0000000  0  6G18G 2G11G16G19G 6
  21207821.2504    3589341.77948   2796883.49663
  22801145.9224   -4460969.20746  -3476065.15261
  23149256.195    -2208926.689 6  -1721232.59521
  24023314.359    -1044049.966 5   -733543.46221
  20865090.1254     649812.78447    506348.14063
  24431744.1564     -83136.52343    -21580.25161
 91  4 24 20 21 30.0000000  0  6G18G 2G11G16G19G 6
  21214836.2894    3626205.50148   2825608.40663
  22794628.3134   -4495215.94646  -3502750.82861
  23147097.211    -2220284.835 6  -1730083.04321
  24020802.180    -1057274.577 5   -743848.40321
  20866642.555      657978.260 7    512710.83723
  24426473.078     -110813.219 3    -43146.40821
 91  4 24 20 21 45.0000000  0  6G18G 2G11G16G19G 6
  21221870.1564    3663174.73247   2854415.52963
  22788122.7274   -4529396.15246  -3529384.66861
  23144959.766    -2231506.836 6  -1738827.40621
  24018305.7664   -1070368.73245   -754051.65061
  20868205.1724     666190.54047    519110.00963
  24421213.859     -138476.040 3    -64701.74321
 91  4 24 20 22  0.0000000  0  6G18G 2G11G16G19G 6
  21228925.7114    3700251.18047   2883306.20763
  22781633.6484   -4563507.91346  -3555965.16161
  23142851.875    -2242590.664 6  -1747464.10921
  24015838.516    -1083330.773 5   -764151.95621
  20869777.4304     674451.51947    525547.12863
  24415950.3284    -166123.28943    -86244.95161
 91  4 24 20 22 15.0000000  0  6G18G 2G11G16G19G 6
  21236002.1804    3737432.81748   2912278.84663
  22775154.7584   -4597552.76846  -3582493.52061
  23140768.961    -2253537.833 6  -1755994.31821
  24013397.8914   -1096162.56245   -774150.74461
  20871357.7664     682759.45947    532020.83763
  24410688.398     -193756.697 3   -107777.35821
 91  4 24 20 22 30.0000000  0  6G18G 2G11G16G19G 6
  21243098.4924    3774719.74448   2941333.52363
  22768690.3754   -4631530.31646  -3608969.43561
  23138711.695    -2264347.528 6  -1764417.40721
  24010979.141    -1108863.238 5   -784047.40221
  20872947.9924     691114.90347    538531.56663
  24405434.016     -221375.897 3   -129298.70721
 91  4 24 20 22 45.0000000  0  6G18G 2G11G16G19G 6
  21250213.641     3812112.260 8   2970470.47723
  22762236.953    -4665440.157 6  -3635392.58321
  23136679.4614   -2275019.28446  -1772733.00261
  24008591.344    -1121432.899 5   -793841.98121
  20874547.2344     699518.13047    545079.53063
  24400181.8204    -248980.57243   -150808.74961
 91  4 24 20 23  0.0000000  0  6G18G 2G11G16G19G 6
  21257347.5234    3849608.05148   2999687.91063
  22755793.8914   -4699284.15746  -3661764.43661
  23134677.1724   -2285554.98846  -1780942.59161
  24006221.4614   -1133872.93545   -803535.52961
  20876156.0474     707967.04047    551663.08763
  24394929.594     -276572.942 4   -172309.18121
 91  4 24 20 23 15.0000000  0  6G18G 2G11G16G19G 6
  21264504.2424    3887208.49348   3028986.88863
  22749367.3914   -4733060.87546  -3688083.86961
  23132697.523    -2295952.916 6  -1789044.82321
  24003879.1254   -1146181.94145   -813126.96761
  20877773.289      716463.260 7    558283.50423
  24389685.7504    -304151.57244   -193798.92661
 91  4 24 20 23 30.0000000  0  6G18G 2G11G16G19G 6
  21271678.289     3924913.403 8   3058367.26323
  22742953.484    -4766770.533 6  -3714351.02321
  23130744.695    -2306213.099 6  -1797039.72321
  24001560.406    -1158360.315 5   -822616.62621
  20879401.2034     725006.35947    564940.45263
  24384439.063     -331716.699 4   -215278.09921
 91  4 24 20 23 45.0000000  0  6G18G 2G11G16G19G 6
  21278873.3914    3962720.48147   3087827.25663
  22736551.0784   -4800414.80446  -3740567.24161
  23128816.3754   -2316337.25546  -1804928.61761
  23999266.3984   -1170409.65445   -832005.74661
  20881031.961      733594.404 7    571632.42923
  24379193.2584    -359270.52044   -236748.51861
 91  4 24 20 24  0.0000000  0  6G18G 2G11G16G19G 6
  21286087.3364    4000631.66047   3117368.36163
  22730162.133    -4833991.496 6  -3766730.79521
  23126917.609    -2326323.193 6  -1812709.81821
  23997001.352    -1182327.954 5   -841292.75421
  20882678.8914     742229.56647    578361.11663
  24373954.1414    -386810.91444   -258208.46261
 91  4 24 20 24 15.0000000  0  6G18G 2G11G16G19G 6
  21293322.2664    4038651.50747   3146994.14463
  22723785.3914   -4867495.87646  -3792837.99961
  23125045.453    -2336165.851 6  -1820379.36821
  23994756.0164   -1194109.97745   -850473.55961
  20884328.2584     750916.63747    585130.25163
  24368720.4534    -414333.19145   -279654.29961
 91  4 24 20 24 30.0000000  0  6G18G 2G11G16G19G 6
  21300579.148     4076779.429 8   3176704.14023
  22717424.2584   -4900928.37246  -3818889.20661
  23123198.344    -2345865.492 6  -1827937.48821
  23992541.164    -1205756.551 5   -859548.83321
  20885990.5084     759655.13647    591939.46363
  24363486.1254    -441837.81544   -301086.34561
 91  4 24 20 24 45.0000000  0  6G18G 2G11G16G19G 6
  21307853.977     4115011.193 8   3206495.05723
  22711073.5704   -4934292.70446  -3844887.29161
  23121379.375    -2355425.985 6  -1835387.16721
  23990350.1564   -1217271.52445   -868521.53561
  20887662.6334     768441.07947    598785.64363
  24358251.6724    -469328.92844   -322507.89861
 91  4 24 20 25  0.0000000  0  6G18G 2G11G16G19G 6
  21315149.406     4153346.941 8   3236366.99523
  22704738.969    -4967588.712 6  -3870832.12621
  23119585.242    -2364847.012 6  -1842728.17921
  23988186.5314   -1228654.53945   -877391.43761
  20889342.6564     777274.68947    605668.96663
  24353025.328     -496806.507 4   -343918.88521
 91  4 24 20 25 15.0000000  0  6G18G 2G11G16G19G 6
  21322463.8204    4191788.61947   3266321.47863
  22698416.8594   -5000813.88546  -3896721.77661
  23117821.219    -2374125.943 6  -1849958.46521
  23986044.047    -1239903.189 5   -886156.63621
  20891034.602      786158.362 7    612591.29523
  24347798.6254    -524268.20044   -365317.50061
 91  4 24 20 25 30.0000000  0  6G18G 2G11G16G19G 6
  21329798.477     4230332.831 7   3296355.86023
  22692105.8524   -5033971.78946  -3922559.00561
  23116083.008    -2383266.176 6  -1857080.67921
  23983928.938    -1251021.278 5   -894820.09921
  20892734.797      795088.519 7    619549.84423
  24342572.2114    -551717.67943   -386706.61261
 91  4 24 20 25 45.0000000  0  6G18G 2G11G16G19G 6
  21337154.4454    4268982.34747   3326472.30363
  22685810.1884   -5067058.95546  -3948341.11061
  23114367.781    -2392264.109 6  -1864092.00821
  23981840.4384   -1262005.16945   -903378.98461
  20894442.961      804068.436 7    626547.16623
  24337351.0704    -579151.71944   -408083.69761
 91  4 24 20 26  0.0000000  0  6G18G 2G11G16G19G 6
  21344528.5634    4307736.78048   3356670.48663
  22679524.1094   -5100075.95446  -3974068.54761
  23112682.953    -2401120.245 6  -1870992.84221
  23979774.1334   -1272855.40745   -911833.73261
  20896164.9774     813097.66647    633582.91963
  24332134.430     -606570.783 4   -429449.10821
 91  4 24 20 26 15.0000000  0  6G18G 2G11G16G19G 6
  21351924.102     4346596.555 8   3386950.75823
  22673256.055    -5133021.839 6  -3999740.56521
  23111026.1954   -2409833.48346  -1877782.32661
  23977734.6644   -1283571.10145   -920183.63861
  20897889.0864     822176.96447    640657.68863
  24326914.7344    -633974.34643   -450802.43161
 91  4 24 20 26 30.0000000  0  6G18G 2G11G16G19G 6
  21359338.039     4385561.670 7   3417313.11423
  22667000.9694   -5165896.27546  -4025356.91461
  23109394.766    -2418403.569 6  -1884460.26621
  23975722.1804   -1294151.64145   -928428.21961
  20899630.2274     831306.41046    647771.52963
  24321707.055     -661362.263 4   -472143.58021
 91  4 24 20 26 45.0000000  0  6G18G 2G11G16G19G 6
  21366772.266     4424628.016 7   3447754.34223
  22660759.2504   -5198703.11646  -4050920.59661
  23107790.141    -2426833.964 6  -1891029.35721
  23973734.8754   -1304601.09545   -936570.66961
  20901371.625      840482.211 7    654921.49223
  24316499.023     -688738.276 4   -493475.45521
 91  4 24 20 27  0.0000000  0  6G18G 2G11G16G19G 6
  21374225.773     4463796.992 7   3478275.54823
  22654530.781    -5231440.811 6  -4076430.38221
  23106211.953    -2435123.233 6  -1897488.47921
  23971770.922    -1314917.784 5   -944609.65821
  20903130.547      849705.969 7    662108.82623
  24311289.969     -716101.028 4   -514796.96821
 91  4 24 20 27 15.0000000  0  6G18G 2G11G16G19G 6
  21381699.6024    4503073.70747   3508880.70963
  22648313.3594   -5264104.08746  -4101882.19261
  23104663.063    -2443265.998 6  -1903833.44521
  23969836.1564   -1325096.90645   -952541.45261
  20904891.016      858982.868 7    669337.56323
  24306088.5164    -743445.47444   -536104.24661
 91  4 24 20 27 30.0000000  0  6G18G 2G11G16G19G 6
  21389193.898     4542453.980 7   3539566.56823
  22642109.9774   -5296696.93846  -4127279.12861
  23103140.602    -2451266.053 6  -1910067.19921
  23967921.891    -1335142.239 5   -960368.98921
  20906667.898      868308.795 7    676604.50823
  24300889.0394    -770775.82145   -557400.53361
 91  4 24 20 27 45.0000000  0  6G18G 2G11G16G19G 6
  21396706.4924    4581938.18547   3570333.40963
  22635920.9844   -5329218.65246  -4152620.62662
  23101647.047    -2459122.562 6  -1916189.10621
  23966034.938    -1345052.784 5   -968091.50621
  20908450.352      877684.536 7    683910.26422
  24295688.797     -798091.376 5   -578685.23721
 91  4 24 20 28  0.0000000  0  6G18G 2G11G16G19G 6
  21404240.3134    4621523.36647   3601178.93463
  22629746.7894   -5361671.88646  -4177908.76861
  23100176.633    -2466838.040 6  -1922201.12421
  23964175.773    -1354831.364 5   -975711.20221
  20910247.1094     887107.19347    691252.58363
  24290494.9694    -825395.06845   -599960.77861
 91  4 24 20 28 15.0000000  0  6G18G 2G11G16G19G 6
  21411791.109     4661215.624 7   3632107.88923
  22623584.5704   -5394050.26546  -4203138.57861
  23098738.641    -2474406.322 6  -1928098.43721
  23962338.5394   -1364472.13245   -983223.49661
  20912046.281      896582.974 7    698636.29723
  24285302.2664    -852680.78545   -621222.26861
 91  4 24 20 28 30.0000000  0  6G18G 2G11G16G19G 6
  21419364.258     4701009.504 7   3663116.03323
  22617435.320    -5426358.589 6  -4228313.79421
  23097325.094    -2481832.035 6  -1933884.65821
  23960534.047    -1373979.754 5   -990632.03921
  20913860.3284     906107.01147    706057.61263
  24280110.016     -879953.435 5   -642473.58621
 91  4 24 20 28 45.0000000  0  6G18G 2G11G16G19G 6
  21426957.242     4740906.544 7   3694204.56223
  22611301.7894   -5458595.65246  -4253433.48561
  23095939.773    -2489113.653 6  -1939558.59821
  23958750.344    -1383352.818 5   -997935.74421
  20915682.617      915680.638 7    713517.57123
  24274921.680     -907211.802 4   -663713.77121
 91  4 24 20 29  0.0000000  0  6G18G 2G11G16G19G 6
  21434571.055     4780905.421 7   3725372.44623
  22605181.7734   -5490762.49246  -4278498.46661
  23094581.469    -2496252.108 6  -1945120.98021
  23956990.617    -1392592.284 5  -1005135.33621
  20917514.039      925302.794 7    721015.34423
  24269736.4064    -934456.92144   -684943.63261
 91  4 24 20 29 15.0000000  0  6G18G 2G11G16G19G 6
  21442200.328     4821006.614 7   3756620.05423
  22599073.5944   -5522857.97546  -4303507.83462
  23093247.516    -2503246.397 6  -1950571.02421
  23955256.9144   -1401697.27745  -1012230.15161
  20919352.586      934974.217 7    728551.50423
  24264556.742     -961688.215 5   -706162.73621
 91  4 24 20 29 30.0000000  0  6G18G 2G11G16G19G 6
  21449849.9924    4861210.48947   3787947.67663
  22592979.0944   -5554881.54146  -4328461.16961
  23091945.164    -2510095.856 6  -1955908.21621
  23953548.0634   -1410667.01445  -1019219.57561
  20921204.6174     944695.59347    736126.58862
  24259378.766     -988905.122 4   -727370.58721
 91  4 24 20 29 45.0000000  0  6G18G 2G11G16G19G 6
  21457522.063     4901519.686 7   3819357.36423
  22586899.4224   -5586830.41646  -4353356.29562
  23090670.586    -2516797.527 6  -1961130.25821
  23951867.1804   -1419498.84645  -1026101.54061
  20923063.539      954469.862 7    743742.88822
  24254200.7814   -1016104.87144   -748565.13361
 91  4 24 20 30  0.0000000  0  6G18G 2G11G16G19G 6
  21465212.188     4941931.776 7   3850847.22623
  22580834.6484   -5618706.64846  -4378194.82762
  23089422.328    -2523353.418 6  -1966238.69221
  23950217.4224   -1428195.15945  -1032877.88661
  20924934.633      964294.790 7    751398.66123
  24249030.1804   -1043289.70844   -769748.00361
 91  4 24 20 30 15.0000000  0  6G18G 2G11G16G19G 6
  21472923.367     4982448.578 7   3882418.68623
  22574782.0864   -5650508.36846  -4402975.29661
  23088203.203    -2529761.451 6  -1971231.92221
  23948584.5004   -1436753.85345  -1039547.04461
  20926813.4304     974172.22647    759095.35563
  24243860.0864   -1070457.93544   -790917.94361
 91  4 24 20 30 30.0000000  0  6G18G 2G11G16G19G 6
  21480651.250     5023066.732 7   3914069.12223
  22568741.9844   -5682238.68646  -4427700.12862
  23087011.1804   -2536024.71046  -1976112.33261
  23946983.258    -1445177.832 5  -1046111.19621
  20928702.891      984098.888 7    766830.40422
  24238691.570    -1097612.822 4   -812077.51221
 91  4 24 20 30 45.0000000  0  6G18G 2G11G16G19G 6
  21488399.516     5063786.830 7   3945798.99323
  22562719.5634   -5713896.67846  -4452368.60562
  23085848.961    -2542142.119 6  -1980879.10921
  23945406.6094   -1453466.49845  -1052569.90961
  20930600.859      994075.556 7    774604.42123
  24233528.945    -1124753.357 4   -833225.86521
 91  4 24 20 31  0.0000000  0  6G18G 2G11G16G19G 6
  21496169.352     5104611.578 7   3977610.41223
  22556709.680    -5745479.200 6  -4476978.27321
  23084712.336    -2548110.578 6  -1985529.81121
  23943854.328    -1461616.803 5  -1058920.82421
  20932510.742     1004105.343 7    782419.82323
  24228366.633    -1151876.850 5   -854360.94121
 91  4 24 20 31 15.0000000  0  6G18G 2G11G16G19G 6
  21503957.211     5145539.622 7   4009502.31723
  22550713.1644   -5776987.34046  -4501529.98861
  23083605.633    -2553931.098 6  -1990065.23721
  23942329.7274   -1469629.90545  -1065164.80961
  20934426.617     1014187.280 7    790275.86523
  24223208.6254   -1178984.61145   -875483.72561
 91  4 24 20 31 30.0000000  0  6G18G 2G11G16G19G 6
  21511766.094     5186569.688 7   4041473.72423
  22544731.9534   -5808422.35847  -4526024.71561
  23082525.4924   -2559604.72146  -1994486.20061
  23940830.6804   -1477506.88345  -1071302.72061
  20936357.664     1024320.183 7    798171.61723
  24218046.367    -1206077.749 4   -896595.15121
 91  4 24 20 31 45.0000000  0  6G18G 2G11G16G19G 6
  21519593.367     5227701.975 7   4073524.77723
  22538765.1884   -5839783.75747  -4550462.07561
  23081471.875    -2565130.984 6  -1998792.33721
  23939357.656    -1485247.233 5  -1077334.18421
  20938295.211     1034504.238 7    806107.23823
  24212893.9064   -1233155.93844   -917694.92261
 91  4 24 20 32  0.0000000  0  6G18G 2G11G16G19G 6
  21527440.258     5268934.968 7   4105654.30823
  22532808.914    -5871072.763 6  -4574843.04021
  23080448.3834   -2570511.08246  -2002984.57961
  23937911.719    -1492852.262 5  -1083260.19121
  20940242.3834    1044738.01247    814081.59763
  24207746.7894   -1260220.70544   -938784.24161
 91  4 24 20 32 15.0000000  0  6G18G 2G11G16G19G 6
  21535304.734     5310264.417 7   4137858.99923
  22526868.383    -5902293.345 6  -4599170.68421
  23079451.070    -2575748.677 6  -2007065.78021
  23936490.0004   -1500325.93845  -1089083.86161
  20942197.1414    1055017.86847    822091.86863
  24202601.289    -1287276.047 5   -959866.22521
 91  4 24 20 32 30.0000000  0  6G18G 2G11G16G19G 6
  21543188.188     5351692.867 7   4170140.82923
  22520941.9454   -5933442.40346  -4623442.58661
  23078483.375    -2580840.791 6  -2011033.61921
  23935092.617    -1507665.375 5  -1094802.92021
  20944162.602     1065346.563 7    830140.18923
  24197448.8364   -1314318.97044   -980938.52461
 91  4 24 20 32 45.0000000  0  6G18G 2G11G16G19G 6
  21551091.148     5393220.112 7   4202499.64723
  22515026.414    -5964520.118 6  -4647658.90121
  23077542.414    -2585787.553 6  -2014888.19721
  23933720.5314   -1514870.93845  -1100417.65261
  20946136.6804    1075723.99647    838226.49363
  24192306.3674   -1341349.97945  -1002001.53061
 91  4 24 20 33  0.0000000  0  6G18G 2G11G16G19G 6
  21559011.242     5434846.295 7   4234935.55923
  22509126.398    -5995526.109 6  -4671819.33122
  23076627.7194   -2590588.43146  -2018629.09961
  23932372.281    -1521942.097 5  -1105927.66621
  20948124.7504    1086150.49047    846351.02163
  24187166.8444   -1368368.76045  -1023055.01361
 91  4 24 20 33 15.0000000  0  6G18G 2G11G16G19G 6
  21566952.773     5476578.613 7   4267454.17023
  22503237.992    -6026453.281 6  -4695918.34722
  23075742.438    -2595236.125 6  -2022250.64121
  23931056.5944   -1528871.80545  -1111327.44061
  20950117.1884    1096633.22947    854519.37963
  24182029.3204   -1395368.24745  -1044093.45361
 91  4 24 20 33 30.0000000  0  6G18G 2G11G16G19G 6
  21574912.617     5518412.379 7   4300051.82923
  22497370.023    -6057305.361 6  -4719958.84422
  23074887.250    -2599734.412 6  -2025755.75621
  23929764.1484   -1535664.00245  -1116620.07761
  20952120.6724    1107168.12747    862728.38363
  24176896.102    -1422352.391 5  -1065119.93921
 91  4 24 20 33 45.0000000  0  6G18G 2G11G16G19G 6
  21582893.141     5560349.289 7   4332729.86623
  22491514.547    -6088080.417 6  -4743939.32922
  23074061.0164   -2604081.33046  -2029142.93561
  23928497.0164   -1542316.35245  -1121803.75661
  20954135.3444    1117757.16747    870979.57463
  24171763.3674   -1449319.33745  -1086133.01461
 91  4 24 20 34  0.0000000  0  6G18G 2G11G16G19G 6
  21590891.648     5602383.876 7   4365484.00423
  22485670.2034   -6118783.98246  -4767864.09962
  23073259.2974   -2608282.33346  -2032416.40661
  23927257.008    -1548834.654 5  -1126882.96521
  20956160.8674    1128394.75647    879268.60063
  24166636.9844   -1476274.82145  -1107137.15861
 91  4 24 20 34 15.0000000  0  6G18G 2G11G16G19G 6
  21598910.477     5644517.609 7   4398315.39923
  22479842.047    -6149414.308 7  -4791731.80021
  23072490.453    -2612335.750 6  -2035574.86821
  23926042.688    -1555217.321 5  -1131856.48821
  20958194.7114    1139082.36247    887596.59763
  24161504.2584   -1503217.37945  -1128131.24461
 91  4 24 20 34 30.0000000  0  6G18G 2G11G16G19G 6
  21606947.555     5686753.030 7   4431226.04023
  22474027.594    -6179968.672 6  -4815540.32222
  23071746.0704   -2616238.49246  -2038615.93861
  23924856.125    -1561461.547 5  -1136722.13421
  20960240.570     1149823.033 7    895965.94023
  24156378.8364   -1530144.18744  -1149113.03661
 91  4 24 20 34 45.0000000  0  6G18G 2G11G16G19G 6
  21615004.570     5729089.384 7   4464215.33023
  22468226.578    -6210447.344 6  -4839289.85722
  23071032.945    -2619990.780 6  -2041539.75021
  23923693.852    -1567567.529 5  -1141480.04721
  20962292.1094    1160616.74247    904376.61463
  24151254.836    -1557055.580 4  -1170082.84221
 91  4 24 20 35  0.0000000  0  6G18G 2G11G16G19G 6
  21623080.664     5771525.774 7   4497282.57223
  22462441.789    -6240850.829 6  -4862980.80422
  23070349.117    -2623593.177 6  -2044346.77821
  23922556.5004   -1573536.13645  -1146130.92561
  20964356.7424    1171462.67347    912827.97963
  24146140.047    -1583952.240 4  -1191041.17521
 91  4 24 20 35 15.0000000  0  6G18G 2G11G16G19G 6
  21631175.141     5814060.233 7   4530426.22523
  22456670.016    -6271180.939 6  -4886614.58521
  23069688.7424   -2627047.35746  -2047038.31561
  23921447.9924   -1579369.08145  -1150676.07761
  20966428.7814    1182358.79447    921318.45263
  24141020.922    -1610836.161 4  -1211989.56921
 91  4 24 20 35 30.0000000  0  6G18G 2G11G16G19G 6
  21639288.969     5856693.517 7   4563646.88623
  22450914.281    -6301436.764 6  -4910190.47322
  23069062.6804   -2630352.48146  -2049613.69261
  23920364.8524   -1585065.71445  -1155115.04661
  20968512.7344    1193306.04047    929848.76563
  24135907.8284   -1637706.71644  -1232927.54961
 91  4 24 20 35 45.0000000  0  6G18G 2G11G16G19G 6
  21647419.852     5899426.445 7   4596945.18923
  22445168.617    -6331617.072 6  -4933707.52722
  23068460.6484   -2633507.22146  -2052071.89361
  23919307.2274   -1590624.73345  -1159446.74661
  20970605.2664    1204305.51547    938419.77563
  24130801.539    -1664562.729 4  -1253854.19621
 91  4 24 20 36  0.0000000  0  6G18G 2G11G16G19G 6
  21655567.922     5942256.901 7   4630319.49123
  22439439.750    -6361723.874 6  -4957167.29721
  23067886.9384   -2636513.42646  -2054414.35361
  23918272.5394   -1596048.25445  -1163672.90561
  20972711.5004    1215355.27947    947029.97663
  24125695.5164   -1691406.27245  -1274771.12661
 91  4 24 20 36 15.0000000  0  6G18G 2G11G16G19G 6
  21663737.633     5985184.376 7   4663769.38923
  22433725.7114   -6391757.44247  -4980570.01062
  23067345.930    -2639371.260 6  -2056641.18821
  23917266.1484   -1601336.51545  -1167793.63561
  20974821.1094    1226455.09847    955679.18063
  24120589.289    -1718237.649 5  -1295678.58521
 91  4 24 20 36 30.0000000  0  6G18G 2G11G16G19G 6
  21671925.742     6028211.520 7   4697296.95023
  22428024.570    -6421714.731 7  -5003913.27822
  23066827.5864   -2642077.61546  -2058750.00161
  23916285.5314   -1606486.35545  -1171806.51561
  20976944.1884    1237607.95747    964369.71463
  24115488.086    -1745054.233 5  -1316574.50821
 91  4 24 20 36 45.0000000  0  6G18G 2G11G16G19G 6
  21680131.648     6071336.423 7   4730900.68323
  22422338.516    -6451597.282 7  -5027198.29821
  23066342.2664   -2644634.07346  -2060742.00361
  23915332.2114   -1611499.37645  -1175712.78161
  20979074.2194    1248812.42647    973100.45963
  24110386.305    -1771857.314 5  -1337459.94821
 91  4 24 20 37  0.0000000  0  6G18G 2G11G16G19G 6
  21688357.070     6114559.796 7   4764581.15223
  22416665.969    -6481404.201 7  -5050424.38622
  23065886.586    -2647039.792 6  -2062616.54821
  23914405.0004   -1616374.95145  -1179511.92861
  20981218.1094    1260069.20647    981871.97163
  24105288.266    -1798646.434 5  -1358334.47621
 91  4 24 20 37 15.0000000  0  6G18G 2G11G16G19G 6
  21696600.6484    6157876.40447   4798334.26863
  22411006.8984   -6511140.47246  -5073595.44062
  23065456.0164   -2649299.69146  -2064377.46361
  23913500.938    -1621118.160 5  -1183207.97421
  20983368.7194    1271373.22847    990680.29163
  24100188.961    -1825426.628 5  -1379202.03921
 91  4 24 20 37 30.0000000  0  6G18G 2G11G16G19G 6
  21704861.2274    6201283.95247   4832158.24363
  22405360.703    -6540808.091 6  -5096712.98422
  23065054.695    -2651415.679 6  -2066026.24621
  23912624.4694   -1625731.02545  -1186802.41361
  20985527.6884    1282722.44147    999523.82763
  24095092.2974   -1852199.96945  -1400064.29661
 91  4 24 20 37 45.0000000  0  6G18G 2G11G16G19G 6
  21713138.6254    6244787.35547   4866056.91563
  22399729.516    -6570402.150 7  -5119773.21722
  23064676.0704   -2653382.64946  -2067558.91361
  23911773.547    -1630208.547 5  -1190291.42021
  20987697.6174    1294121.76947   1008406.41463
  24090001.352    -1878961.549 5  -1420917.36921
 91  4 24 20 38  0.0000000  0  6G18G 2G11G16G19G 6
  21721435.453     6288383.496 7   4900027.84823
  22394113.180    -6599925.280 7  -5142778.18322
  23064334.3524   -2655202.99946  -2068977.32261
  23910944.828    -1634552.989 5  -1193676.71821
  20989875.8984    1305568.66247   1017326.06663
  24084908.0314   -1905714.14545  -1441763.44861
 91  4 24 20 38 15.0000000  0  6G18G 2G11G16G19G 6
  21729749.4774    6332074.85247   4934072.97163
  22388508.742    -6629374.718 7  -5165725.72522
  23064012.930    -2656874.048 6  -2070279.39721
  23910148.109    -1638762.011 5  -1196956.51521
  20992064.0164    1317065.81147   1026284.87963
  24079824.156    -1932455.115 5  -1462600.44921
 91  4 24 20 38 30.0000000  0  6G18G 2G11G16G19G 6
  21738081.7424    6375860.63047   4968191.67063
  22382915.938    -6658750.994 7  -5188616.25522
  23063726.2114   -2658396.37846  -2071465.58261
  23909369.930    -1642836.278 5  -1200131.26421
  20994264.6724    1328612.46447   1035282.26763
  24074737.6954   -1959185.15045  -1483428.91461
 91  4 24 20 38 45.0000000  0  6G18G 2G11G16G19G 6
  21746430.9534    6419742.88047   5002385.54263
  22377342.1804   -6688051.80847  -5211447.99162
  23063463.930    -2659767.674 6  -2072534.07721
  23908620.500    -1646773.736 5  -1203199.43521
  20996467.9924    1340211.00747   1044320.08162
  24069653.750    -1985902.237 5  -1504247.30821
 91  4 24 20 39  0.0000000  0  6G18G 2G11G16G19G 6
  21754801.6334    6463718.61247   5036652.25763
  22371778.805    -6717279.786 7  -5234222.96222
  23063230.7584   -2660990.49346  -2073486.87761
  23907896.6644   -1650577.12145  -1206163.12161
  20998688.0164    1351858.58047   1053396.10362
  24064572.2114   -2012609.10845  -1525057.77661
 91  4 24 20 39 15.0000000  0  6G18G 2G11G16G19G 6
  21763186.6334    6507788.13247   5070992.05063
  22366230.578    -6746434.425 6  -5256940.79122
  23063024.023    -2662064.416 6  -2074323.66421
  23907198.742    -1654246.184 5  -1209022.15921
  21000908.9304    1363555.87047   1062510.87162
  24059488.7424   -2039305.21945  -1545859.79961
 91  4 24 20 39 30.0000000  0  6G18G 2G11G16G19G 6
  21771591.8134    6551949.88147   5105403.71863
  22360697.492    -6775516.991 6  -5279602.45822
  23062850.719    -2662990.664 6  -2075045.36821
  23906526.805    -1657781.811 5  -1211777.21021
  21003148.0164    1375301.51147   1071663.31262
  24054410.9144   -2065992.19045  -1566654.76161
 91  4 24 20 39 45.0000000  0  6G18G 2G11G16G19G 6
  21780013.0084    6596205.69447   5139888.67562
  22355177.7974   -6804525.29147  -5302206.25862
  23062702.797    -2663766.791 6  -2075650.09221
  23905881.578    -1661181.735 5  -1214426.52621
  21005390.3914    1387097.78947   1080855.21463
  24049335.6564   -2092667.54045  -1587440.63061
 91  4 24 20 40  0.0000000  0  6G18G 2G11G16G19G 6
  21788451.8364    6640554.97647   5174446.47162
  22349671.023    -6833459.772 6  -5324752.52722
  23062583.8984   -2664393.24346  -2076138.19961
  23905256.055    -1664446.823 5  -1216970.77221
  21007643.9614    1398944.15947   1090086.14163
  24044261.977    -2119332.205 5  -1608218.18921
 91  4 24 20 40 15.0000000  0  6G18G 2G11G16G19G 6
  21796909.1174    6684999.88347   5209078.77562
  22344178.344    -6862318.121 6  -5347239.47422
  23062493.305    -2664867.635 6  -2076507.80821
  23904661.9614   -1667574.71045  -1219408.09361
  21009907.9694    1410842.89147   1099357.87562
  24039189.3914   -2145983.78545  -1628985.55261
 91  4 24 20 40 30.0000000  0  6G18G 2G11G16G19G 6
  21805384.2814    6729536.62947   5243782.64662
  22338701.8444   -6891103.67547  -5369669.70762
  23062431.703    -2665193.174 6  -2076761.43821
  23904092.633    -1670568.632 5  -1221741.04121
  21012185.3984    1422790.58447   1108667.75763
  24034119.9384   -2172625.75545  -1649745.45361
 91  4 24 20 40 45.0000000  0  6G18G 2G11G16G19G 6
  21813877.4614    6774164.87447   5278557.80962
  22333238.141    -6919816.440 7  -5392043.21722
  23062397.414    -2665369.949 6
  23903550.2894   -1673428.92445  -1223969.85461
  21014465.1334    1434787.31347   1118015.85063
  24029047.8674   -2199258.22945  -1670497.91361
 91  4 24 20 41  0.0000000  0  6G18G 2G11G16G19G 6
  21822387.3914    6818884.09247   5313403.85762
  22327788.6724   -6948456.94547  -5414360.42262
  23062394.398    -2665398.388 6
  23903029.219    -1676156.174 5  -1226094.99221
  21016757.2344    1446832.65247   1127401.82563
  24023987.602    -2225881.866 5  -1691243.49021
 91  4 24 20 41 15.0000000  0  6G18G 2G11G16G19G 6
  21830914.8054    6863695.40247   5348321.67062
  22322352.109    -6977023.655 7  -5436620.12122
  23062413.367    -2665276.926 6
  23902536.992    -1678748.629 5  -1228115.10521
  21019058.3914    1458928.05547   1136826.80462
  24018922.5164   -2252495.17645  -1711981.03861
 91  4 24 20 41 30.0000000  0  6G18G 2G11G16G19G 6
  21839460.5164    6908599.14147   5383311.50962
  22316931.4144   -7005515.86547  -5458821.77962
  23062468.7504   -2665004.80746
  23902069.5864   -1681205.58845  -1230029.62861
  21021371.0554    1471073.93647   1146291.12263
  24013859.539    -2279097.609 5  -1732710.10321
 91  4 24 20 41 45.0000000  0  6G18G 2G11G16G19G 6
  21848022.7894    6953596.01047   5418373.90963
  22311522.5864   -7033932.66647  -5480964.66962
  23062545.5864   -2664581.25046  -2076284.41261
  23901628.508    -1683526.818 5  -1231838.40121
  21023691.6954    1483271.13347   1155795.42562
  24008797.8524   -2305688.58745  -1753430.22261
 91  4 24 20 42  0.0000000  0  6G18G 2G11G16G19G 6
  21856604.3754    6998683.24847   5453506.71862
  22306129.1254   -7062276.57047  -5503050.76762
  23062654.859    -2664008.557 6  -2075838.11121
  23901210.031    -1685714.731 5  -1233543.28221
  21026022.5164    1495517.42247   1165337.98463
  24003737.6564   -2332270.36745  -1774143.21161
 91  4 24 20 42 15.0000000  0  6G18G 2G11G16G19G 6
  21865201.1484    7043864.37847   5488712.70162
  22300751.617    -7090543.758 7  -5525077.07222
  23062794.9534   -2663282.74346  -2075272.50961
  23900820.1414   -1687765.05345  -1235140.92561
  21028362.2034    1507816.69747   1174921.82663
  23998681.164    -2358839.292 5  -1794846.16721
 91  4 24 20 42 30.0000000  0  6G18G 2G11G16G19G 6
  21873815.8674    7089137.87647   5523990.65862
  22295384.805    -7118735.648 7  -5547044.70122
  23062960.6804   -2662405.33846  -2074588.78661
  23900457.8364   -1689679.68745  -1236632.85761
  21030712.7344    1520167.42247   1184545.75963
  23993629.8444   -2385396.98745  -1815540.38961
 91  4 24 20 42 45.0000000  0  6G18G 2G11G16G19G 6
  21882449.1174    7134508.91047   5559344.62162
  22290035.1484   -7146846.53747  -5568949.21862
  23063158.1564   -2661370.72246  -2073782.55561
  23900116.5474   -1691453.06545  -1238014.70561
  21033072.3834    1532575.09247   1194214.06763
  23988578.7814   -2411938.05245  -1836221.65361
 91  4 24 20 43  0.0000000  0  6G18G 2G11G16G19G 6
  21891099.8284    7179972.09747   5594770.38062
  22284700.227    -7174881.691 7  -5590794.72122
  23063386.5394   -2660184.09046  -2072857.86861
  23899805.5234   -1693090.37645  -1239290.52761
  21035445.461     1545034.608 7   1203922.77223
  23983530.055    -2438467.592 5  -1856893.93321
 91  4 24 20 43 15.0000000  0  6G18G 2G11G16G19G 6
  21899771.1414    7225527.27147   5630267.82262
  22279381.656    -7202841.006 7  -5612581.13022
  23063638.4304   -2658845.20546  -2071814.55261
  23899521.039    -1694591.502 5  -1240460.23721
  21037824.8364    1557545.99047   1213671.89063
  23978483.867    -2464985.561 5  -1877557.17721
 91  4 24 20 43 30.0000000  0  6G18G 2G11G16G19G 6
  21908457.0394    7271172.63447   5665835.54662
  22274073.992    -7230725.785 7  -5634309.45522
  23063922.0164   -2657355.42846  -2070653.65661
  23899262.898    -1695958.091 5  -1241525.10921
  21040218.8134    1570107.89247   1223460.38063
  23973439.1334   -2491493.65345  -1898212.72861
 91  4 24 20 43 45.0000000  0  6G18G 2G11G16G19G 6
  21917161.0554    7316909.22747   5701474.35262
  22268781.3914   -7258534.65247  -5655978.63362
  23064235.3914   -2655713.49246  -2069374.18961
  23899027.2814   -1697188.93645  -1242484.22361
  21042616.805     1582721.642 7   1233289.26323
  23968396.1724   -2517990.44045  -1918859.48061
 91  4 24 20 44  0.0000000  0  6G18G 2G11G16G19G 6
  21925880.8364    7362738.55447   5737185.41962
  22263505.6414   -7286266.14247  -5677587.51962
  23064575.1024   -2653917.69146  -2067974.83861
  23898818.2274   -1698282.17845  -1243336.10161
  21045029.1564    1595388.71147   1243159.69863
  23963358.359    -2544474.580 5  -1939496.35721
 91  4 24 20 44 15.0000000  0  6G18G 2G11G16G19G 6
  21934618.6724    7408663.49947   5772970.99362
  22258242.0634   -7313917.24447  -5699133.76862
  23064946.7894   -2651964.91046  -2066453.15361
  23898635.859    -1699234.936 5  -1244078.51621
  21047447.1174    1608112.24447   1253074.12663
  23958320.0554   -2570942.95245  -1960120.96461
 91  4 24 20 44 30.0000000  0  6G18G 2G11G16G19G 6
  21943376.2894    7454681.00047   5808828.69362
  22252996.0704   -7341490.57847  -5720619.42062
  23065349.1884   -2649857.80146  -2064811.22261
  23898480.8914   -1700050.07145  -1244713.67661
  21049879.6254    1620889.55147   1263030.46263
  23953281.828    -2597398.425 4  -1980735.52221
 91  4 24 20 44 45.0000000  0  6G18G 2G11G16G19G 6
  21952151.4064    7500788.90647   5844756.82962
  22247763.0784   -7368987.85847  -5742045.81462
  23065777.9064   -2647598.24346  -2063050.49661
  23898351.4614   -1700729.56145  -1245243.16161
  21052320.8594    1633718.78547   1273027.26262
  23948251.1954   -2623842.88645  -2001341.50461
 91  4 24 20 45  0.0000000  0  6G18G 2G11G16G19G 6
  21960938.1644    7546982.29747   5880751.57962
  22242545.688    -7396413.824 7  -5763416.62322
  23066236.0004   -2645190.78246  -2061174.51861
  23898247.2734   -1701277.95845  -1245670.46961
  21054771.6484    1646595.42347   1283060.99562
  23943224.164    -2650281.029 5  -2021942.55121
 91  4 24 20 45 15.0000000  0  6G18G 2G11G16G19G 6
  21969748.1254    7593264.26447   5916815.35062
  22237338.2114   -7423765.30447  -5784729.40362
  23066723.742    -2642632.224 6  -2059180.79721
  23898171.3524   -1701692.22545  -1245993.27361
  21057231.2894    1659522.56047   1293134.08563
  23938193.3754   -2676709.82745  -2042536.32761
 91  4 24 20 45 30.0000000  0  6G18G 2G11G16G19G 6
  21978571.531     7639635.687 7   5952948.82622
  22232147.4694   -7451040.96947  -5805983.11062
  23067236.8134   -2639921.32646  -2057068.37461
  23898119.9454   -1701971.27145  -1246210.71761
  21059703.6564    1672501.41447   1303247.47162
  23933168.3524   -2703128.22045  -2063121.96761
 91  4 24 20 45 45.0000000  0  6G18G 2G11G16G19G 6
  21987412.664     7686098.635 7   5989153.61122
  22226972.5234   -7478238.24347  -5827175.71762
  23067784.8914   -2637055.44946  -2054835.20661
  23898092.031    -1702113.031 5
  21062180.875     1685534.432 7   1313403.05122
  23928144.1804   -2729533.68345  -2083697.55361
 91  4 24 20 46  0.0000000  0  6G18G 2G11G16G19G 6
  21996272.7664    7732650.87047   6025427.98662
  22221813.4614   -7505359.14547  -5848308.82462
  23068358.984    -2634036.679 6  -2052482.89121
  23898091.531    -1702118.967 5
  21064671.8204    1698619.68747   1323599.34162
  23923120.500    -2755928.334 5  -2104264.69521
 91  4 24 20 46 15.0000000  0  6G18G 2G11G16G19G 6
  22005148.063     7779289.275 7   6061769.49622
  22216663.8204   -7532406.60047  -5869384.69562
  23068962.4224   -2630867.86846  -2050013.65261
  23898116.0004   -1701992.02245
  21067171.9534    1711754.11147   1333833.94662
  23918095.8914   -2782315.10545  -2124825.72761
 91  4 24 20 46 30.0000000  0  6G18G 2G11G16G19G 6
  22014040.922     7826020.420 7   6098183.26722
  22211533.5554   -7559374.12147  -5890398.27762
  23069595.5554   -2627542.37446  -2047422.32561
  23898164.6094   -1701725.81245
  21069681.766     1724944.382 7   1344112.07123
  23913077.258    -2808687.600 5  -2145375.61621
 91  4 24 20 46 45.0000000  0  6G18G 2G11G16G19G 6
  22022949.008     7872840.187 7   6134666.09922
  22206415.0164   -7586265.10647  -5911352.22962
  23070258.8984   -2624063.76247  -2044711.69461
  23898242.641    -1701324.184 5  -1245706.55021
  21072200.219     1738187.137 7   1354431.08922
  23908057.227    -2835049.307 5  -2165917.12721
 91  4 24 20 47  0.0000000  0  6G18G 2G11G16G19G 6
  22031873.5084    7919746.88547   6171216.67462
  22201312.6174   -7613081.08247  -5932247.73162
  23070946.4844   -2620433.55746  -2041882.92861
  23898340.320    -1700788.790 5  -1245289.37021
  21074731.1644    1751480.85847   1364789.82062
  23903045.8364   -2861401.84945  -2186451.48261
 91  4 24 20 47 15.0000000  0  6G18G 2G11G16G19G 6
  22040818.2034    7966739.53347   6207834.22562
  22196223.5004   -7639822.79347  -5953085.36462
  23071666.3834   -2616652.48746  -2038936.61961
  23898472.0164   -1700120.36545  -1244768.54861
  21077271.0944    1764824.53147   1375187.48163
  23898034.180    -2887746.118 5  -2206979.38021
 91  4 24 20 47 30.0000000  0  6G18G 2G11G16G19G 6
  22049777.852     8013820.588 7   6244520.65522
  22191149.9844   -7666487.49447  -5973862.98362
  23072416.4534   -2612717.69246  -2035870.50761
  23898622.8444   -1699316.33845  -1244142.05961
  21079818.8984    1778220.96047   1385626.24962
  23893024.9454   -2914079.43545  -2227498.73861
 91  4 24 20 47 45.0000000  0  6G18G 2G11G16G19G 6
  22058755.336     8060988.499 7   6281274.76122
  22186090.4144   -7693076.33147  -5994581.49562
  23073193.5084   -2608630.19646  -2032685.41161
  23898804.141    -1698377.691 5  -1243410.67321
  21082377.492     1791669.239 7   1396105.41523
  23888012.3914   -2940402.88445  -2248010.43361
 91  4 24 20 48  0.0000000  0  6G18G 2G11G16G19G 6
  22067744.867     8108242.661 7   6318096.07822
  22181045.6564   -7719590.18547  -6015241.58762
  23073999.3524   -2604390.79646  -2029381.94961
  23899005.6094   -1697304.93945  -1242574.78661
  21084947.016     1805168.822 7   1406624.55922
  23883006.9924   -2966717.35145  -2268515.11061
 91  4 24 20 48 15.0000000  0  6G18G 2G11G16G19G 6
  22076756.070     8155585.539 7   6354986.52122
  22176015.0004   -7746026.03847  -6035840.88562
  23074837.0784   -2599996.62046  -2025957.89361
  23899236.6254   -1696095.79145  -1241632.62961
  21087526.0704    1818722.29947   1417185.70462
  23878001.414    -2993020.126 5  -2289010.66621
 91  4 24 20 48 30.0000000  0  6G18G 2G11G16G19G 6
  22085781.172     8203015.434 7   6391944.77122
  22170998.2974   -7772385.12247
  23075703.2194   -2595448.97747  -2022414.23861
  23899490.2114   -1694751.78145  -1240585.37661
  21090119.3594    1832328.31747   1427787.78862
  23872997.586    -3019312.526 5
 91  4 24 20 48 45.0000000  0  6G18G 2G11G16G19G 6
  22094822.898     8250529.763 7   6428968.81122
  22165996.336    -7798669.857 7
  23076595.844    -2590750.229 6  -2018752.84921
  23899773.125    -1693275.231 5  -1239434.84021
  21092716.102     1845984.723 7   1438429.12823
  23867989.391    -3045596.880 5
 91  4 24 20 49  0.0000000  0  6G18G 2G11G16G19G 6
  22103880.211     8298128.203 7   6466058.39122
  22161008.8594   -7824880.21947  -6097285.52062
  23077518.5944   -2585900.44146  -2014973.76561
  23900075.875    -1691666.044 5  -1238180.97421
  21095324.9454    1859691.44547   1449109.68163
  23862992.7424   -3071873.50145
 91  4 24 20 49 15.0000000  0  6G18G 2G11G16G19G 6
  22112952.344     8345809.713 7   6503212.70022
  22156035.8914   -7851016.91047  -6117651.71262
  23078472.406    -2580900.466 7  -2011077.65621
  23900409.5234   -1689925.15645  -1236824.46961
  21097939.383     1873447.449 7   1459828.63122
  23857995.6254   -3098143.31745
 91  4 24 20 49 30.0000000  0  6G18G 2G11G16G19G 6
  22122041.125     8393572.769 7   6540430.55622
  22151073.6024   -7877081.15547  -6137961.45862
  23079449.797    -2575751.267 6  -2007065.26721
  23900766.7664   -1688053.78145  -1235366.28461
  21100567.0474    1887251.76447   1470585.23162
  23852999.117    -3124407.370 5  -2338177.90721
 91  4 24 20 49 45.0000000  0  6G18G 2G11G16G19G 6
  22131148.930     8441421.568 7   6577715.22622
  22146130.2814   -7903068.68647  -6158211.42062
  23080459.461    -2570448.581 6  -2002933.28621
  23901149.820    -1686047.897 5  -1233803.30621
  21103203.6484    1901108.60147   1481382.75663
  23848003.422    -3150661.459 5  -2358635.57221
 91  4 24 20 50  0.0000000  0  6G18G 2G11G16G19G 6
  22140269.3834    8489354.77847   6615065.66662
  22141198.8594   -7928980.47147  -6178402.35362
  23081498.313    -2564993.388 7  -1998682.47021
  23901553.0704   -1683908.48645  -1232136.26061
  21105850.4774    1915017.06347   1492220.51562
  23843012.852    -3176906.621 5  -2379086.23821
 91  4 24 20 50 15.0000000  0  6G18G 2G11G16G19G 6
  22149406.4614    8537366.93647   6652477.61362
  22136281.7974   -7954821.65347  -6198538.28062
  23082564.7584   -2559390.98547  -1994316.93861
  23901989.4224   -1681641.02145  -1230369.43461
  21108504.9454    1928971.91847   1503094.41662
  23838014.8834   -3203148.26145  -2399534.18261
 91  4 24 20 50 30.0000000  0  6G18G 2G11G16G19G 6
  22158558.2584    8585460.50747   6689953.00162
  22131376.7034   -7980589.82147  -6218617.31262
  23083657.4774   -2553638.79747  -1989834.68661
  23902440.7034   -1679242.95745  -1228500.85261
  21111172.8984    1942975.90147   1514006.60562
  23833019.977    -3229383.793 5  -2419977.36921
 91  4 24 20 50 45.0000000  0  6G18G 2G11G16G19G 6
  22167728.0314    8633633.63047   6727490.37862
  22126486.8754   -8006286.30647  -6238640.48762
  23084778.398    -2547738.173 6  -1985236.77821
  23902921.523    -1676715.782 5  -1226531.63621
  21113845.0314    1957027.58047   1524955.95562
  23828029.211    -3255614.676 5  -2440416.94721
 91  4 24 20 51  0.0000000  0  6G18G 2G11G16G19G 6
  22176906.523     8681889.479 7   6765092.22622
  22121611.4694   -8031907.51647  -6258605.00962
  23085930.6884   -2541685.48046  -1980520.37761
  23903426.0944   -1674055.83345  -1224458.99361
  21116533.2814    1971130.49147   1535945.23062
  23823036.461    -3281837.477 5  -2460850.21121
 91  4 24 20 51 15.0000000  0  6G18G 2G11G16G19G 6
  22186107.5784    8730227.66847   6802758.22562
  22116751.4224   -8057453.70347  -6278511.07562
  23087114.734    -2535481.079 6  -1975685.76021
  23903962.3984   -1671263.62745  -1222283.28261
  21119220.4304    1985284.36547   1546974.21262
  23818051.1414   -3308052.49445  -2481277.41761
 91  4 24 20 51 30.0000000  0  6G18G 2G11G16G19G 6
  22195319.2194    8778644.01447   6840485.12562
  22111903.2274   -8082928.85047  -6298361.77762
  23088322.344    -2529128.923 7  -1970736.01121
  23904519.188    -1668343.208 5  -1220007.65121
  21121928.5474    1999485.25947   1558039.83662
  23813061.773    -3334263.780 5  -2501701.71921
 91  4 24 20 51 45.0000000  0  6G18G 2G11G16G19G 6
  22204549.6484    8827138.17947   6878272.66262
  22107067.9844   -8108332.98647  -6318157.14162
  23089560.047    -2522629.119 6  -1965671.21521
  23905096.2194   -1665294.93245  -1217632.40161
  21124635.813     2013733.106 7   1569142.04522
  23808077.9304   -3360471.48645  -2522123.22061
 91  4 24 20 52  0.0000000  0  6G18G 2G11G16G19G 6
  22213792.1484    8875709.83947   6916120.58562
  22102247.242    -8133666.255 7  -6337897.29822
  23090823.859    -2515981.764 6  -1960491.43821
  23905701.7114   -1662118.83845  -1215157.55761
  21127359.1174    2028027.89547   1580280.82662
  23803089.656    -3386675.828 5  -2542542.11121
 91  4 24 20 52 15.0000000  0  6G18G 2G11G16G19G 6
  22223049.4774    8924359.96847   6954029.65662
  22097441.1644   -8158926.98147  -6357580.92762
  23092116.688    -2509185.217 6  -1955195.41321
  23906330.0864   -1658813.43045  -1212581.95261
  21130084.3204    2042371.18247   1591457.41062
  23798106.3524   -3412875.15545  -2562957.09761
 91  4 24 20 52 30.0000000  0  6G18G 2G11G16G19G 6
  22232323.0084    8973090.79347   6992001.60962
  22092648.5944   -8184112.94747  -6377206.28862
  23093440.953    -2502237.213 6  -1949781.37221
  23906985.3204   -1655376.23545  -1209903.66061
  21132825.2664    2056765.28947   1602673.58462
  23793117.5474   -3439067.23345  -2583366.43961
 91  4 24 20 52 45.0000000  0  6G18G 2G11G16G19G 6
  22241612.9614    9021901.04047   7030035.44462
  22087869.5704   -8209225.16147  -6396774.18962
  23094789.1414   -2495138.83046  -1944250.15361
  23907662.1024   -1651808.48245  -1207123.61961
  21135573.742     2071209.109 7   1613928.49322
  23788137.6174   -3465253.32745  -2603771.10261
 91  4 24 20 53  0.0000000  0  6G18G 2G11G16G19G 6
  22250914.9064    9070793.51647   7068133.35662
  22083103.578    -8234260.545 7  -6416282.23222
  23096169.1024   -2487887.04746  -1938599.40361
  23908367.672    -1648107.596 5  -1204239.86321
  21138335.734     2085705.637 7   1625224.47522
  23783155.7584   -3491430.39445  -2624168.72961
 91  4 24 20 53 15.0000000  0  6G18G 2G11G16G19G 6
  22260232.7034    9119763.94247   7106292.01162
  22078354.1254   -8259223.21147  -6435733.59462
  23097579.3054   -2480485.80946  -1932832.19561
  23909097.203    -1644277.545 5  -1201255.43521
  21141099.0474    2100250.95447   1636558.47862
  23778172.234    -3517602.476 5  -2644562.49121
 91  4 24 20 53 30.0000000  0  6G18G 2G11G16G19G 6
  22269566.3984    9168811.68647   7144510.91162
  22073618.5004   -8284113.25647  -6455128.37562
  23099015.359    -2472935.433 7  -1926948.77921
  23909847.4384   -1640318.96445  -1198170.86861
  21143878.234     2114844.867 7   1647930.34222
  23773195.6564   -3543769.95445  -2664952.65061
 91  4 24 20 53 45.0000000  0  6G18G 2G11G16G19G 6
  22278915.8914    9217938.22847   7182791.20762
  22068895.938    -8308929.154 7  -6474465.38422
  23100481.133    -2465234.468 6  -1920948.01321
  23910622.7584   -1636230.18045  -1194984.83661
  21146661.984     2129488.953 7   1659341.30022
  23768218.008    -3569931.375 5  -2685338.10621
 91  4 24 20 54  0.0000000  0  6G18G 2G11G16G19G 6
  22288278.9224    9267142.71847   7221132.24762
  22064187.4694   -8333671.43847  -6493745.02462
  23101972.4064   -2457383.20046  -1914830.13861
  23911430.078    -1632011.703 5  -1191697.74221
  21149461.609     2144182.860 7   1670791.08422
  23763239.6024   -3596086.95945  -2705718.99661
 91  4 24 20 54 15.0000000  0  6G18G 2G11G16G19G 6
  22297656.1334    9316422.41047   7259531.87862
  22059493.133    -8358342.625 7  -6512969.27322
  23103497.484    -2449384.211 6  -1908597.14421
  23912258.320    -1627666.125 5  -1188311.61521
  21152262.3134    2158924.02747   1682277.69762
  23758260.430    -3622239.593 5  -2726097.58121
 91  4 24 20 54 30.0000000  0  6G18G 2G11G16G19G 6
  22307051.4144    9365782.62847   7297994.26162
  22054812.2344   -8382936.86047  -6532133.55562
  23105049.4534   -2441231.76147  -1902244.58161
  23913114.1174   -1623187.69045  -1184821.95961
  21155081.250     2173718.328 7   1693805.70922
  23753285.758    -3648383.360 5  -2746469.28221
 91  4 24 20 54 45.0000000  0  6G18G 2G11G16G19G 6
  22316459.484     9415220.495 7   7336517.14122
  22050148.1334   -8407457.14047  -6551240.21062
  23106629.8364   -2432928.81846  -1895774.75461
  23913987.5394   -1618579.53045  -1181231.23461
  21157905.047     2188562.862 7   1705372.86322
  23748311.320    -3674521.361 5  -2766836.46821
 91  4 24 20 55  0.0000000  0  6G18G 2G11G16G19G 6
  22325879.2344    9464733.69647   7375098.72862
  22045495.1334   -8431905.32247  -6570290.68062
  23108237.7664   -2424477.40447  -1889189.23261
  23914888.805    -1613844.059 5  -1177541.30221
  21160740.008     2203455.638 7   1716977.60822
  23743341.2814   -3700655.57345  -2787200.70561
 91  4 24 20 55 15.0000000  0  6G18G 2G11G16G19G 6
  22335317.867     9514325.606 7   7413741.64622
  22040855.891    -8456277.479 7  -6589281.91822
  23109872.3834   -2415873.66346  -1882485.01461
  23915813.367    -1608977.320 5  -1173749.09621
  21163582.156     2218400.423 7   1728622.88022
  23738368.875    -3726782.278 5  -2807559.10421
 91  4 24 20 55 30.0000000  0  6G18G 2G11G16G19G 6
  22344767.5234    9563992.81547   7452443.23862
  22036231.555    -8480576.891 7  -6608216.47322
  23111539.1804   -2407120.63746  -1875664.46561
  23916762.852    -1603982.466 5  -1169857.05121
  21166435.258     2233394.340 7   1740306.43722
  23733399.4534   -3752904.49645  -2827914.00161
 91  4 24 20 55 45.0000000  0  6G18G 2G11G16G19G 6
  22354234.6254    9613734.82647   7491203.12762
  22031622.8984   -8504803.74247  -6627094.48062
  23113231.938    -2398218.651 6  -1868727.83421
  23917739.680    -1598859.906 5  -1165865.48521
  21169298.688     2248437.104 7   1752028.05522
  23728429.484    -3779022.640 5  -2848265.72421
 91  4 24 20 56  0.0000000  0  6G18G 2G11G16G19G 6
  22363714.0164    9663555.99947   7530024.70262
  22027025.8674   -8528953.48547  -6645912.40362
  23114955.2734   -2389163.05046  -1861671.51761
  23918738.3834   -1593605.14845  -1161770.91161
  21172175.008     2263533.254 7   1763791.26822
  23723457.1024   -3805132.21145  -2868610.77761
 91  4 24 20 56 15.0000000  0  6G18G 2G11G16G19G 6
  22373210.555     9713455.713 7   7568907.46322
  22022445.7274   -8553026.55047  -6664670.57562
  23116707.0004   -2379954.40746  -1854495.94961
  23919763.492    -1588218.898 5  -1157573.88221
  21175055.563     2278682.374 7   1775595.75522
  23718492.352    -3831233.563 5  -2888949.41221
 91  4 24 20 56 30.0000000  0  6G18G 2G11G16G19G 6
  22382723.695     9763434.086 7   7607851.51822
  22017878.828    -8577022.484 7  -6683368.64922
  23118489.6414   -2370592.31646  -1847200.81361
  23920810.805    -1582700.708 5  -1153274.03321
  21177950.852     2293884.984 7   1787441.92622
  23713526.773    -3857326.414 5  -2909281.43821
 91  4 24 20 56 45.0000000  0  6G18G 2G11G16G19G 6
  22392248.242     9813490.550 7   7646856.42022
  22013325.844    -8600941.579 7  -6702006.85122
  23120303.4774   -2361077.23546  -1839786.46161
  23921890.086    -1577051.159 5  -1148871.83021
  21180849.453     2309140.688 7   1799329.47022
  23708561.219    -3883411.269 5  -2929607.21821
 91  4 24 20 57  0.0000000  0  6G18G 2G11G16G19G 6
  22401786.9384    9863621.47446   7685919.35162
  22008789.656    -8624787.307 7  -6720587.88522
  23122141.1414   -2351412.48347  -1832255.48361
  23922991.7114   -1571273.62045  -1144369.89661
  21183761.906     2324446.225 7   1811255.84222
  23703602.148    -3909491.382 5  -2949929.30721
 91  4 24 20 57 15.0000000  0  6G18G 2G11G16G19G 6
  22411340.508     9913830.826 6   7725043.39122
  22004266.6254   -8648555.26647  -6739108.32062
  23124008.8754   -2341593.73746  -1824604.51661
  23924117.0704   -1565363.73345  -1139764.84961
  21186684.570     2339805.847 7   1823224.36322
  23698638.750    -3935562.522 5  -2970244.40521
 91  4 24 20 57 30.0000000  0  6G18G 2G11G16G19G 6
  22420907.5474    9964119.57546   7764229.29962
  21999759.5084   -8672244.27247  -6757567.22562
  23125909.0004   -2331619.90447  -1816832.70361
  23925264.8444   -1559320.79245  -1135056.10361
  21189617.922     2355220.853 7   1835236.04022
  23693679.5394   -3961623.58745  -2990551.64161
 91  4 24 20 57 45.0000000  0  6G18G 2G11G16G19G 6
  22430494.039    10014484.652 6   7803474.68022
  21995264.750    -8695856.951 7  -6775966.66322
  23127832.6954   -2321493.72047  -1808942.17061
  23926437.289    -1553147.613 5  -1130245.89721
  21192562.992     2370688.486 7   1847288.72022
  23688718.2584   -3987677.31845  -3010853.18561
 91  4 24 20 58  0.0000000  0  6G18G 2G11G16G19G 6
  22440094.609    10064925.597 7   7842779.17322
  21990787.328    -8719393.792 7  -6794307.00622
  23129790.7974   -2311215.60347  -1800933.24561
  23927636.1024   -1546844.51445  -1125334.42961
  21195517.555     2386208.560 7   1859382.27022
  23683763.7504   -4013724.09745  -3031149.30761
 91  4 24 20 58 15.0000000  0  6G18G 2G11G16G19G 6
  22449709.2034   10115446.70647   7882146.12862
  21986321.852    -8742850.096 7  -6812584.59722
  23131774.6334   -2300780.93046  -1792802.33261
  23928861.188    -1540406.914 5  -1120318.14621
  21198478.992     2401785.770 7   1871520.33922
  23678808.805    -4039759.304 5  -3051436.40721
 91  4 24 20 58 30.0000000  0  6G18G 2G11G16G19G 6
  22459334.797    10166045.825 6   7921573.87822
  21981875.047    -8766227.719 7  -6830800.87122
  23133788.5704   -2290191.51547  -1784550.83761
  23930114.250    -1533836.921 5  -1115198.72621
  21201455.063     2417418.319 7   1883701.52822
  23673856.164    -4065784.889 5  -3071716.00721
 91  4 24 20 58 45.0000000  0  6G18G 2G11G16G19G 6
  22468979.641    10216719.182 6   7961059.47622
  21977441.859    -8789530.192 7  -6848958.59122
  23135833.0944   -2279450.95246  -1776181.56861
  23931389.273    -1527138.035 5  -1109978.86821
  21204439.992     2433102.792 7   1895923.18122
  23668903.828    -4091804.289 5  -3091990.80021
 91  4 24 20 59  0.0000000  0  6G18G 2G11G16G19G 6
  22478637.211    10267468.663 6   8000604.38422
  21973020.617    -8812755.243 7  -6867055.98022
  23137906.5864   -2268557.15146  -1767692.89661
  23932691.852    -1520308.455 5  -1104657.15521
  21207435.391     2448841.189 7   1908186.84822
  23663957.547    -4117815.526 5  -3112259.21621
 91  4 24 20 59 15.0000000  0  6G18G 2G11G16G19G 6
  22488310.961    10318299.103 6   8040212.37722
  21968616.391    -8835897.922 7  -6885089.18422
  23140010.5084   -2257505.08046  -1759080.88861
  23934011.4224   -1513343.02545  -1099229.61161
  21210440.695     2464638.638 7   1920496.52722
  23659011.352    -4143813.556 5  -3132517.33421
 91  4 24 20 59 30.0000000  0  6G18G 2G11G16G19G 6
  22497997.2034   10369204.52846   8079878.79562
  21964227.055    -8858963.724 7  -6903062.48622
  23142144.0474   -2246300.25146  -1750349.85861
  23935365.188    -1506247.638 5  -1093700.78621
  21213458.000     2480489.488 7   1932847.82022
  23654066.016    -4169804.006 5  -3152769.56421
 91  4 24 20 59 45.0000000  0  6G18G 2G11G16G19G 6
  22507698.6484   10420183.53946   8119602.55362
  21959851.328    -8881953.972 7  -6920976.90922
  23144303.9534   -2234944.27246  -1741501.04261
  23936738.8914   -1499023.56845  -1088071.70161
  21216482.320     2496392.516 7   1945239.77322
  23649120.203    -4195788.319 5  -3173017.00221
 91  4 24 21  0  0.0000000  0  6G18G 2G11G16G19G 6
  22517413.516    10471236.721 6   8159384.10822
  21955492.1564   -8904867.65447  -6938831.66662
  23146490.4614   -2223436.08346  -1732533.61161
  23938139.359    -1491670.049 5  -1082341.75121
  21219520.047     2512348.785 7   1957673.21222
  23644176.4774   -4221765.31945  -3193258.75761
 91  4 24 21  0 15.0000000  0  6G18G 2G11G16G19G 6
  22527143.352    10522363.614 6   8199223.10922
  21951145.313    -8927704.989 7  -6956626.93322
  23148709.9694   -2211775.83646  -1723447.71661
  23939561.781    -1484187.197 5  -1076511.01321
  21222567.641     2528358.184 7   1970148.04622
  23639234.273    -4247735.343 5  -3213495.06621
 91  4 24 21  0 30.0000000  0  6G18G 2G11G16G19G 6
  22536885.047    10573562.574 6   8239118.26122
  21946813.609    -8950467.398 7  -6974363.83422
  23150959.2194   -2199965.01946  -1714244.48061
  23941007.4774   -1476576.85245  -1070580.92561
  21225623.328     2544419.258 7   1982663.15022
  23634293.438    -4273699.787 5  -3233727.03321
 91  4 24 21  0 45.0000000  0  6G18G 2G11G16G19G 6
  22546641.8364   10624831.03446   8279067.56362
  21942497.391    -8973157.166 7  -6992044.12023
  23153236.7734   -2188005.98446  -1704925.75661
  23942478.6564   -1468841.26245  -1064553.24561
  21228688.102     2560529.847 7   1995216.84222
  23629354.836    -4299661.001 5  -3253956.48021
 91  4 24 21  1  0.0000000  0  6G18G 2G11G16G19G 6
  22556412.125    10676173.688 6   8319074.68022
  21938192.703    -8995769.501 7  -7009664.07122
  23155538.6804   -2175893.89046  -1695487.75061
  23943978.125    -1460976.010 5  -1058424.52621
  21231767.820     2576694.694 7   2007812.80422
  23624414.9614   -4325614.26745  -3274179.73361
 91  4 24 21  1 15.0000000  0  6G18G 2G11G16G19G 6
  22566197.5784   10727591.83146   8359140.62061
  21933906.117    -9018302.540 7  -7027222.23323
  23157873.5634   -2163627.04146  -1685929.16461
  23945499.883    -1452979.215 5  -1052193.31321
  21234851.664     2592915.741 7   2020452.56622
  23619475.938    -4351557.752 5  -3294395.36221
 91  4 24 21  1 30.0000000  0  6G18G 2G11G16G19G 6
  22575994.805    10779081.234 6   8399262.08621
  21929632.453    -9040760.583 7  -7044721.94922
  23160237.1094   -2151209.65247  -1676253.27961
  23947047.4614   -1444855.09445  -1045862.88661
  21237950.570     2609188.723 7   2033132.79622
  23614540.375    -4377495.742 5  -3314606.70521
 91  4 24 21  1 45.0000000  0  6G18G 2G11G16G19G 6
  22585807.2734   10830643.75846   8439440.53162
  21925372.828    -9063141.194 7  -7062161.33822
  23162629.9774   -2138639.48346  -1666458.33761
  23948617.313    -1436601.686 5  -1039431.70821
  21241053.977     2625516.177 7   2045855.47022
  23609608.2424   -4403425.84645  -3334811.91161
 91  4 24 21  2  0.0000000  0  6G18G 2G11G16G19G 6
  22595633.6724   10882279.52746   8479676.05062
  21921130.383    -9085444.090 7  -7079540.16622
  23165050.6174   -2125916.20846  -1656544.10161
  23950213.8284   -1428218.71845  -1032899.59661
  21244173.586     2641898.561 7   2058620.94622
  23604669.6024   -4429347.80345  -3355010.77361
 91  4 24 21  2 15.0000000  0  6G18G 2G11G16G19G 6
  22605472.5084   10933986.47346   8519967.02762
  21916899.141    -9107671.118 7  -7096859.87622
  23167500.875    -2113041.770 6  -1646512.06521
  23951833.7034   -1419708.15545  -1026268.06061
  21247298.930     2658333.917 7   2071427.69622
  23599744.305    -4455263.550 5  -3375204.81421
 91  4 24 21  2 30.0000000  0  6G18G 2G11G16G19G 6
  22615325.1954   10985760.78846   8560310.50761
  21912682.625    -9129825.558 7  -7114123.03022
  23169978.8134   -2100019.50146  -1636364.83961
  23953476.7274   -1411073.57145  -1019539.86661
  21250435.414     2674819.165 7   2084273.32422
  23594812.5084   -4481176.43345  -3395396.59561
 91  4 24 21  2 45.0000000  0  6G18G 2G11G16G19G 6
  22625191.9924   11037608.01146   8600710.78962
  21908482.594    -9151901.843 7  -7131325.27822
  23172484.4064   -2086844.00946  -1626098.22061
  23955144.531    -1402309.518 5  -1012710.80421
  21253583.375     2691359.802 7   2097162.11522
  23589882.281    -4507080.867 5  -3415581.78421
 91  4 24 21  3  0.0000000  0  6G18G 2G11G16G19G 6
  22635070.680    11089523.678 6   8641164.41222
  21904295.664    -9173903.890 7  -7148469.68022
  23175021.1564   -2073519.47646  -1615715.47061
  23956833.5554   -1393420.31545  -1005784.21461
  21256742.133     2707951.525 7   2110090.71422
  23584952.883    -4532980.991 5  -3435763.64321
 91  4 24 21  3 15.0000000  0  6G18G 2G11G16G19G 6
  22644964.1484   11141510.04846   8681673.11862
  21900123.688    -9195829.341 7  -7165554.39822
  23177585.0634   -2060043.39346  -1605214.62261
  23958549.602    -1384403.548 5   -998758.24221
  21259910.344     2724597.093 7   2123061.26222
  23580026.1414   -4558874.39345  -3455940.24261
 91  4 24 21  3 30.0000000  0  6G18G 2G11G16G19G 6
  22654871.2194   11193567.15446   8722236.93961
  21895964.891    -9217677.996 7  -7182579.26522
  23180175.7814   -2046415.46246  -1594595.44761
  23960291.977    -1375258.740 5   -991632.47321
  21263091.117     2741296.876 7   2136074.06022
  23575098.2424   -4584760.54545  -3476111.21461
 91  4 24 21  3 45.0000000  0  6G18G 2G11G16G19G 6
  22664788.5784   11245693.34046   8762854.58662
  21891821.172    -9239451.072 7  -7199545.25122
  23182799.0164   -2032637.24346  -1583859.18161
  23962055.0084   -1365987.87245   -984408.49961
  21266273.781     2758049.417 7   2149127.96622
  23570175.6254   -4610641.11245  -3496277.82561
 91  4 24 21  4  0.0000000  0  6G18G 2G11G16G19G 6
  22674720.2894   11297884.31746   8803522.72761
  21887691.773    -9261152.623 7  -7216455.50722
  23185449.828    -2018712.856 6  -1573008.99721
  23963843.922    -1356595.128 5   -977089.55021
  21269475.961     2774850.687 7   2162219.83922
  23565249.8594   -4636520.20345  -3516443.28461
 91  4 24 21  4 15.0000000  0  6G18G 2G11G16G19G 6
  22684665.7424   11350145.08646   8844245.24861
  21883577.977    -9282777.572 7  -7233306.06323
  23188130.9614   -2004636.97346  -1562040.78261
  23965656.609    -1347075.224 5   -969671.52321
  21272679.031     2791706.000 7   2175353.83222
  23560327.039    -4662392.425 5  -3536603.40721
 91  4 24 21  4 30.0000000  0  6G18G 2G11G16G19G 6
  22694624.1334   11402475.28646   8885021.87461
  21879476.430    -9304325.890 7  -7250096.91022
  23190837.180    -1990409.719 6  -1550954.60121
  23967490.4924   -1337428.58545   -962154.74961
  21275900.773     2808615.483 7   2188530.03122
  23555400.8674   -4688257.86745  -3556758.22361
 91  4 24 21  4 45.0000000  0  6G18G 2G11G16G19G 6
  22704597.6804   11454873.43646   8925851.45061
  21875390.305    -9325798.753 7  -7266828.96122
  23193573.1024   -1976032.47746  -1539751.55361
  23969351.984    -1327656.485 5   -954540.19621
  21279126.680     2825577.825 7   2201747.42222
  23550483.3204   -4714118.00945  -3576908.91061
 91  4 24 21  5  0.0000000  0  6G18G 2G11G16G19G 6
  22714581.602    11507340.003 6   8966734.33521
  21871318.133    -9347195.464 7  -7283501.67922
  23196338.2424   -1961504.55246  -1528431.09661
  23971235.4144   -1317758.06145   -946827.21661
  21282361.930     2842593.894 7   2215006.67422
  23545563.2344   -4739971.93145  -3597054.75961
 91  4 24 21  5 15.0000000  0  6G18G 2G11G16G19G 6
  22724578.945    11559874.774 6   9007670.35621
  21867260.125    -9368515.873 7  -7300114.94022
  23199129.7894   -1946825.90446  -1516993.18861
  23973142.695    -1307733.261 5   -939015.75421
  21285611.859     2859663.955 7   2228308.00222
  23540645.078    -4765819.505 5  -3617195.66021
 91  4 24 21  5 30.0000000  0  6G18G 2G11G16G19G 6
  22734587.523    11612479.389 6   9048660.80921
  21863219.523    -9389757.913 7  -7316667.13122
  23201951.9694   -1931994.57146  -1505436.30261
  23975076.6884   -1297580.53045   -931104.62061
  21288872.523     2876789.832 7   2241652.81922
  23535729.813    -4791658.765 5  -3637330.06621
 91  4 24 21  5 45.0000000  0  6G18G 2G11G16G19G 6
  22744612.0004   11665152.88446   9089704.93361
  21859192.258    -9410922.550 7  -7333159.01022
  23204801.1334   -1917011.47346  -1493761.16061
  23977030.922    -1287300.919 5   -923094.59621
  21292141.172     2893970.960 7   2255040.68922
  23530812.7974   -4817490.67945  -3657458.76261
 91  4 24 21  6  0.0000000  0  6G18G 2G11G16G19G 6
  22754648.4774   11717896.77846   9130803.91661
  21855177.320    -9432007.982 7  -7349589.17522
  23207685.3524   -1901874.90046  -1481966.44061
  23979010.4224   -1276892.63045   -914984.32461
  21295418.609     2911209.102 7   2268472.98422
  23525899.0634   -4843313.41145  -3677580.31261
 91  4 24 21  6 15.0000000  0  6G18G 2G11G16G19G 6
  22764697.4534   11770710.82346   9171957.55961
  21851182.7344   -9453014.04247  -7365957.49262
  23210594.1954   -1886585.07046  -1470052.29061
  23981013.688    -1266356.021 5   -906774.04621
  21298711.391     2928504.282 7   2281949.72822
  23520986.7344   -4869127.02145  -3697694.74661
 91  4 24 21  6 30.0000000  0  6G18G 2G11G16G19G 6
  22774761.516    11823593.390 6   9213164.58621
  21847198.938    -9473942.230 7  -7382265.12622
  23213532.1024   -1871143.26446  -1458019.71961
  23983039.9384   -1255692.59545   -898464.95361
  21302016.148     2945855.237 7   2295469.92922
  23516072.0944   -4894932.76545  -3717803.04861
 91  4 24 21  6 45.0000000  0  6G18G 2G11G16G19G 6
  22784836.141    11876542.366 6   9254423.35921
  21843231.156    -9494794.397 7  -7398513.52822
  23216498.2584   -1855551.34946  -1445870.18361
  23985097.047    -1244904.227 5   -890058.50221
  21305326.852     2963260.340 7   2309032.32022
  23511164.516    -4920732.457 5  -3737906.63921
 91  4 24 21  7  0.0000000  0  6G18G 2G11G16G19G 6
  22794924.0554   11929557.44846   9295733.65661
  21839277.133    -9515570.641 7  -7414702.76622
  23219494.9774   -1839809.49546  -1433603.81261
  23987174.078    -1233990.872 5   -881554.66121
  21308648.023     2980719.444 7   2322636.79122
  23506257.5634   -4946526.18345  -3758005.57861
 91  4 24 21  7 15.0000000  0  6G18G 2G11G16G19G 6
  22805027.9924   11982640.28146   9337096.75261
  21835338.141    -9536268.877 7  -7430831.21422
  23222518.555    -1823915.760 6  -1421219.09421
  23989275.1724   -1222950.88845   -872952.15661
  21311980.8364    2998234.57547   2336284.91962
  23501348.9774   -4972311.97645  -3778098.33261
 91  4 24 21  7 30.0000000  0  6G18G 2G11G16G19G 6
  22815142.961    12035792.327 6   9378513.76621
  21831415.4144   -9556887.41447  -7446897.56763
  23225574.0084   -1807868.48046  -1408714.72861
  23991400.5314   -1211782.66845   -864249.72061
  21315324.688     3015807.464 7   2349978.05522
  23496442.8674   -4998088.15745  -3798183.59261
 91  4 24 21  7 45.0000000  0  6G18G 2G11G16G19G 6
  22825270.7034   12089011.49046   9419983.06761
  21827505.8284   -9577428.01747  -7462903.19163
  23228654.492    -1791669.791 6  -1396092.38421
  23993549.352    -1200488.537 5   -855449.18021
  21318678.2814    3033436.35047   2363714.82462
  23491542.9224   -5023856.71546  -3818262.92961
 91  4 24 21  8  0.0000000  0  6G18G 2G11G16G19G 6
  22835411.508    12142295.596 6   9461502.97321
  21823613.570    -9597892.745 7  -7478849.69023
  23231765.5474   -1775321.74546  -1383353.66061
  23995720.8364   -1189070.53645   -846552.09761
  21322045.1884    3051119.29747   2377493.71662
  23486639.3914   -5049619.67646  -3838337.90461
 91  4 24 21  8 15.0000000  0  6G18G 2G11G16G19G 6
  22845561.5394   12195642.21846   9503071.58461
  21819731.031    -9618283.594 7  -7494738.62322
  23234905.6564   -1758826.31546  -1370500.08461
  23997917.0164   -1177530.74245   -837560.14261
  21325419.7344    3068854.53047   2391313.34862
  23481737.2344   -5075378.92146  -3858409.98461
 91  4 24 21  8 30.0000000  0  6G18G 2G11G16G19G 6
  22855724.047    12249056.157 6   9544692.66421
  21815865.672    -9638595.676 7  -7510566.17322
  23238072.5394   -1742178.81846  -1357528.00961
  24000138.4064   -1165864.57145   -828469.68461
  21328806.7194    3086646.71147   2405177.35362
  23476835.0634   -5101129.66646  -3878475.43261
 91  4 24 21  8 45.0000000  0  6G18G 2G11G16G19G 6
  22865900.953    12302535.646 6   9586364.82721
  21812016.4144   -9658830.20247  -7526333.30462
  23241270.078    -1725380.508 6  -1344438.43821
  24002382.688    -1154073.455 5   -819281.87121
  21332201.1954    3104494.58847   2419084.76562
  23471939.063    -5126873.047 5  -3898535.15321
 91  4 24 21  9  0.0000000  0  6G18G 2G11G16G19G 6
  22876090.2344   12356078.61246   9628086.44461
  21808180.5944   -9678988.78847  -7542041.25163
  23244494.1024   -1708433.18646  -1331232.73861
  24004647.3984   -1142159.15645   -809998.08561
  21335612.2734    3122396.78747   2433034.50362
  23467038.7424   -5152610.89245  -3918590.55161
 91  4 24 21  9 15.0000000  0  6G18G 2G11G16G19G 6
  22886292.273    12409682.238 6   9669855.33321
  21804359.1254   -9699074.27847  -7557692.24462
  23247751.641    -1691339.688 7  -1317913.14521
  24006939.3284   -1130124.34845   -800620.38361
  21339023.8834    3140350.47847   2447024.36262
  23462141.922    -5178345.921 5  -3938643.75521
 91  4 24 21  9 30.0000000  0  6G18G 2G11G16G19G 6
  22896504.7894   12463347.98646   9711672.62261
  21800548.8834   -9719085.07147  -7573285.03163
  23251026.5784   -1674098.44747  -1304478.41661
  24009252.211    -1117968.188 5   -791148.13121
  21342451.4534    3158357.35747   2461055.66862
  23457248.2894   -5204076.41045  -3958693.42861
 91  4 24 21  9 45.0000000  0  6G18G 2G11G16G19G 6
  22906729.4924   12517080.60446   9753542.01661
  21796756.1254   -9739015.93347  -7588815.53263
  23254339.563    -1656704.411 6  -1290924.63421
  24011589.609    -1105685.306 5   -781577.13521
  21345886.8834    3176422.59947   2475132.45262
  23452350.8674   -5229797.26845  -3978735.59661
 91  4 24 21 10  0.0010000  0  6G18G 2G11G16G19G 6
  22916965.8964   12570877.60546   9795461.57061
  21792978.6614   -9758874.26447  -7604289.52362
  23257673.997    -1639162.484 6  -1277255.62321
  24013948.7474   -1093280.78845   -771911.35461
  21349337.1304    3194541.62047   2489251.13862
  23447456.888    -5255516.190 5  -3998776.24121
 91  4 24 21 10 15.0010000  0  6G18G 2G11G16G19G 6
  22927214.7164   12624735.76746   9837428.78861
  21789214.0054   -9778652.79647  -7619701.32563
  23261041.724    -1621470.594 6  -1263469.75821
  24016335.903    -1080752.059 5   -762148.78221
  21352796.2944    3212716.48447   2503413.34162
  23442565.7004   -5281225.26945  -4018809.22961
 91  4 24 21 10 30.0010000  0  6G18G 2G11G16G19G 6
  22937478.6854   12678660.24446   9879447.67561
  21785465.6774   -9798351.61047  -7635051.01063
  23264442.3964   -1603626.28547  -1249565.10961
  24018740.630    -1068097.029 5   -752287.80221
  21356266.771     3230949.882 7   2517621.15622
  23437672.935    -5306924.704 5  -4038834.70521
 91  4 24 21 10 45.0010000  0  6G18G 2G11G16G19G 6
  22947750.5604   12732643.01046   9921511.98361
  21781731.8414   -9817978.22547  -7650344.43963
  23267865.005    -1585637.257 7  -1235547.70221
  24021174.521    -1055323.519 5   -742334.48721
  21359743.4584    3249234.25047   2531868.68962
  23432783.247    -5332622.155 5  -4058858.63921
 91  4 24 21 11  0.0010000  0  6G18G 2G11G16G19G 6
  22958033.6924   12786691.56746   9963627.56161
  21778011.6534   -9837524.78947  -7665575.49063
  23271313.513    -1567495.778 6  -1221411.50521
  24023632.7634   -1042424.21645   -732283.15561
  21363235.2004    3267577.57347   2546162.15662
  23427897.8644   -5358309.79745  -4078874.92561
 91  4 24 21 11 15.0010000  0  6G18G 2G11G16G19G 6
  22968333.0524   12840805.97846  10005794.45561
  21774307.6304   -9856990.96347  -7680743.89963
  23274796.435    -1549201.483 6
  24026107.474    -1029398.732 5   -722133.50521
  21366736.9194    3285980.31647
  23423010.2084   -5383987.30746  -4098883.30661
 91  4 24 21 11 30.0010000  0  6G18G 2G11G16G19G 6
  22978643.0134   12894982.85146  10048010.01061
  21770619.2244   -9876379.62347  -7695851.90763
  23278305.0364   -1530757.57346
  24028609.810    -1016250.385 5   -711888.12921
  21370249.6614    3304439.34947
  23418124.8564   -5409657.69646  -4118886.14261
 91  4 24 21 11 45.0010000  0  6G18G 2G11G16G19G 6
  22988965.4354   12949226.82946  10090277.85261
  21766944.7864   -9895686.19947  -7710895.95063
  23281844.739    -1512159.306 6  -1178292.22121
  24031136.958    -1002974.290 5   -701543.20321
  21373774.5604    3322959.66147   2589316.94762
  23413239.3414   -5435316.16745  -4138879.68961
 91  4 24 21 12  0.0010000  0  6G18G 2G11G16G19G 6
  22999299.7634   13003532.78346  10132593.99661
  21763285.4274   -9914915.54847  -7725879.82263
  23285413.442    -1493411.753 7  -1163683.75021
  24033686.677     -989575.684 5   -691102.80721
  21377308.1384    3341536.53047   2603792.39662
  23408359.6464   -5460967.43545  -4158867.63661
 91  4 24 21 12 15.0010000  0  6G18G 2G11G16G19G 6
  23009646.935    13057904.641 6  10174961.49021
  21759640.3104   -9934063.15047  -7740799.98963
  23289010.7554   -1474510.63346  -1148955.62061
  24036261.0364    -976050.26345   -680563.59961
  21380854.3254    3360174.32147   2618315.32662
  23403484.552    -5486607.331 6  -4178846.71721
 91  4 24 21 12 30.0010000  0  6G18G 2G11G16G19G 6
  23020004.247    13112337.106 6  10217376.20421
  21756011.8334   -9953134.56047  -7755660.79063
  23292633.4194   -1455461.40146  -1134112.07661
  24038857.192     -962403.595 5   -669929.92321
  21384414.1224    3378867.73747   2632881.58962
  23398604.2784   -5512241.13946  -4198821.06461
 91  4 24 21 12 45.0010000  0  6G18G 2G11G16G19G 6
  23030372.8884   13166834.67946  10259841.65961
  21752397.4814   -9972124.87447  -7770458.39763
  23296286.302    -1436259.281 6  -1119149.40521
  24041475.271     -948630.886 5   -659198.01321
  21387983.9814    3397621.63947   2647494.98762
  23393728.489    -5537864.076 6  -4218786.93421
 91  4 24 21 13  0.0010000  0  6G18G 2G11G16G19G 6
  23040757.122    13221394.301 6  10302355.45621
  21748797.630    -9991036.616 7  -7785194.78023
  23299973.481    -1416907.029 6  -1104069.74521
  24044124.911     -934735.423 5   -648370.46421
  21391561.0054    3416433.43547   2662153.49662
  23388854.7474   -5563478.70046  -4238746.32461
 91  4 24 21 13 15.0010000  0  6G18G 2G11G16G19G 6
  23051152.536    13276018.588 6  10344919.63521
  21745215.4664  -10009867.00347  -7799867.77463
  23303682.044    -1397401.937 6  -1088870.98321
  24046792.896     -920714.060 5   -637444.81621
  21395153.3724    3435306.00247   2676859.36562
  23383981.9894   -5589082.08246  -4258696.93961
 91  4 24 21 13 30.0010000  0  6G18G 2G11G16G19G 6
  23061558.989    13330704.874 6  10387532.13121
  21741647.122   -10028618.418 7  -7814479.22223
  23307423.825    -1377746.498 6  -1073555.06821
  24049483.4114    -906569.44145   -626423.12761
  21398758.872     3454236.953 7   2691610.72622
  23379110.271    -5614676.746 6  -4278640.79021
 91  4 24 21 13 45.0010000  0  6G18G 2G11G16G19G 6
  23071977.521    13385454.051 6  10430193.62321
  21738093.3104  -10047289.59547  -7829028.15463
  23311190.294    -1357939.641 6  -1058121.16821
  24052199.036     -892300.664 5   -615304.66421
  21402370.4114    3473227.59547   2706408.60462
  23374241.5214   -5640261.38546  -4298576.81561
 91  4 24 21 14  0.0010000  0  6G18G 2G11G16G19G 6
  23082408.669    13440268.443 6  10472905.93821
  21734557.6304  -10065877.90347  -7843512.51763
  23314992.278    -1337978.755 6  -1042567.25021
  24054939.966     -877905.326 5   -604087.60021
  21405996.794     3492280.793 7   2721255.22222
  23369375.4894   -5665833.30846  -4318502.92761
 91  4 24 21 14 15.0010000  0  6G18G 2G11G16G19G 6
  23092851.216    13495144.758 6  10515666.50221
  21731034.4974  -10084386.51247  -7857934.76963
  23318815.4354   -1317867.25346  -1026895.96261
  24057703.575     -863386.769 5   -592774.51621
  21409632.5214    3511393.41147   2736148.14762
  23364512.5994   -5691395.80546  -4338421.69561
 91  4 24 21 14 30.0010000  0  6G18G 2G11G16G19G 6
  23103306.8494   13550081.83846  10558474.41161
  21727528.1774  -10102816.26147  -7872295.57463
  23322672.724    -1297605.991 6  -1011107.99221
  24060486.1224    -848745.74945   -581366.00261
  21413281.888     3530564.577 7   2751086.69022
  23359649.341    -5716949.596 6  -4358333.67421
 91  4 24 21 14 45.0010000  0  6G18G 2G11G16G19G 6
  23113773.286    13605080.402 6  10601330.22521
  21724037.177   -10121166.422 7  -7886594.35923
  23326560.396    -1277194.270 7   -995202.77021
  24063298.3414    -833981.53545   -569861.52161
  21416938.864     3549795.240 7   2766071.60222
  23354786.575    -5742493.839 6  -4378238.22321
 91  4 24 21 15  0.0010000  0  6G18G 2G11G16G19G 6
  23124248.802    13660139.931 6  10644233.55121
  21720559.1384  -10139437.08647  -7900831.20363
  23330473.192    -1256632.311 7   -979180.47921
  24066129.1224    -819094.95845   -558261.64561
  21420608.7474    3569085.53147   2781102.96662
  23349927.606    -5768028.711 6  -4398135.47221
 91  4 24 21 15 15.0010000  0  6G18G 2G11G16G19G 6
  23134735.5364   13715257.03946  10687181.74761
  21717095.2004  -10157631.40747  -7915008.56063
  23334410.669    -1235923.345 6   -963043.62921
  24068981.521     -804089.293 5   -546569.01521
  21424291.6464    3588432.25747   2796178.31162
  23345073.4744   -5793557.27946  -4418027.79861
 91  4 24 21 15 30.0010000  0  6G18G 2G11G16G19G 6
  23145236.474    13770430.315 6  10730173.70821
  21713649.0134  -10175750.59047  -7929127.36763
  23338380.763    -1215068.892 7   -946793.42621
  24071858.161     -788965.872 5   -534784.61521
  21427984.3884    3607834.21847   2811296.69562
  23340212.6224   -5819080.75346  -4437916.15561
 91  4 24 21 15 45.0010000  0  6G18G 2G11G16G19G 6
  23155749.325    13825659.609 6  10773209.32521
  21710213.2944  -10193794.36747  -7943187.41563
  23342373.2634   -1194068.72946   -930429.67161
  24074758.810     -773724.664 5   -522908.40921
  21431686.388     3627291.738 7   2826458.37522
  23335357.1774   -5844598.81046  -4457800.29561
 91  4 24 21 16  0.0010000  0  6G18G 2G11G16G19G 6
  23166271.708    13880948.898 6  10816291.68721
  21706795.6854  -10211758.43347  -7957185.35563
  23346402.083    -1172918.549 6   -913949.02721
  24077686.091     -758361.329 5   -510937.07021
  21435403.919     3646809.098 7   2841666.68422
  23330502.2164   -5870107.18346  -4477676.88261
 91  4 24 21 16 15.0010000  0  6G18G 2G11G16G19G 6
  23176801.1144   13936294.05446  10859417.57661
  21703392.4974  -10229646.91547  -7971124.39163
  23350454.060    -1151622.563 6   -897354.76521
  24080625.8884    -742879.85545   -498873.66161
  21439125.5214    3666382.43847   2856918.60862
  23325650.833    -5895610.012 6  -4497549.14521
 91  4 24 21 16 30.0010000  0  6G18G 2G11G16G19G 6
  23187343.2714   13991697.34946  10902588.76561
  21700004.3644  -10247456.93647  -7985002.29463
  23354535.2394   -1130178.16047   -880644.86461
  24083599.708     -727278.048 5   -486716.49521
  21442865.028     3686014.605 7   2872216.37322
  23320798.0754   -5921104.31946  -4517414.77761
 91  4 24 21 16 45.0010000  0  6G18G 2G11G16G19G 6
  23197896.1304   14047152.19846  10945800.11661
  21696627.4814  -10265195.14147  -7998824.23463
  23358640.8024   -1108592.21446   -863824.65961
  24086589.9664    -711562.76145   -474470.87961
  21446605.5604    3705698.81747   2887554.69262
  23315947.4194   -5946596.79546  -4537278.97761
 91  4 24 21 17  0.0010000  0  6G18G 2G11G16G19G 6
  23208458.6854   14102663.75846  10989055.66161
  21693268.1464  -10282855.89147  -8012585.81863
  23362775.583    -1086859.199 6   -846889.85921
  24089605.2314    -695728.57045   -462132.65261
  21450366.630     3725440.870 7   2902938.08522
  23311096.9744   -5972081.85346  -4557137.39961
 91  4 24 21 17 15.0010000  0  6G18G 2G11G16G19G 6
  23219033.1854   14158232.67046  11032355.90361
  21689921.0284  -10300438.40247  -8026286.43863
  23366943.0524   -1064978.38647   -829839.88561
  24092640.591     -679774.811 5   -449701.21921
  21454130.6384    3745241.84247   2918367.38762
  23306252.5524   -5997558.55046  -4576989.30861
 91  4 24 21 17 30.0010000  0  6G18G 2G11G16G19G 6
  23229621.146    14213857.777 6  11075699.92021
  21686590.380   -10317943.340 7  -8039926.60923
  23371131.841    -1042950.492 6   -812675.30521
  24095701.825     -663702.330 5   -437177.30821
  21457912.7784    3765101.17347   2933842.16762
  23301404.4194   -6023027.48746  -4596835.17161
 91  4 24 21 17 45.0010000  0  6G18G 2G11G16G19G 6
  23240215.950    14269538.149 6  11119087.01421
  21683273.8104  -10335371.75147  -8053507.15863
  23375355.4424   -1020776.69746   -795397.03361
  24098780.7634    -647512.20845   -424561.71261
  21461702.544     3785017.832 7   2949361.61622
  23296558.7554   -6048489.77946  -4616675.84961
 91  4 24 21 18  0.0010000  0  6G18G 2G11G16G19G 6
  23250822.075    14325271.676 6  11162515.50721
  21679971.8964  -10352725.44047  -8067029.47663
  23379598.552     -998459.006 6   -778006.64521
  24101884.521     -631206.847 5   -411856.32521
  21465506.060     3804989.875 7   2964924.22122
  23291711.2784   -6073947.17946  -4636512.71961
 91  4 24 21 18 15.0010000  0  6G18G 2G11G16G19G 6
  23261436.9274   14381060.11646  11205986.80361
  21676683.3024  -10370002.17447  -8080491.83063
  23383874.317     -975995.334 6   -760502.50221
  24105008.185     -614783.920 5   -399059.31521
  21469310.981     3825019.670 7   2980531.82922
  23286870.435    -6099397.446 6  -4656344.02221
 91  4 24 21 18 30.0010000  0  6G18G 2G11G16G19G 6
  23272065.2554   14436902.84946  11249500.41361
  21673409.9114  -10387202.11547  -8093894.34563
  23388174.177     -953385.970 6   -742884.83121
  24108155.2634    -598243.86445   -386171.05961
  21473136.513     3845107.292 7   2996184.49322
  23282030.0134   -6124840.74246  -4676169.90361
 91  4 24 21 18 45.0010000  0  6G18G 2G11G16G19G 6
  23282704.6854   14492801.99346  11293057.96861
  21670153.1614  -10404323.28647  -8107235.48663
  23392507.646     -930629.062 6   -725152.18821
  24111325.942     -581584.701 5   -373189.98221
  21476969.7554    3865254.84847   3011883.86562
  23277188.8644   -6150274.92646  -4695988.68161
 91  4 24 21 19  0.0010000  0  6G18G 2G11G16G19G 6
  23293352.153    14548762.478 6  11336663.32021
  21666909.6064  -10421360.25647  -8120511.01563
  23396866.677     -907719.330 6   -707300.46421
  24114517.4194    -564801.41345   -360112.18261
  21480817.0754    3885467.53347   3027633.98162
  23272354.0834   -6175694.73146  -4715796.26061
 91  4 24 21 19 15.0010000  0  6G18G 2G11G16G19G 6
  23304009.9424   14604780.93346  11380313.86061
  21663683.5214  -10438316.12947  -8133723.34863
  23401255.3024    -884659.83746   -689332.04061
  24117736.661     -547897.281 5   -346940.21421
  21484673.1144    3905742.41647   3043432.55862
  23267516.2784   -6201103.04446  -4735594.87661
 91  4 24 21 19 30.0010000  0  6G18G 2G11G16G19G 6
  23314681.872    14660863.914 6  11424014.65221
  21660472.7244  -10455184.36347  -8146867.38963
  23405672.052     -861444.237 6   -671241.97221
  24120974.271     -530865.813 5   -333669.02721
  21488546.6464    3926086.31847   3059284.91962
  23262684.3644   -6226493.29446  -4755379.42661
 91  4 24 21 19 45.0010000  0  6G18G 2G11G16G19G 6
  23325362.3414   14717005.41746  11467761.06461
  21657279.7784  -10471970.42547  -8159947.40063
  23410118.8884    -838078.39246   -653034.84061
  24124239.4814    -513712.67845   -320303.04661
  21492430.7554    3946493.77447   3075186.80362
  23257853.1854   -6251871.12446  -4775154.29061
 91  4 24 21 20  0.0010000  0  6G18G 2G11G16G19G 6
  23336060.669    14773207.934 6  11511555.01221
  21654100.6924  -10488671.57547  -8172961.25063
  23414594.138     -814559.553 6   -634708.48821
  24127529.9584    -496435.62345   -306840.49861
  21496327.4034    3966967.35547   3091140.21362
  23253029.5284   -6277233.58146  -4794917.18161
 91  4 24 21 20 15.0010000  0  6G18G 2G11G16G19G 6
  23346772.278    14829471.449 6  11555396.49221
  21650941.2714  -10505287.60347  -8185908.77163
  23419097.231     -790887.682 6   -616262.89221
  24130834.8174    -479034.51245   -293281.28561
  21500233.9664    3987507.60647   3107145.57562
  23248206.224    -6302580.439 6  -4814667.93121
 91  4 24 21 20 30.0010000  0  6G18G 2G11G16G19G 6
  23357486.294    14885787.224 6  11599278.68121
  21647792.5754  -10521827.11347  -8198796.65263
  23423631.989     -767071.416 6   -597704.77621
  24134172.6774    -461517.93345   -279632.07261
  21504155.0214    4008105.93347   3123196.18762
  23243385.5444   -6327920.25746  -4834413.17661
 91  4 24 21 20 45.0010000  0  6G18G 2G11G16G19G 6
  23368214.208    14942157.363 6  11643203.24021
  21644657.1694  -10538287.70647  -8211623.05763
  23428191.5524    -743108.56446   -579032.43061
  24137533.427     -443883.931 5   -265891.39621
  21508083.7004    4028764.68347   3139293.88562
  23238564.0214   -6353250.68246  -4854151.11261
 91  4 24 21 21  0.0010000  0  6G18G 2G11G16G19G 6
  23378950.185    14998579.576 6  11687168.37921
  21641540.8174  -10554671.20447  -8224389.38563
  23432778.0214    -719001.10146   -560247.42361
  24140908.317     -426134.656 5   -252060.89421
  21512029.7084    4049482.25547   3155437.41362
  23233745.2554   -6378573.47046  -4873883.09961
 91  4 24 21 21 15.0010000  0  6G18G 2G11G16G19G 6
  23389697.669    15055055.393 6  11731175.27621
  21638439.1144  -10570976.07147  -8237094.44063
  23437391.356     -694747.499 6   -541348.52521
  24144310.2944    -408268.50345   -238139.30161
  21515983.0054    4070260.33547   3171628.09762
  23228929.364    -6403886.940 6  -4893607.82421
 91  4 24 21 21 30.0010000  0  6G18G 2G11G16G19G 6
  23400456.341    15111583.092 6  11775222.61021
  21635352.3254  -10587203.75947  -8249739.35363
  23442035.255     -670349.350 6   -522337.00321
  24147730.888     -390287.256 5   -224128.05221
  21519951.0914    4091097.58547   3187864.88462
  23224113.646    -6429192.488 6  -4913326.38621
 91  4 24 21 21 45.0010000  0  6G18G 2G11G16G19G 6
  23411225.3334   15168166.81646  11819313.57861
  21632277.7314  -10603349.90747  -8262320.73363
  23446708.200     -645802.440 6   -503209.56621
  24151175.0604    -372186.58745   -210023.73561
  21523924.1924    4111998.43747   3204151.23162
  23219299.0054   -6454485.64646  -4933035.27961
 91  4 24 21 22  0.0010000  0  6G18G 2G11G16G19G 6
  23421996.8644   15224805.14246  11863447.09661
  21629220.7394  -10619415.43947  -8274839.29763
  23451407.888     -621107.996 6   -483967.15921
  24154642.864     -353967.827 5   -195827.40021
  21527915.5284    4132962.01747   3220486.45262
  23214486.8104   -6479767.45546  -4952735.34161
 91  4 24 21 22 15.0010000  0  6G18G 2G11G16G19G 6
  23432785.372    15281494.669 6  11907620.52921
  21626177.8414  -10635403.71147  -8287297.65463
  23456134.739     -596269.375 6   -464612.40621
  24158133.5054    -335634.48945   -181541.78361
  21531914.9114    4153985.15247   3236868.08462
  23209677.138    -6505041.150 6  -4972429.07421
 91  4 24 21 22 30.0010000  0  6G18G 2G11G16G19G 6
  23443584.2554   15338239.64546  11951837.17561
  21623151.6144  -10651310.15247  -8299692.25363
  23460887.794     -571282.296 6   -445141.97821
  24161640.0914    -317182.06345   -167163.38861
  21535928.5524    4175072.21447   3253299.52862
  23204870.4354   -6530302.22746  -4992112.97261
 91  4 24 21 22 45.0010000  0  6G18G 2G11G16G19G 6
  23454396.060    15395035.636 6  11996093.55821
  21620138.8414  -10667138.96447  -8312026.35563
  23465671.028     -546151.217 6   -425559.34921
  24165175.630     -298615.473 5   -152696.02321
  21539950.1924    4196219.14747   3269777.62862
  23200065.599    -6555554.837 6  -5011790.27421
 91  4 24 21 23  0.0010000  0  6G18G 2G11G16G19G 6
  23465212.708    15451883.307 6  12040390.22121
  21617140.7634  -10682889.09847  -8324299.14663
  23470480.075     -520874.988 6   -405863.59721
  24168728.489     -279933.355 5   -138138.62221
  21543990.0834    4217427.32547   3286303.45062
  23195264.1064   -6580797.68146  -5031459.96761
 91  4 24 21 23 15.0010000  0  6G18G 2G11G16G19G 6
  23476042.247    15508782.903 6  12084727.34521
  21614160.5214  -10698560.06947  -8336510.26163
  23475318.646     -495453.378 6   -386054.56221
  24172302.513     -261135.596 5   -123491.14021
  21548034.0284    4238697.07947   3302877.24462
  23190461.0754   -6606030.45646  -5051121.82261
 91  4 24 21 23 30.0010000  0  6G18G 2G11G16G19G 6
  23486879.403    15565732.257 6  12129103.22821
  21611193.2314  -10714153.45347  -8348660.91463
  23480182.880     -469888.277 6   -366133.72621
  24175902.5914    -242224.09545   -108754.99361
  21552094.3174    4260026.80247   3319497.77162
  23185660.1464   -6631254.81246  -5070777.10761
 91  4 24 21 23 45.0010000  0  6G18G 2G11G16G19G 6
  23497725.544    15622728.608 6  12173515.72621
  21608240.1224  -10729672.07047  -8360753.30663
  23485074.974     -444182.586 6   -346103.33821
  24179524.700     -223201.732 5    -93932.48021
  21556161.1384    4281413.92847   3336163.03162
  23180862.6304   -6656473.35546  -5090427.86561
 91  4 24 21 24  0.0010000  0  6G18G 2G11G16G19G 6
  23508578.0134   15679772.75546  12217965.47061
  21605299.7944  -10745114.82947  -8372786.59063
  23489993.575     -418335.393 6   -325962.68921
  24183166.747     -204067.907 5    -79023.09821
  21560242.9814    4302859.49747   3352873.82962
  23176064.950    -6681684.925 6  -5110073.18821
 91  4 24 21 24 15.0010000  0  6G18G 2G11G16G19G 6
  23519443.2164   15736864.99746  12262452.69461
  21602377.9894  -10760481.25247  -8384760.39063
  23494939.458     -392346.261 6   -305711.44221
  24186825.7714    -184822.10945    -64026.48161
  21564337.0054    4324364.33447   3369630.81162
  23171267.161    -6706888.904 6  -5129712.60721
 91  4 24 21 24 30.0010000  0  6G18G 2G11G16G19G 6
  23530317.6854   15794004.25746  12306976.55461
  21599466.3334  -10775772.28347  -8396675.45063
  23499911.8174    -366216.23246   -285350.39261
  24190510.192     -165465.196 5    -48943.27121
  21568442.0524    4345927.52347   3386433.26862
  23166472.700    -6732086.056 6  -5149346.70321
 91  4 24 21 24 45.0010000  0  6G18G 2G11G16G19G 6
  23541198.2314   15851189.18246  12351535.99661
  21596572.1064  -10790988.96347  -8408532.57063
  23504908.669     -339946.474 6   -264880.48321
  24194216.6774    -145998.82845    -33774.76061
  21572554.8804    4367548.01847   3403280.37462
  23161678.7084   -6757277.58346  -5168976.41461
 91  4 24 21 25  0.0010000  0  6G18G 2G11G16G19G 6
  23552090.5134   15908420.52246  12396131.61461
  21593690.7394  -10806130.11247  -8420330.83663
  23509937.0524    -313536.16746   -244301.03861
  24197941.3964    -126421.96445    -18520.18761
  21576679.7634    4389226.89747   3420172.97662
  23156887.013    -6782462.336 6  -5188600.84921
 91  4 24 21 25 15.0010000  0  6G18G 2G11G16G19G 6
  23562989.536    15965696.062 6  12440761.66721
  21590822.7784  -10821197.51747  -8432071.64063
  23514988.2634    -286987.36346   -223613.68561
  24201692.6924    -106737.00545     -3181.33761
  21580814.7714    4410962.55247   3437109.82362
  23152093.833    -6807642.108 6  -5208221.39621
 91  4 24 21 25 30.0010000  0  6G18G 2G11G16G19G 6
  23573892.8334   16023013.86846  12485424.65661
  21587969.9114  -10836193.39647  -8443756.70763
  23520067.5914    -260302.02346   -202819.94161
  24205456.599      -86945.957 5     12240.16021
  21584961.4894    4432753.31547   3454089.61262
  23147301.646    -6832818.695 6  -5227839.47021
 91  4 24 21 25 45.0010000  0  6G18G 2G11G16G19G 6
  23584812.0134   16080378.82846  12530124.37861
  21585129.7784  -10851112.58747  -8455382.01863
  23525170.856     -233475.078 6   -181915.85221
  24209243.560      -67043.696 5     27748.29521
  21589122.3964    4454604.38247   3471116.38962
  23142514.3724   -6857986.87946  -5247450.98261
 91  4 24 21 26  0.0010000  0  6G18G 2G11G16G19G 6
  23595732.958    16137787.484 6  12574858.16121
  21582305.6464  -10865958.18347  -8466949.98463
  23530301.411     -206509.881 6   -160904.02621
  24213051.552      -47033.459 5     43340.58921
  21593295.6464    4476512.60447   3488187.70562
  23137726.4744   -6883149.73446  -5267058.34961
 91  4 24 21 26 15.0010000  0  6G18G 2G11G16G19G 6
  23606672.2784   16195243.23246  12619628.62761
  21579495.5134  -10880726.19747  -8478457.49663
  23535460.513     -179403.002 6   -139781.80821
  24216883.747      -26911.621 5     59019.83921
  21597470.3414    4498481.54347   3505306.32862
  23132940.083    -6908303.485 6  -5286658.62521
 91  4 24 21 26 30.0010000  0  6G18G 2G11G16G19G 6
  23617612.2864   16252741.37446  12664432.12961
  21576698.6224  -10895421.24747  -8489908.15163
  23540645.685     -152159.039 6   -118552.77321
  24220730.1774      -6683.17045     74782.14561
  21601663.3964    4520507.00947   3522469.00062
  23128154.0994   -6933452.53646  -5306255.23061
 91  4 24 21 26 45.0010000  0  6G18G 2G11G16G19G 6
  23628567.950    16310287.130 6  12709272.72821
  21573917.0444  -10910037.98247  -8501297.77863
  23545853.0604    -124772.62046    -97212.74061
  24224602.356       13657.056 5     90631.56021
  21605863.036     4542594.581 7   3539680.06922
  23123370.349    -6958591.358 6  -5325843.87321
 91  4 24 21 27  0.0010000  0  6G18G 2G11G16G19G 6
  23639521.9034   16367875.17046  12754146.27861
  21571148.4114  -10924581.38147  -8512630.27163
  23551093.591      -97249.032 6    -75765.81621
  24228490.7474      34103.79345    106563.97161
  21610078.1534    4564739.28247   3556935.65362
  23118587.9894   -6983724.96646  -5345428.44561
 91  4 24 21 27 15.0010000  0  6G18G 2G11G16G19G 6
  23650486.1854   16425514.17246  12799059.55361
  21568398.3724  -10939042.45847  -8523898.61363
  23556362.2164     -69579.76146    -54205.38061
  24232404.419       54665.528 5    122585.99021
  21614306.7084    4586950.03347   3574242.70162
  23113806.177    -7008844.483 6  -5365002.03821
 91  4 24 21 27 30.0010000  0  6G18G 2G11G16G19G 6
  23661464.349    16483198.409 5  12844008.05321
  21565660.5754  -10953426.82647  -8535107.17763
  23561650.4974     -41770.36546    -32535.74161
  24236340.4194      75336.77545    138693.33661
  21618542.9744    4609221.51247   3591597.06962
  23109026.997    -7033955.345 6  -5384568.88521
 91  4 24 21 27 45.0010000  0  6G18G 2G11G16G19G 6
  23672454.599    16540926.848 6  12888991.00921
  21562938.0444  -10967735.15947  -8546256.50063
  23566969.130      -13821.681 6    -10757.56721
  24240292.122       96116.625 5    154885.29421
  21622793.1774    4631553.11947   3608998.29062
  23104251.950    -7059058.165 6  -5404129.47321
 91  4 24 21 28  0.0010000  0  6G18G 2G11G16G19G 6
  23683450.5054   16598704.01746  12934011.93661
  21560231.3024  -10981962.62947  -8557342.80663
  23572317.286       14271.028 6     11132.81921
  24244266.5214     117009.54745    171165.37761
  21627057.0674    4653949.40147   3626449.91362
  23099478.9814   -7084148.04546  -5423679.96261
 91  4 24 21 28 15.0010000  0  6G18G 2G11G16G19G 6
  23694452.989    16656526.876 6  12979068.44921
  21557537.5284  -10996112.24947  -8568368.45063
  23577686.2244      42504.71146     33133.07361
  24248264.5054     138012.58845    187531.28661
  21631329.8724    4676407.85447   3643949.97862
  23094705.3724   -7109227.81746  -5443222.58161
 91  4 24 21 28 30.0010000  0  6G18G 2G11G16G19G 6
  23705465.599    16714396.499 6  13024161.40021
  21554860.1614  -11010182.43247  -8579332.19663
  23583087.325       70880.689 6     55244.19721
  24252283.1224     159127.02345    203983.97861
  21635618.0444    4698930.15047   3661499.78862
  23089936.255    -7134295.797 6  -5462756.01221
 91  4 24 21 28 45.0010000  0  6G18G 2G11G16G19G 6
  23716489.3254   16772315.71946  13069292.99161
  21552198.4744  -11024170.24247  -8590231.76263
  23588518.325       99401.687 6     77468.32521
  24256321.5834     180355.74545    220525.72461
  21639912.856     4721519.404 7   3679101.77722
  23085167.0524   -7159349.00446  -5482277.93261
 91  4 24 21 29  0.0010000  0  6G18G 2G11G16G19G 6
  23727518.669    16830284.097 5  13114462.89721
  21549552.6304  -11038075.63047  -8601067.09763
  23593972.286      128067.485 6     99805.29121
  24260383.4664     201698.17545    237156.08461
  21644228.013     4744175.519 6   3696755.87122
  23080402.817    -7184387.438 6  -5501788.34821
 91  4 24 21 29 15.0010000  0  6G18G 2G11G16G19G 6
  23738557.739    16888305.835 5  13159674.37621
  21546923.9034  -11051894.17247  -8611834.76063
  23599455.106      156882.264 6    122258.34321
  24264463.2634     223158.41344    253878.22361
  21648548.2634    4766902.92047   3714465.50562
  23075641.5834   -7209406.70346  -5521283.81361
 91  4 24 21 29 30.0010000  0  6G18G 2G11G16G19G 6
  23749608.3884   16946380.19645  13204926.88861
  21544308.8174  -11065626.45447  -8622535.20263
  23604968.153      185845.347 6    144826.95121
  24268569.5524     244735.98445    270691.80161
  21652889.528     4789701.241 7   3732230.40722
  23070886.1854   -7234407.09346  -5540764.58761
 91  4 24 21 29 45.0010000  0  6G18G 2G11G16G19G 6
  23760672.075    17004509.082 5  13250221.86421
  21541712.075   -11079270.543 7  -8633166.93223
  23610505.6924     214958.62546    167512.59361
  24272699.950      266432.661 5    287598.18721
  21657239.302     4812572.669 7   3750052.27722
  23066131.6694   -7259386.65746  -5560229.12061
 91  4 24 21 30  0.0010000  0  6G18G 2G11G16G19G 6
  23771746.1304   17062690.96646  13295558.12761
  21539133.7784  -11092827.71147  -8643730.92663
  23616075.536      244220.876 6    190314.31721
  24276851.974      288246.899 5    304596.15521
  21661605.802     4835516.094 7   3767930.24122
  23061381.3884   -7284346.35946  -5579678.18061
 91  4 24 21 30 15.0010000  0  6G18G 2G11G16G19G 6
  23782824.7004   17120925.48845  13340935.40561
  21536569.5994  -11106297.91947  -8654227.15663
  23621671.794      273631.679 6    213231.81021
  24281023.9354     310178.15945    321685.33461
  21665986.630     4858531.505 7   3785864.31123
  23056634.2474   -7309286.26246  -5599111.81161
 91  4 24 21 30 30.0010000  0  6G18G 2G11G16G19G 6
  23793914.317    17179208.711 5  13386350.65521
  21534023.3724  -11119684.83047  -8664658.48463
  23627295.192      303187.097 6    236261.97621
  24285216.388      332222.697 5    338862.76821
  21670382.411     4881615.150 6   3803851.54423
  23051893.099    -7334210.119 6  -5618532.94721
 91  4 24 21 30 45.0010000  0  6G18G 2G11G16G19G 6
  23805011.771    17237539.894 5  13431803.26321
  21531491.0754  -11132988.70247  -8675025.10763
  23632947.466      332886.573 6    259404.41121
  24289439.528      354380.080 5    356128.14721
  21674784.8964    4904766.88847   3821891.83263
  23047152.4584   -7359118.15846  -5637941.74361
 91  4 24 21 31  0.0010000  0  6G18G 2G11G16G19G 6
  23816121.333    17295914.326 5  13477289.55921
  21528974.2864  -11146214.25347  -8685330.69763
  23638624.966      362725.428 6    282655.44221
  24293675.419      376645.376 5    373477.63021
  21679200.411     4927982.308 6   3839981.74223
  23042414.606    -7384014.770 6  -5657341.64721
 91  4 24 21 31 15.0010000  0  6G18G 2G11G16G19G 6
  23827242.3804   17354331.87245  13522809.46361
  21526472.5054  -11159361.26748  -8695575.08963
  23644327.560      392703.444 6    306014.90121
  24297932.5444     399018.41945    390911.04061
  21683632.239     4951261.484 7   3858121.33823
  23037678.9664   -7408899.86446  -5676732.56561
 91  4 24 21 31 30.0010000  0  6G18G 2G11G16G19G 6
  23838370.294    17412793.932 6  13568364.03621
  21523985.5054  -11172428.44447  -8705757.27163
  23650061.950      422822.101 6    329483.96821
  24302212.1464     421500.73045    408429.59661
  21688075.341     4974606.203 6   3876311.99923
  23032945.0524   -7433771.81846  -5696113.25161
 91  4 24 21 31 45.0010000  0  6G18G 2G11G16G19G 6
  23849505.192    17471299.013 6  13613952.12921
  21521514.5134  -11185416.56747  -8715877.85563
  23655821.185      453080.370 6    353061.82721
  24306509.7944     444091.06345    426032.35061
  21692528.052     4998015.566 6   3894553.03423
  23028214.036    -7458631.388 6  -5715484.28921
 91  4 24 21 32  0.0010000  0  6G18G 2G11G16G19G 6
  23860646.0834   17529846.61546  13659573.36561
  21519057.3884  -11198326.13847  -8725937.22763
  23661603.192      483477.348 6    376747.76821
  24310835.2784     466788.52945    443718.57761
  21696995.528     5021488.995 6   3912843.99323
  23023487.575    -7483479.183 6  -5734846.15721
 91  4 24 21 32 15.0010000  0  6G18G 2G11G16G19G 6
  23871791.060    17588432.284 6  13705224.27221
  21516614.3724  -11211161.15847  -8735938.50663
  23667413.169      514008.928 6    400538.59421
  24315166.560      489588.871 5    461484.94121
  21701473.9424    5045022.56047   3931181.81063
  23018760.0364   -7508319.00346  -5754201.79861
 91  4 24 21 32 30.0010000  0  6G18G 2G11G16G19G 6
  23882944.341    17647058.246 5  13750906.57121
  21514187.4194  -11223919.27347  -8745879.86063
  23673248.841      544677.474 6    424436.14421
  24319527.9664     512494.36345    479333.26861
  21705964.1854    5068619.02746   3949568.63763
  23014034.7784   -7533148.26046  -5773549.20861
 91  4 24 21 32 45.0010000  0  6G18G 2G11G16G19G 6
  23894106.333    17705722.053 5  13796618.35821
  21511773.9424  -11236602.54547  -8755762.89263
  23679109.294      575480.495 6    448438.48521
  24323906.872      535502.831 5    497261.82121
  21710466.989     5092276.108 6   3968002.70223
  23009311.7784   -7557969.20146  -5792890.13061
 91  4 24 21 33  0.0010000  0  6G18G 2G11G16G19G 6
  23905275.4894   17764425.68745  13842361.18061
  21509374.3254  -11249209.00548  -8765586.07663
  23684997.872      606419.953 6    472547.14221
  24328303.310      558615.719 5    515271.71621
  21714981.5604    5115995.94446   3986485.65863
  23004589.5604   -7582779.62946  -5812222.86961
 91  4 24 21 33 15.0010000  0  6G18G 2G11G16G19G 6
  23916461.3104   17823164.58145  13888131.48261
  21506988.6464  -11261742.96147  -8775352.76163
  23690911.271      637491.326 6    496758.57521
  24332723.9894     581828.65145    533359.59561
  21719504.1694    5139774.40046   4005014.29663
  22999870.1144   -7607583.62246  -5831550.59861
 91  4 24 21 33 30.0010000  0  6G18G 2G11G16G19G 6
  23927649.8174   17881941.65646  13933931.53861
  21504619.1144  -11274201.13948  -8785060.39663
  23696850.106      668697.683 6    521075.19521
  24337157.4894     605144.72845    551527.81861
  21724044.1614    5163614.90946   4023591.28263
  22995151.692    -7632377.919 6  -5850870.77321
 91  4 24 21 33 45.0010000  0  6G18G 2G11G16G19G 6
  23938839.8254   17940756.81546  13979761.25361
  21502262.8174  -11286583.21348  -8794708.73563
  23702813.075      700038.940 6    545496.93621
  24341611.810      628563.577 5    569776.15921
  21728590.8804    5187517.61446   4042216.73862
  22990435.2314   -7657162.28646  -5870183.20461
 91  4 24 21 34  0.0010000  0  6G18G 2G11G16G19G 6
  23950037.5754   17999612.32645  14025622.42061
  21499921.2554  -11298886.81348  -8804295.91663
  23708803.6144     731517.43246    570025.62261
  24346094.5284     652087.72145    588106.51761
  21733153.0054    5211485.19146   4060892.75463
  22985719.8644   -7681934.08346  -5889485.84561
 91  4 24 21 34 15.0010000  0  6G18G 2G11G16G19G 6
  23961245.2944   18058509.89846  14071516.36161
  21497595.9504  -11311110.11248  -8813820.53663
  23714821.583      763134.857 6    594662.56321
  24350589.6064     675718.62145    606520.08961
  21737724.4354    5235519.68646   4079620.88763
  22981010.3174   -7706691.37846  -5908777.17661
 91  4 24 21 34 30.0010000  0  6G18G 2G11G16G19G 6
  23972459.5134   18117445.90345  14117440.24961
  21495284.7004  -11323256.46748  -8823285.19463
  23720862.6224     794887.67346    619405.01061
  24355105.497      699452.836 5    625014.20821
  21742312.8494    5259617.97646   4098398.74463
  22976302.3174   -7731437.39246  -5928059.73261
 91  4 24 21 34 45.0010000  0  6G18G 2G11G16G19G 6
  23983679.8724   18176425.23945  14163397.91061
  21492987.4354  -11335320.71747  -8832685.87663
  23726932.599      826780.812 6    644256.79621
  24359643.8804     723295.43145    643592.68461
  21746910.3724    5283785.13846   4117230.26963
  22971593.8254   -7756166.95846  -5947329.46461
 91  4 24 21 35  0.0010000  0  6G18G 2G11G16G19G 6
  23994911.083    18235443.592 5  14209385.96821
  21490706.1064  -11347306.77247  -8842025.62563
  23733026.247      858810.153 6    669214.69421
  24364199.747      747242.116 5    662252.33921
  21751521.0994    5308017.38446   4136112.50363
  22966892.052    -7780883.901 6  -5966589.36721
 91  4 24 21 35 15.0010000  0  6G18G 2G11G16G19G 6
  24006154.2864   18294501.51345  14255404.86561
  21488441.1064  -11359213.88147  -8851303.85663
  23739147.864      890976.181 6    694279.11321
  24368778.849      771293.092 5    680993.25121
  21756144.9814    5332315.21746   4155045.84863
  22962191.5754   -7805587.43646  -5985838.80761
 91  4 24 21 35 30.0010000  0  6G18G 2G11G16G19G 6
  24017398.146    18353598.965 5  14301454.53621
  21486190.3494  -11371042.05348  -8860520.57963
  23745293.630      923278.782 6    719449.96421
  24373373.2634     795448.24544    699815.32061
  21760782.9424    5356678.85946   4174030.47263
  22957491.364    -7830277.328 6  -6005077.62021
 91  4 24 21 35 45.0010000  0  6G18G 2G11G16G19G 6
  24028654.3564   18412735.40745  14347534.60761
  21483954.2634  -11382791.43748  -8869675.90863
  23751468.2554     955717.63346    744726.97861
  24377989.583      819707.439 4    718718.46321
  21765429.6224    5381108.22646   4193066.30663
  22952797.888    -7854953.610 6  -6024305.82221
 91  4 24 21 36  0.0010000  0  6G18G 2G11G16G19G 6
  24039917.9424   18471910.35145  14393644.67361
  21481734.0214  -11394462.15648  -8878769.93963
  23757667.872      988292.427 6    770109.91321
  24382624.5524     844070.33044    737702.39861
  21770091.3104    5405603.49046   4212153.49063
  22948102.5444   -7879616.41846  -6043523.52661
 91  4 24 21 36 15.0010000  0  6G18G 2G11G16G19G 6
  24051184.466    18531122.001 5  14439783.32721
  21479526.6694  -11406056.12647  -8887804.16363
  23763891.208     1021001.098 6    795597.18121
  24387280.099      868534.561 4
  21774764.9584    5430162.89046
  22943412.4114   -7904267.51946  -6062732.11161
 91  4 24 21 36 30.0010000  0  6G18G 2G11G16G19G 6
  24062459.7944   18590369.26745  14485949.74161
  21477336.2314  -11417573.87147  -8896778.99663
  23770139.739     1053842.992 6    821188.24621
  24391954.1304     893099.41444
  21779450.5054    5454785.89646
  22938723.0834   -7928907.30946  -6081931.87961
 91  4 24 21 36 45.0010000  0  6G18G 2G11G16G19G 6
  24073733.364    18649653.291 5  14532144.81221
  21475158.2394  -11429014.14748  -8905693.46163
  23776416.763     1086819.020 6    846883.83221
  24396647.9814     917765.82044
  21784146.3724    5479473.83646
  22934037.7554   -7953534.37246  -6101121.73161
 91  4 24 21 37  0.0010000  0  6G18G 2G11G16G19G 6
  24085025.263    18708975.211 5  14578369.41121
  21472997.1614  -11440375.56747  -8914546.48263
  23782715.599     1119930.390 6    872684.87421
  24401362.5674     942534.77845
  21788858.0604    5504228.37146   4289003.89463
  22929355.021    -7978147.264 6  -6120300.53721
 91  4 24 21 37 15.0010000  0  6G18G 2G11G16G19G 6
  24096319.677    18768337.922 5  14624625.79021
  21470849.8494  -11451654.93447  -8923335.56163
  23789042.9974    1153179.86746    898593.55361
  24406091.216      967409.371 4
  21793582.0914    5529052.66646
  22924672.9354   -8002742.82146  -6139465.84461
 91  4 24 21 37 30.0010000  0  6G18G 2G11G16G19G 6
  24107629.9814   18827750.37645  14670920.93461
  21468720.9974  -11462842.95347  -8932053.46263
  23795397.521     1186576.549 6    924616.92121
  24410850.989      992398.753 5
  21798324.4584    5553956.01046   4327752.63263
  22919995.9504   -8027311.59046  -6158610.27961
 91  4 24 21 37 45.0010000  0  6G18G 2G11G16G19G 6
  24118947.1144   18887210.56345  14717253.25361
  21466609.4974  -11473941.51348  -8940701.65663
  23801783.356     1220118.388 6    950753.39921
  24415630.669     1017500.963 5        -0.25631
  21803074.0364    5578936.76046   4347218.11863
  22915325.5604   -8051855.25946  -6177735.14961
 91  4 24 21 38  0.0010000  0  6G18G 2G11G16G19G 6
  24130270.927    18946730.748 5  14763632.33421
  21464516.4424  -11484937.82648  -8949270.17763
  23808196.4194    1253818.13546    977012.93561
  24420428.5134    1042728.41744     19657.38061
  21807845.8884    5604007.79246   4366753.94963
  22910664.6854   -8076360.95146  -6196830.42461
 91  4 24 21 38 15.0010000  0  6G18G 2G11G16G19G 6
  24141612.677    19006306.874 5  14810055.00021
  21462441.8494  -11495835.98748  -8957762.21963
  23814636.208     1287671.483 6   1003392.14921
  24425254.5674    1068076.63244     39409.12561
  21812631.1064    5629165.03346   4386356.96463
  22906006.192    -8100832.733 6  -6215899.28921
 91  4 24 21 38 30.0010000  0  6G18G 2G11G16G19G 6
  24152961.3964   19065939.31745  14856521.52761
  21460386.3494  -11506635.48547  -8966177.37563
  23821109.310     1321678.811 6   1029891.34321
  24430098.3024    1093545.97144     59255.21061
  21817439.8804    5654409.22046   4406027.73663
  22901356.989    -8125269.854 6  -6234941.13421
 91  4 24 21 38 45.0010000  0  6G18G 2G11G16G19G 6
  24164314.231    19125625.839 5  14903030.22721
  21458350.8564  -11517338.31847  -8974517.21163
  23827606.7784    1355837.90246   1056508.78661
  24434964.3104    1119134.14144     79193.91561
  21822256.1854    5679738.52546   4425764.83063
  22896712.8884   -8149674.16846  -6253957.41161
 91  4 24 21 39  0.0010000  0  6G18G 2G11G16G19G 6
  24175682.9194   19185363.16945  14949578.48761
  21456331.7084  -11527947.28448  -8982783.90763
  23834137.771     1390145.546 6   1083241.99721
  24439856.513     1144838.155 4     99222.90321
  21827095.7554    5705149.93546   4445565.90263
  22892073.7474   -8174048.59146  -6272950.41261
 91  4 24 21 39 15.0010000  0  6G18G 2G11G16G19G 6
  24187061.5134   19245148.10145  14996163.83861
  21454330.9664  -11538465.29847  -8990979.73063
  23840693.450     1424598.710 6   1110088.59921
  24444769.396     1170654.762 4    119339.60521
  21831943.224     5730640.803 6   4465428.88923
  22887441.4664   -8198395.88646  -6291922.25761
 91  4 24 21 39 30.0010000  0  6G18G 2G11G16G19G 6
  24198447.341    19304977.968 5  15042784.23621
  21452345.4504  -11548894.89947  -8999106.65363
  23847276.6694    1459194.64246   1137046.45661
  24449703.7244    1196581.21745    139541.88361
  21836810.333     5756208.621 6   4485351.83723
  22882812.8024   -8222718.36746  -6310874.78061
 91  4 24 21 39 45.0010000  0  6G18G 2G11G16G19G 6
  24209840.271    19364847.104 5  15089435.21221
  21450375.6144  -11559241.58147  -9007168.97463
  23853887.724     1493927.749 6   1164111.18821
  24454661.1224    1222612.01845    159825.49361
  21841686.310     5781848.160 6   4505330.67523
  22878187.8964   -8247021.40046  -6329812.14561
 91  4 24 21 40  0.0010000  0  6G18G 2G11G16G19G 6
  24221237.5994   19424754.84745  15136116.27261
  21448423.0444  -11569505.78147  -9015167.01863
  23860521.646     1528797.175 6   1191282.15121
  24459631.114     1248745.973 5    180189.48921
  21846579.7784    5807558.83347   4525364.93563
  22873567.9034   -8271305.37446  -6348734.65861
 91  4 24 21 40 15.0010000  0  6G18G 2G11G16G19G 6
  24232644.7084   19484691.62645  15182819.96261
  21446484.0134  -11579696.80647  -9023108.04763
  23867179.2944    1563793.48146   1218551.96761
  24464622.974     1274973.599 5    200626.44021
  21851485.0674    5833331.63847   4545447.61463
  22868947.5994   -8295579.50546  -6367649.51161
 91  4 24 21 40 30.0010000  0  6G18G 2G11G16G19G 6
  24244059.481    19544658.432 5  15229547.02421
  21444559.2084  -11589813.37547  -9030991.05263
  23873864.294     1598917.736 6   1245921.49221
  24469633.927     1301296.057 5    221137.33321
  21856403.0284    5859167.93046   4565579.76063
  22864331.2164   -8319842.38646  -6386555.58461
 91  4 24 21 40 45.0010000  0  6G18G 2G11G16G19G 6
  24255473.724    19604650.988 5  15276294.15221
  21442645.6614  -11599859.20547  -9038818.94363
  23880572.927     1634165.918 6   1273387.59521
  24474656.364     1327709.404 4    241719.05321
  21861330.2554    5885063.96847   4585758.46363
  22859713.1304   -8344097.68546  -6405455.76061
 91  4 24 21 41  0.0010000  0  6G18G 2G11G16G19G 6
  24266890.4504   19664671.20345  15323062.84161
  21440751.1854  -11609832.68947  -9046590.45763
  23887303.497     1669539.519 6   1300951.42121
  24479701.2314    1354215.14644    262372.71961
  21866272.810     5911021.341 6   4605984.96123
  22855100.5524   -8368343.60846  -6424348.62461
 91  4 24 21 41 15.0010000  0  6G18G 2G11G16G19G 6
  24278315.880    19724720.224 5  15369853.97521
  21438865.5524  -11619732.32447  -9054304.42863
  23894058.4194    1705039.84146   1328613.97561
  24484769.3644    1380814.17445    283099.12161
  21871220.825     5937041.866 7   4626260.67023
  22850489.1464   -8392578.47346  -6443232.87761
 91  4 24 21 41 30.0010000  0  6G18G 2G11G16G19G 6
  24289754.1614   19784796.12645  15416666.06361
  21436995.2474  -11629559.63447  -9061962.04263
  23900838.3564    1740665.10746   1356373.89361
  24489844.5754    1407504.89145    303896.96561
  21876189.278     5963124.027 6   4646584.40523
  22845880.1694   -8416803.72846  -6462109.63961
 91  4 24 21 41 45.0010000  0  6G18G 2G11G16G19G 6
  24301190.3724   19844895.51845  15463496.45761
  21435138.0134  -11639317.87647  -9069565.84063
  23907638.3564    1776411.91246   1384228.53061
  24494938.4974    1434283.84445    324763.55361
  21881157.896     5989264.742 6   4666953.77123
  22841272.091    -8441022.514 6  -6480981.36721
 91  4 24 21 42  0.0010000  0  6G18G 2G11G16G19G 6
  24312628.4114   19905019.64745  15510346.15661
  21433294.7394  -11649005.51647  -9077114.62063
  23914467.2714    1812281.66846   1412178.98361
  24500056.4504    1461152.34845    345699.90361
  21886148.1384    6015465.72146   4687370.09063
  22836663.888    -8465233.110 6  -6499846.70821
 91  4 24 21 42 15.0010000  0  6G18G 2G11G16G19G 6
  24324075.6614   19965164.53745  15557212.00061
  21431463.0284  -11658626.42747  -9084611.40563
  23921314.591     1848270.164 6   1440221.95421
  24505183.7474    1488106.22545    366702.80261
  21891140.5134    6041723.10546   4707830.35763
  22832054.9664   -8489439.34246  -6518708.64561
 91  4 24 21 42 30.0010000  0  6G18G 2G11G16G19G 6
  24335529.372    20025330.906 5  15604094.58021
  21429645.2314  -11668179.43247  -9092055.27863
  23928186.786     1884378.287 6   1468358.14221
  24510330.9894    1515146.42345    387772.95361
  21896148.1064    6068038.25346   4728335.64063
  22827451.646    -8513639.812 6  -6537566.10021
 91  4 24 21 42 45.0010000  0  6G18G 2G11G16G19G 6
  24346982.810    20085519.245 5  15650994.29021
  21427840.4974  -11677663.79847  -9099445.66463
  23935078.8104    1920606.59946   1496587.98161
  24515490.1854    1542273.10345    408910.48761
  21901165.286     6094411.984 6   4748886.57623
  22822846.5754   -8537833.72346  -6556418.44061
 91  4 24 21 43  0.0010000  0  6G18G 2G11G16G19G 6
  24358440.8104   20145731.51245  15697912.63461
  21426049.3644  -11687077.57047  -9106781.04063
  23941996.544     1956956.930 6   1524912.89821
  24520669.8334    1569488.49545    430117.15061
  21906202.5834    6120846.36746   4769484.76863
  22818244.942    -8562018.899 6  -6575263.97721
 91  4 24 21 43 15.0010000  0  6G18G 2G11G16G19G 6
  24369901.3804   20205967.40645  15744849.39961
  21424271.7244  -11696420.70447  -9114061.36963
  23948938.231     1993429.161 6   1553332.79321
  24525866.239     1596792.335 5    451392.72921
  21911238.3564    6147341.63447   4790130.39463
  22813645.3494   -8586195.15546  -6594102.55561
 91  4 24 21 43 30.0010000  0  6G18G 2G11G16G19G 6
  24381369.2634   20266225.16045  15791803.16261
  21422506.6464  -11705694.70847  -9121287.84263
  23955902.153     2030021.376 6   1581846.18721
  24531076.091     1624182.777 5    472735.80621
  21916293.0834    6173896.23547   4810822.26263
  22809044.044    -8610364.050 6  -6612935.40021
 91  4 24 21 43 45.0010000  0  6G18G 2G11G16G19G 6
  24392841.231    20326505.208 5  15838774.33121
  21420755.2474  -11714899.03247  -9128460.01463
  23962889.208     2066733.947 6   1610453.36721
  24536306.5834    1651660.22545    494146.65761
  21921357.2314    6200510.86747   4831560.90963
  22804447.9894   -8634524.78346  -6631761.88161
 91  4 24 21 44  0.0010000  0  6G18G 2G11G16G19G 6
  24404314.536    20386806.617 5  15885762.12421
  21419016.4584  -11724034.09247  -9135578.21263
  23969897.442     2103566.241 6   1639153.84421
  24541552.5444    1679223.75945    515624.58961
  21926434.7944    6227185.13047   4852346.01963
  22799851.192    -8658677.677 6  -6650582.26321
 91  4 24 21 44 15.0010000  0  6G18G 2G11G16G19G 6
  24415792.200    20447129.100 5  15932766.34521
  21417291.3724  -11733100.21248  -9142642.69463
  23976927.771     2140517.572 6   1667947.07821
  24546816.560     1706872.589 5    537168.99221
  21931519.9354    6253918.68447   4873177.32463
  22795255.8644   -8682823.11746  -6669396.83361
 91  4 24 21 44 30.0010000  0  6G18G 2G11G16G19G 6
  24427278.239    20507471.517 5  15979786.08821
  21415580.9034  -11742098.05648  -9149653.97563
  23983983.4894    2177587.10046   1696832.40061
  24552093.0134    1734605.90845    558779.25061
  21936619.5444    6280710.91346   4894054.36063
  22790661.7244   -8706961.34546  -6688205.77761
 91  4 24 21 44 45.0010000  0  6G18G 2G11G16G19G 6
  24438764.974    20567826.756 5  16026815.84221
  21413878.8564  -11751034.54948  -9156617.44663
  23991056.349     2214767.708 6   1725804.28221
  24557382.247     1762416.686 5    580449.85321
  21941727.5754    6307555.30246   4914972.03363
  22786069.661    -8731099.290 6  -6707014.51121
 91  4 24 21 45  0.0010000  0  6G18G 2G11G16G19G 6
  24450255.817    20628199.577 5  16073859.27721
  21412190.9814  -11759904.74548  -9163529.26063
  23998154.763     2252064.132 6   1754866.40921
  24562693.1304    1790309.54645    602184.41261
  21946848.4034    6334456.94146   4935934.32063
  22781477.7004   -8755231.81746  -6725819.01261
 91  4 24 21 45 15.0010000  0  6G18G 2G11G16G19G 6
  24461750.8724   20688592.74845  16120918.59261
  21410516.4504  -11768705.78447  -9170387.18363
  24005272.067     2289479.176 6   1784020.97121
  24568017.0054    1818286.98245    623984.87461
  21951977.3254    6361418.68247   4956943.43363
  22776887.4424   -8779355.88946  -6744616.92561
 91  4 24 21 45 30.0010000  0  6G18G 2G11G16G19G 6
  24473243.974    20749001.652 5  16167990.15021
  21408853.9974  -11777441.99448  -9177194.59463
  24012415.0674    2327008.27946   1813264.39561
  24573355.161     1846344.842 5    645847.99021
  21957119.7314    6388436.37346   4977996.14363
  22772297.9194   -8803475.63346  -6763411.47861
 91  4 24 21 45 45.0010000  0  5G18G 2G11G19G 6
  24484742.1694   20809427.80745  16215075.14361
  21407205.0444  -11786111.54848  -9183950.05663
  24019581.153     2364652.822 6   1842597.78221
  21962270.6534    6415511.84046   4999093.87863
  22767707.005    -8827589.247 6  -6782201.25121
 91  4 24 21 46  0.0010000  0  5G18G 2G11G19G 6
  24496240.919    20869867.718 5  16262170.89421
  21405566.5284  -11794717.63248  -9190656.05863
  24026763.021     2402409.388 6   1872018.46921
  21967436.9504    6442641.96846   5020234.20563
  22763119.372    -8851699.750 6  -6800988.60421
 91  4 24 21 46 15.0010000  0  5G18G 2G11G19G 6
  24507741.052    20930328.814 5  16309283.09921
  21403941.9974  -11803252.57347  -9197306.63563
  24033972.239     2440285.433 6   1901532.24021
  21972609.0604    6469834.57047   5041423.21663
  22758534.9664   -8875799.40546  -6819767.50061
 91  4 24 21 46 30.0010000  0  5G18G 2G11G19G 6
  24519248.083    20990809.432 4  16356410.56221
  21402330.9194  -11811717.78047  -9203902.87263
  24041200.6384    2478279.37646   1931137.87761
  21977797.0444    6497088.32646   5062659.87863
  22753951.2714   -8899889.45246  -6838538.89361
 91  4 24 21 46 45.0010000  0  5G18G 2G11G19G 6
  24530765.3414   21051307.43645  16403551.54861
  21400732.8494  -11820115.48647  -9210446.50864
  24048455.8024    2516388.76946   1960833.47761
  21982991.0054    6524401.09147   5083942.51863
  22749368.4114   -8923971.94646  -6857304.40561
 91  4 24 21 47  0.0010000  0  5G18G 2G11G19G 6
  24542281.216    21111823.299 5  16450706.46021
  21399147.7244  -11828444.60148  -9216936.69864
  24055726.3724    2554614.28346   1990619.57661
  21988199.9584    6551774.10046   5105272.10362
  22744787.1534   -8948045.69646  -6876063.10761
 91  4 24 21 47 15.0010000  0  5G18G 2G11G19G 6
  24553796.771    21172356.999 5  16497875.26721
  21397575.5364  -11836705.14448  -9223373.45364
  24063024.677     2592955.986 6   2020496.20221
  21993420.5134    6579207.45346   5126648.71363
  22740206.4194   -8972110.45246  -6894814.80261
 91  4 24 21 47 30.0010000  0  5G18G 2G11G19G 6
  24565319.036    21232910.707 5  16545059.65721
  21396017.388   -11844894.823 8  -9229754.99424
  24070342.6854    2631415.81346   2050464.86161
  21998654.8024    6606703.27246   5148073.99463
  22735628.052    -8996163.883 6  -6913557.68121
 91  4 24 21 47 45.0010000  0  5G18G 2G11G19G 6
  24576845.255    21293485.481 5  16592260.47421
  21394473.3724  -11853012.11748  -9236080.12664
  24077684.1224    2669995.14246   2080526.64961
  22003897.2714    6634263.41946   5169549.40463
  22731054.7004   -9020204.22246  -6932290.35861
 91  4 24 21 48  0.0010000  0  5G18G 2G11G19G 6
  24588381.521    21354077.817 5  16639474.97021
  21392941.3964  -11861060.41748  -9242351.49764
  24085046.7164    2708690.24746   2110678.65161
  22009155.8964    6661884.75046   5191072.48863
  22726482.091    -9044234.688 6  -6951015.34021
 91  4 24 21 48 15.0010000  0  5G18G 2G11G19G 6
  24599908.685    21414684.375 5  16686700.56121
  21391421.6144  -11869042.84548  -9248571.53863
  24092434.466     2747497.745 6   2140918.23621
  22014420.9424    6689564.13846   5212640.81063
  22721910.4424   -9068258.39346  -6969735.04761
 91  4 24 21 48 30.0010000  0  5G18G 2G11G19G 6
  24611450.685    21475308.597 5  16733939.88821
  21389916.3174  -11876955.58548  -9254737.28263
  24099840.771     2786421.431 6   2171248.35421
  22019701.6224    6717305.56946   5234257.47763
  22717341.7714   -9092271.23246  -6988446.28661
 91  4 24 21 48 45.0010000  0  5G18G 2G11G19G 6
  24622995.575    21535949.984 5  16781192.60921
  21388424.0754  -11884799.19048  -9260849.14863
  24107268.4664    2825460.47346   2201668.37761
  22024990.9424    6745108.51646   5255922.08263
  22712773.0604   -9116273.65646  -7007149.42061
 91  4 24 21 49  0.0010000  0  5G18G 2G11G19G 6
  24634535.4504   21596605.92745  16828456.64961
  21386943.5994  -11892575.81248  -9266908.82563
  24114718.450     2864612.243 6   2232176.22421
  22030295.5134    6772970.88046   5277632.98563
  22708207.5994   -9140267.63746  -7025845.96761
 91  4 24 21 49 15.0010000  0  5G18G 2G11G19G 6
  24646083.2164   21657273.71545  16875729.93061
  21385476.4504  -11900287.98847  -9272918.28263
  24122188.489     2903874.222 6   2262769.96221
  22035607.5054    6800890.42447   5299388.44563
  22703641.888    -9164255.648 6  -7044537.87021
 91  4 24 21 49 30.0010000  0  5G18G 2G11G19G 6
  24657634.5674   21717955.24045  16923013.92761
  21384022.122   -11907933.411 8  -9278875.73123
  24129682.177     2943248.250 6   2293451.01321
  22040930.7864    6828869.34146   5321190.16663
  22699078.208    -9188235.221 6  -7063223.19621
 91  4 24 21 49 45.0010000  0  5G18G 2G11G19G 6
  24669182.1854   21778654.82245  16970311.99161
  21382580.3414  -11915507.68248  -9284777.72664
  24137200.2164    2982738.55346   2324222.64461
  22046267.2314    6856912.23146   5343041.74363
  22694519.708    -9212201.864 6  -7081898.44921
 91  4 24 21 50  0.0010000  0  5G18G 2G11G19G 6
  24680738.083    21839370.855 5  17017622.88621
  21381152.3104  -11923012.20248  -9290625.37363
  24144737.2084    3022343.54846   2355083.65061
  22051614.5524    6885017.69546   5364942.07162
  22689960.771    -9236156.726 6  -7100564.51821
 91  4 24 21 50 15.0010000  0  5G18G 2G11G19G 6
  24692294.1924   21900102.57345  17064945.98061
  21379737.5674  -11930447.48448  -9296419.07363
  24152292.3104    3062062.41146   2386033.38761
  22056975.3724    6913185.17846   5386890.72363
  22685404.239    -9260100.240 6  -7119221.74622
 91  4 24 21 50 30.0010000  0  5G18G 2G11G19G 6
  24703850.0994   21960850.23745  17112281.51261
  21378335.5994  -11937812.89348  -9302158.32263
  24159873.825     3101895.521 6   2417072.14821
  22062348.1854    6941415.55746   5408888.38662
  22680850.5604   -9284031.51546  -7137869.43562
 91  4 24 21 50 45.0010000  0  5G18G 2G11G19G 6
  24715414.9034   22021614.33745  17159629.87061
  21376946.7714  -11945107.80748  -9307842.64363
  24167473.497     3141843.158 6   2448200.16521
  22067730.2164    6969709.47546   5430935.55962
  22676297.7714   -9307949.95946  -7156507.12261
 91  4 24 21 51  0.0010000  0  5G18G 2G11G19G 6
  24726973.919    22082392.168 5  17206988.90921
  21375571.864   -11952335.134 8  -9313474.30023
  24175095.216     3181902.326 6   2479415.08221
  22073130.7864    6998064.32546   5453030.21762
  22671748.325    -9331858.140 6  -7175136.81321
 91  4 24 21 51 15.0010000  0  5G18G 2G11G19G 6
  24738549.6304   22143185.03145  17254359.67761
  21374209.661   -11959493.022 8  -9319051.85323
  24182741.5214    3222074.58746   2510718.11361
  22078534.7244    7026482.11046   5475173.91062
  22667201.294    -9355754.052 6  -7193756.95121
 91  4 24 21 51 30.0010000  0  5G18G 2G11G19G 6
  24750119.3024   22203988.37045  17301738.57961
  21372859.4194  -11966585.72348  -9324578.60263
  24190406.3884    3262355.64546   2542105.92861
  22083956.271     7054958.788 6   5497363.50522
  22662654.7634   -9379641.66046  -7212370.60961
 91  4 24 21 51 45.0010000  0  5G18G 2G11G19G 6
  24761696.388    22264804.139 5  17349127.16121
  21371523.544   -11973610.840 8  -9330052.69523
  24198095.044     3302747.421 6   2573580.01621
  22089384.1384    7083496.68946   5519600.79962
  22658110.685    -9403518.748 6  -7230976.07921
 91  4 24 21 52  0.0010000  0  5G18G 2G11G19G 6
  24773268.380    22325629.020 5  17396522.86021
  21370200.817   -11980571.812 8  -9335476.80623
  24205799.755     3343246.326 6   2605137.58921
  22094825.0604    7112092.41246   5541883.14562
  22653567.200    -9427388.367 6  -7249575.73321
 91  4 24 21 52 15.0010000  0  5G18G 2G11G19G 6
  24784847.161    22386460.469 5  17443923.67021
  21368887.841   -11987470.996 8  -9340852.76723
  24213530.310     3383849.831 6   2636776.66621
  22100278.6534    7140743.62546   5564208.73262
  22649027.481    -9451252.708 6  -7268171.26621
 91  4 24 21 52 30.0010000  0  4G 2G11G19G 6
  21367585.896   -11994307.195 8  -9346179.65124
  24221275.6924    3424558.85746   2668497.95661
  22105739.8414    7169451.82246   5586578.72162
  22644488.1064   -9475110.40046  -7286761.61661
 91  4 24 21 52 45.0010000  0  4G 2G11G19G 6
  21366297.364   -12001077.672 8  -9351455.32024
  24229038.903     3465375.779 6   2700303.33321
  22111214.6614    7198219.73746   5608995.24562
  22639950.9274   -9498958.61246  -7305344.58061
 91  4 24 21 53  0.0010000  0  4G 2G11G19G 6
  21365019.841   -12007785.528 7  -9356682.19623
  24236827.122     3506297.261 6   2732190.17721
  22116702.3804    7227044.29946   5631455.90962
  22635413.388    -9522800.489 6  -7323922.61221
 91  4 24 21 53 15.0010000  0  4G 2G11G19G 6
  21363755.2084  -12014429.03047  -9361858.92264
  24244636.935     3547324.771 6   2764159.64221
  22122199.2244    7255927.44146   5653962.22062
  22630878.4894   -9546633.95446  -7342494.08062
 91  4 24 21 53 30.0010000  0  4G 2G11G19G 6
  21362503.653   -12021005.912 7  -9366983.74223
  24252462.278     3588460.394 6   2796213.35521
  22127709.5054    7284871.60746   5676516.07962
  22626345.302    -9570456.468 6  -7361057.02222
 91  4 24 21 53 45.0010000  0  4G 2G11G19G 6
  21361266.521   -12027510.259 8  -9372052.04123
  24260313.5754    3629709.79646   2828355.71461
  22133226.0524    7313882.67246   5699122.06462
  22621813.3254   -9594262.10846  -7379606.81362
 91  4 24 21 54  0.0010000  0  4G 2G11G19G 6
  21360044.8804  -12033937.07948  -9377059.92563
  24268184.552     3671077.820 6   2860590.51621
  22138765.0284    7342965.83746   5721784.23262
  22617288.5054   -9618045.62746  -7398139.37061
 91  4 24 21 54 15.0010000  0  4G 2G11G19G 6
  21358834.950   -12040289.423 8  -9382009.77823
  24276077.677     3712561.045 6   2892915.08021
  22144307.9504    7372118.06746   5744500.22262
  22612766.856    -9641809.939 6  -7416656.95822
 91  4 24 21 54 30.0010000  0  4G 2G11G19G 6
  21357640.4584  -12046567.21648  -9386901.53263
  24283996.731     3754159.226 6   2925329.22221
  22149870.7394    7401339.38346   5767270.03962
  22608246.9354   -9665554.86046  -7435159.43561
 91  4 24 21 54 45.0010000  0  4G 2G11G19G 6
  21356459.9744  -12052772.51648  -9391736.80463
  24291932.622     3795870.329 6   2957831.35421
  22155441.1534    7430628.15946   5790092.43062
  22603730.747    -9689282.041 6  -7453648.09521
 91  4 24 21 55  0.0010000  0  4G 2G11G19G 6
  21355292.0444  -12058904.60848  -9396515.02763
  24299888.817     3837694.747 6   2990421.78721
  22161028.7474    7459985.21746   5812968.02062
  22599221.380    -9712990.720 6  -7472122.33321
 91  4 24 21 55 15.0010000  0  4G 2G11G19G 6
  21354139.060   -12064968.796 8  -9401240.34123
  24307870.286     3879626.880 6   3023096.15421
  22166625.3804    7489405.13446   5835892.59262
  22594709.685    -9736686.050 6  -7490586.18321
 91  4 24 21 55 30.0010000  0  4G 2G11G19G 6
  21352997.5444  -12070964.31248  -9405912.14563
  24315867.2164    3921667.27946   3055854.90261
  22172238.5364    7518888.90946   5858866.92762
  22590205.833    -9760367.002 6  -7509038.81421
 91  4 24 21 55 45.0010000  0  4G 2G11G19G 6
  21351871.0524  -12076888.11947  -9410528.07063
  24323892.6384    3963818.62246   3088700.09661
  22177861.0214    7548439.48646   5881893.30962
  22585700.927    -9784030.614 6  -7527477.94221
 91  4 24 21 56  0.0010000  0  4G 2G11G19G 6
  21350756.1854  -12082744.54947  -9415091.48964
  24331932.5134    4006076.34146   3121628.17761
  22183496.6464    7578052.84946   5904968.61862
  22581202.349    -9807680.895 6  -7545906.67722
 91  4 24 21 56 15.0010000  0  4G 2G11G19G 6
  21349654.0604  -12088535.88747  -9419604.19063
  24339994.2554    4048438.02846   3154637.27661
  22189142.606     7607726.792 6   5928091.12822
  22576703.856    -9831319.801 6  -7564326.54821
 91  4 24 21 56 30.0010000  0  4G 2G11G19G 6
  21348563.7634  -12094264.71648  -9424068.18964
  24348073.442     4090900.659 6   3187725.01121
  22194801.2314    7637458.74446   5951258.84262
  22572205.747    -9854949.949 6  -7582739.59422
 91  4 24 21 56 45.0010000  0  4G 2G11G19G 6
  21347485.5134  -12099927.50448  -9428480.72263
  24356174.0994    4133467.64146   3220894.08261
  22200468.4584    7667252.42946   5974474.66462
  22567712.903    -9878567.467 6  -7601142.80122
 91  4 24 21 57  0.0010000  0  4G 2G11G19G 6
  21346420.9194  -12105525.51548  -9432842.77363
  24364295.7314    4176137.22046   3254143.10061
  22206149.7394    7697106.51846   5997737.55362
  22563219.083    -9902173.626 6  -7619537.16122
 91  4 24 21 57 15.0010000  0  4G 2G11G19G 6
  21345367.9744  -12111057.41348  -9437153.31463
  24372434.8024    4218910.77446   3287473.12561
  22211844.9034    7727022.70846   6021048.83062
  22558730.6694   -9925766.70846  -7637921.32262
 91  4 24 21 57 30.0010000  0  4G 2G11G19G 6
  21344328.3884  -12116520.39448  -9441410.15663
  24380594.3724    4261790.77946   3320886.12161
  22217551.005     7757003.680 6   6044410.58122
  22554244.380    -9949343.885 6  -7656293.09621
 91  4 24 21 57 45.0010000  0  4G 2G11G19G 6
  21343301.0994  -12121917.49648  -9445615.66463
  24388774.146     4304773.944 6   3354379.48521
  22223266.294     7787046.581 6   6067820.59522
  22549760.8884   -9972907.95146  -7674654.64661
 91  4 24 21 58  0.0010000  0  4G 2G11G19G 6
  21342286.497   -12127246.629 8  -9449768.20823
  24396973.7314    4347862.07146   3387954.63661
  22228994.2394    7817153.66046   6091280.61862
  22545278.388    -9996456.634 7  -7693004.21621
 91  4 24 21 58 15.0010000  0  4G 2G11G19G 6
  21341286.310   -12132506.723 8  -9453866.95623
  24405191.0754    4391056.02846   3421612.25261
  22234737.4424    7847326.03546   6114791.51962
  22540800.7004  -10019988.69847  -7711340.82962
 91  4 24 21 58 30.0010000  0  4G 2G11G19G 6
  21340298.692   -12137699.620 8  -9457913.34223
  24413431.1924    4434353.68546   3455350.68161
  22240492.5834    7877561.94046   6138351.92862
  22536325.106   -10043505.693 7  -7729665.71521
 91  4 24 21 58 45.0010000  0  4G 2G11G19G 6
  21339323.7164  -12142825.00448  -9461907.11963
  24421689.7314    4477755.01646   3489169.88861
  22246258.3174    7907861.71846   6161962.11062
  22531852.231   -10067007.367 6  -7747978.65422
 91  4 24 21 59  0.0010000  0  4G 2G11G19G 6
  21338359.989   -12147884.794 8  -9465849.78423
  24429967.521     4521257.954 6   3523068.27921
  22252034.0914    7938223.68246   6185620.74462
  22527382.552   -10090495.266 6  -7766280.85722
 91  4 24 21 59 15.0010000  0  4G 2G11G19G 6
  21337409.8254  -12152876.30348  -9469739.24463
  24438265.7004    4564865.02146   3557047.80061
  22257824.7474    7968650.66746   6209330.04462
  22522915.310   -10113966.546 6  -7784570.11522
 91  4 24 21 59 30.0010000  0  4G 2G11G19G 6
  21336471.0054  -12157807.20347  -9473581.47663
  24446584.1854    4608568.33746   3591102.32461
  22263625.1924    7999135.12646   6233084.12962
  22518451.1694  -10137428.61647  -7802852.18862
 91  4 24 21 59 45.0010000  0  4G 2G11G19G 6
  21335546.0754  -12162670.01647  -9477370.65663
  24454920.3804    4652375.01446   3625237.39061
  22269438.8804    8029684.57346   6256888.85362
  22513990.817   -10160873.863 7  -7821121.15721
 91  4 24 22  0  0.0010000  0  4G 2G11G19G 6
  21334634.5834  -12167464.41748  -9481106.52863
  24463275.2004    4696284.89846   3659452.88361
  22275264.5054    8060299.12246   6280744.30962
  22509530.8564  -10184302.00847  -7839376.79662
 91  4 24 22  0 15.0010000  0  4G 2G11G19G 6
  21333735.255   -12172188.933 8  -9484787.94323
  24471650.2784    4740299.34146   3693749.84761
  22281101.3494    8090980.51746   6304651.85362
  22505078.3494  -10207711.15847  -7857617.63962
 91  4 24 22  0 30.0010000  0  4G 2G11G19G 6
  21332848.325   -12176845.709 8  -9488416.57423
  24480045.864     4784415.991 6   3728126.44221
  22286955.2554    8121726.72746   6328609.89862
  22500625.700   -10231103.245 7  -7875845.18022
 91  4 24 22  0 45.0010000  0  4G 2G11G19G 6
  21331973.950   -12181435.903 8  -9491993.32223
  24488458.3494    4828633.25146   3762581.44961
  22292816.505     8152536.690 6   6352617.61322
  22496178.739   -10254479.362 7  -7894060.28821
 91  4 24 22  1  0.0010000  0  4G 2G11G19G 6
  21331113.177   -12185966.564 8  -9495523.68123
  24496893.286     4872943.874 6   3797109.22421
  22298690.833     8183403.523 6   6376669.64522
  22491729.419   -10277846.301 7  -7912268.23922
 91  4 24 22  1 15.0010000  0  4G 2G11G19G 6
  21330262.700   -12190433.605 8  -9499004.46823
  24505345.7714    4917351.75246   3831712.77061
  22304574.997     8214331.408 6   6400769.25622
  22487287.106   -10301199.810 7  -7930465.72722
 91  4 24 22  1 30.0010000  0  4G 2G11G19G 6
  21329424.638   -12194837.191 8  -9502435.80823
  24513811.4664    4961856.47546   3866391.77061
  22310475.028     8245320.312 6   6424916.40422
  22482846.2314  -10324539.94047  -7948652.78862
 91  4 24 22  1 45.0010000  0  4G 2G11G19G 6
  21328598.4584  -12199176.81048  -9505817.30263
  24522298.7944    5006458.10446   3901146.27861
  22316379.560     8276370.683 6   6449111.45422
  22478407.013   -10347866.018 7  -7966828.89822
 91  4 24 22  2  0.0010000  0  4G 2G11G19G 6
  21327785.716   -12203453.993 8  -9509150.14924
  24530804.2714    5051155.05745   3935975.06761
  22322304.466     8307481.136 6   6473353.32022
  22473969.6464  -10371179.17247  -7984994.93262
 91  4 24 22  2 15.0010000  0  4G 2G11G19G 6
  21326982.9894  -12207666.86648  -9512432.88463
  24539329.005     5095949.018 5   3970879.43121
  22328232.630     8338653.811 6   6497643.66622
  22469537.0364  -10394477.28747  -8003149.24162
 91  4 24 22  2 30.0010000  0  4G 2G11G19G 6
  21326194.981   -12211816.593 8  -9515666.41323
  24547868.6774    5140838.32746   4005858.12061
  22334178.278     8369887.486 6   6521981.54822
  22465104.5914  -10417761.46347  -8021292.69962
 91  4 24 22  2 45.0010000  0  4G 2G11G19G 6
  21325416.630   -12215899.089 8  -9518847.55624
  24556430.841     5185826.807 6   4040914.08921
  22340131.935     8401186.252 6   6546370.15522
  22460679.0604  -10441027.51047  -8039422.02862
 91  4 24 22  3  0.0010000  0  4G 2G11G19G 6
  21324653.099   -12219914.540 8  -9521976.45424
  24565008.4194    5230914.06445   4076046.99461
  22346101.255     8432550.063 6   6570809.43722
  22456254.044   -10464275.338 7  -8057537.16322
 91  4 24 22  3 15.0010000  0  4G 2G11G19G 6
  21323900.435   -12223865.572 8  -9525055.15624
  24573607.622     5276097.276 5   4111254.67521
  22352080.833     8463976.440 6   6595297.47922
  22451833.911   -10487507.329 7  -8075639.95722
 91  4 24 22  3 30.0010000  0  4G 2G11G19G 6
  21323162.747   -12227749.950 8  -9528081.91924
  24582227.1694    5321378.53945   4146538.77961
  22358079.435     8495467.991 6   6619836.30122
  22447415.575   -10510720.849 7  -8093728.36222
 91  4 24 22  3 45.0010000  0  4G 2G11G19G 6
  21322434.9894  -12231567.01348  -9531056.22564
  24590860.8024    5366758.01145   4181899.40661
  22364076.231     8527025.282 6   6644426.35522
  22443001.4664  -10533915.21047  -8111801.83462
 91  4 24 22  4  0.0010000  0  4G 2G11G19G 6
  21321721.2314  -12235320.47248  -9533980.97264
  24599516.536     5412231.846 5   4217333.54921
  22370100.239     8558644.398 6   6669064.57922
  22438591.5364  -10557094.06647  -8129863.22062
 91  4 24 22  4 15.0010000  0  4G 2G11G19G 6
  21321019.8964  -12239008.59448  -9536854.80563
  24608188.661     5457801.655 6   4252842.47121
  22376125.310     8590327.622 6   6693752.75722
  22434185.075   -10580255.226 7  -8147910.82722
 91  4 24 22  4 30.0010000  0  4G 2G11G19G 6
  21320329.4194  -12242634.56648  -9539680.20964
  24616874.3334    5503463.80346   4288423.37361
  22382165.794     8622071.743 6   6718488.39322
  22429778.7004  -10603401.82747  -8165947.07362
 91  4 24 22  4 45.0010000  0  4G 2G11G19G 6
  21319651.208   -12246198.786 8  -9542457.50023
  24625580.8644    5549217.58646   4324075.67761
  22388217.466     8653876.374 6   6743271.17922
  22425376.8104  -10626534.05447  -8183972.12862
 91  4 24 22  5  0.0010000  0  4G 2G11G19G 6
  21318984.435   -12249702.287 8  -9545187.48123
  24634305.9584    5595061.82246   4359798.45961
  22394282.700     8685740.495 6   6768100.30922
  22420976.4194  -10649652.68947  -8201986.58562
 91  4 24 22  5 15.0010000  0  4G 2G11G19G 6
  21318329.755   -12253142.462 8  -9547868.11423
  24643047.7714    5640998.70046   4395593.42061
  22400354.685     8717666.832 6   6792977.92722
  22416580.5054  -10672755.04047  -8219988.35362
 91  4 24 22  5 30.0010000  0  4G 2G11G19G 6
  21317687.341   -12256520.961 8  -9550500.68423
  24651808.380     5687026.290 6   4431459.06321
  22406447.708     8749653.891 6   6817902.86022
  22412189.0284  -10695842.45247  -8237978.47562
 91  4 24 22  5 45.0010000  0  4G 2G11G19G 6
  21317056.888   -12259837.154 8  -9553084.70723
  24660583.9664    5733144.92446   4467395.65861
  22412544.286     8781702.297 6   6842875.59122
  22407797.3804  -10718914.17747  -8255956.38562
 91  4 24 22  6  0.0010000  0  4G 2G11G19G 6
  21316435.841   -12263095.571 8  -9555623.70923
  24669375.7714    5779349.94046   4503399.57161
  22418656.974     8813807.722 6   6867892.75522
  22403408.9584  -10741974.50347  -8273925.41062
 91  4 24 22  6 15.0010000  0  4G 2G11G19G 6
  21315827.794   -12266292.320 8  -9558114.65923
  24678184.2784    5825644.92146   4539473.60261
  22424773.825     8845974.140 6   6892957.44722
  22399023.9274  -10765019.36947  -8291882.38862
 91  4 24 22  6 30.0010000  0  4G 2G11G19G 6
  21315230.427   -12269430.658 8  -9560560.08923
  24687012.239     5872026.348 6   4575614.96721
  22430911.622     8878198.229 6   6918067.07422
  22394641.2164  -10788051.74947  -8309829.64062
 91  4 24 22  6 45.0010000  0  4G 2G11G19G 6
  21314644.3804  -12272509.41748  -9562959.09764
  24695852.5674    5918495.24546   4611824.47961
  22437048.169     8910481.386 6   6943222.72822
  22390260.0134  -10811070.31147  -8327766.11762
 91  4 24 22  7  0.0010000  0  4G 2G11G19G 6
  21314070.153   -12275527.689 8  -9565310.97524
  24704712.3804    5965052.27446   4648102.67561
  22443208.067     8942824.692 6   6968425.25322
  22385883.1384  -10834073.65947  -8345690.73862
 91  4 24 22  7 15.0010000  0  4G 2G11G19G 6
  21313508.5364  -12278482.12248  -9567613.09964
  24713589.0524    6011700.42446   4684451.88161
  22449370.396     8975231.619 6   6993677.35222
  22381508.5134  -10857058.54247  -8363600.97762
 91  4 24 22  7 30.0010000  0  4G 2G11G19G 6
  21312957.0134  -12281375.50848  -9569867.65764
  24722482.2714    6058436.48846   4720869.59261
  22455549.021     9007699.231 6   7018976.74022
  22377137.6924  -10880027.58347  -8381498.86862
 91  4 24 22  7 45.0010000  0  4G 2G11G19G 6
  21312417.4424  -12284209.73548  -9572076.11564
  24731394.2714    6105258.32246   4757354.13961
  22461737.786     9040225.760 6   7044322.03622
  22372769.130   -10902982.395 7  -8399385.67822
 91  4 24 22  8  0.0010000  0  4G 2G11G19G 6
  21311890.153   -12286983.452 8  -9574237.43024
  24740321.435     6152167.175 6   4793906.49021
  22467944.9504    9072812.79246   7069714.47562
  22368403.739   -10925921.218 7  -8417260.02922
 91  4 24 22  8 15.0010000  0  4G 2G11G19G 6
  21311374.271   -12289695.976 8  -9576351.06424
  24749265.1384    6199163.44545   4830526.97661
  22474151.849     9105461.239 6   7095154.77422
  22364043.9814  -10948843.25747  -8435121.29962
 91  4 24 22  8 30.0010000  0  4G 2G11G19G 6
  21310869.317   -12292344.662 8  -9578414.94624
  24758221.474     6246249.344 5   4867217.29421
  22480379.122     9138173.483 6   7120644.78422
  22359686.9424  -10971745.78447  -8452967.36362
 91  4 24 22  8 45.0010000  0  4G 2G11G19G 6
  21310376.4194  -12294934.00348  -9580432.58664
  24767197.958     6293420.281 5   4903973.88421
  22486615.622     9170945.498 6   7146181.36622
  22355330.3494  -10994632.80447  -8470801.34362
 91  4 24 22  9  0.0010000  0  4G 2G11G19G 6
  21309895.528   -12297458.185 8  -9582399.45824
  24776192.1614    6340681.76645   4940801.01661
  22492864.599     9203782.990 6   7171768.97422
  22350978.3334  -11017498.45647  -8488618.67662
 91  4 24 22  9 15.0010000  0  4G 2G11G19G 6
  21309427.3724  -12299924.87448  -9584321.52364
  24785207.5754    6388026.02345   4977692.65561
  22499121.247     9236678.428 6   7197401.73022
  22346629.692   -11040350.115 7  -8506425.11122
 91  4 24 22  9 30.0010000  0  4G 2G11G19G 6
  21308969.380   -12302331.812 8  -9586197.03324
  24794228.185     6435454.709 5   5014650.08421
  22505394.919     9269634.107 6   7223081.43022
  22342284.1774  -11063185.39447  -8524218.77162
 91  4 24 22  9 45.0010000  0  4G 2G11G19G 6
  21308522.6534  -12304680.31048  -9588027.00164
  24803270.7784    6482966.32745   5051672.14361
  22511675.489     9302648.732 6   7248807.05622
  22337942.3024  -11086005.43847  -8542000.56662
 91  4 24 22 10  0.0010000  0  4G 2G11G19G 6
  21308087.3724  -12306967.21548  -9589808.97863
  24812326.6854    6530563.73545   5088761.05461
  22517971.161     9335725.547 6   7274581.15322
  22333602.5214  -11108806.90147  -8559767.87662
 91  4 24 22 10 15.0010000  0  4G 2G11G19G 6
  21307662.9274  -12309190.92148  -9591541.70564
  24821398.3494    6578248.21845   5125917.79761
  22524276.458     9368866.257 6   7300405.03022
  22329267.2004  -11131587.91547  -8577519.25462
 91  4 24 22 10 30.0010000  0  4G 2G11G19G 6
  21307251.2634  -12311352.81848  -9593226.27564
  24830493.396     6626018.222 5   5163141.17421
  22530596.372     9402069.639 6   7326277.74222
  22324937.692   -11154349.460 7  -8595255.46822
 91  4 24 22 10 45.0010000  0  4G 2G11G19G 6
  21306852.5134  -12313450.02448  -9594860.43563
  24839601.411     6673876.502 5   5200433.35521
  22536926.380     9435338.667 6   7352201.60722
  22320607.9814  -11177088.53047  -8612974.16162
 91  4 24 22 11  0.0010000  0  4G 2G11G19G 6
  21306465.9194  -12315483.97448  -9596445.30164
  24848724.0674    6721821.30945   5237792.94261
  22543273.083     9468671.990 6   7378175.57022
  22316285.052   -11199806.234 7  -8630676.21722
 91  4 24 22 11 15.0010000  0  4G 2G11G19G 6
  21306089.9274  -12317452.33648  -9597979.05963
  24857861.888     6769854.573 5   5275221.47021
  22549625.849     9502071.838 6   7404201.37722
  22311966.4744  -11222500.24447  -8648359.80262
 91  4 24 22 11 30.0010000  0  4G 2G11G19G 6
  21305727.7244  -12319358.08648  -9599464.03163
  24867017.997     6817972.995 5   5312716.38221
  22555997.067     9535535.474 6   7430276.88522
  22307652.005   -11245173.220 7  -8666026.99622
 91  4 24 22 11 45.0010000  0  4G 2G11G19G 6
  21305378.3804  -12321200.29448  -9600899.48863
  24876192.0674    6866177.39145   5350278.24461
  22562372.192     9569063.917 6   7456402.88622
  22303342.2784  -11267823.90747  -8683676.81862
 91  4 24 22 12  0.0010000  0  4G 2G11G19G 6
  21305038.7084  -12322981.93148  -9602287.74664
  24885381.0364    6914464.47345   5387904.54761
  22568765.919     9602654.367 6   7482577.21222
  22299036.1224  -11290455.16047  -8701311.50062
 91  4 24 22 12 15.0010000  0  4G 2G11G19G 6
  21304711.927   -12324701.787 8  -9603627.86624
  24894587.2864    6962835.10245   5425595.94461
  22575168.817     9636308.071 6   7508800.82222
  22294732.771   -11313065.470 7  -8718929.86822
 91  4 24 22 12 30.0010000  0  4G 2G11G19G 6
  21304396.2164  -12326356.60948  -9604917.30864
  24903808.8964    7011292.19945   5463354.69161
  22581589.6614    9670028.29746   7535076.26662
  22290436.7554  -11335651.30947  -8736529.16562
 91  4 24 22 12 45.0010000  0  4G 2G11G19G 6
  21304093.9894  -12327948.54348  -9606157.74864
  24913043.763     7059833.367 5   5501178.96621
  22588014.7864    9703812.92246   7561401.89362
  22286141.8494  -11358214.76247  -8754111.01962
 91  4 24 22 13  0.0010000  0  4G 2G11G19G 6
  21303802.9974  -12329475.65548  -9607347.67864
  24922298.4424    7108460.32245   5539070.10261
  22594461.341     9737664.093 6   7587779.37922
  22281851.935   -11380753.677 7  -8771673.75922
 91  4 24 22 13 15.0010000  0  4G 2G11G19G 6
  21303524.2634  -12330937.38748  -9608486.66164
  24931567.075     7157173.257 5   5577028.24621
  22600912.0524    9771582.36946   7614209.14562
  22277569.4114  -11403267.26647  -8789216.75862
 91  4 24 22 13 30.0010000  0  4G 2G11G19G 6
  21303258.5214  -12332333.26148  -9609574.32664
  24940853.091     7205972.387 5   5615053.58621
  22607380.0284    9805568.31846   7640691.65062
  22273288.7714  -11425754.76647  -8806739.42462
 91  4 24 22 13 45.0010000  0  4G 2G11G19G 6
  21303007.6304  -12333659.54448  -9610607.76464
  24950159.2714    7254861.15445   5653148.73261
  22613860.4194    9839625.76646   7667229.86462
  22269015.9274  -11448212.24947  -8824238.70062
 91  4 24 22 14  0.0010000  0  4G 2G11G19G 6
  21302766.4114  -12334920.64548  -9611590.40864
  24959480.6854    7303834.83345   5691310.02461
  22620356.794     9873750.369 6   7693820.41222
  22264747.3334  -11470643.85847  -8841717.82362
 91  4 24 22 14 15.0010000  0  4G 2G11G19G 6
  21302540.364   -12336115.273 8  -9612521.26524
  24968811.3334    7352894.49345   5729538.32061
  22626862.005     9907943.541 6   7720464.38622
  22260484.778   -11493048.041 7  -8859175.56922
 91  4 24 22 14 30.0010000  0  4G 2G11G19G 6
  21302325.7314  -12337243.52948  -9613400.39564
  24978163.7784    7402039.82145   5767833.37261
  22633384.216     9942205.297 6   7747161.80422
  22256224.380   -11515424.672 7  -8876611.85322
 91  4 24 22 14 45.0010000  0  4G 2G11G19G 6
  21302122.614   -12338304.579 8  -9614227.16124
  24987533.075     7451271.293 5   5806195.54721
  22639911.7634    9976536.41646   7773913.26362
  22251973.403   -11537772.679 7  -8894025.83722
 91  4 24 22 15  0.0010000  0  4G 2G11G19G 6
  21301932.083   -12339300.881 8  -9615003.47523
  24996915.325     7500586.260 5   5844622.80121
  22646461.685    10010934.610 6   7800716.99222
  22247724.942   -11560094.325 7  -8911419.27322
 91  4 24 22 15 15.0010000  0  4G 2G11G19G 6
  21301756.161   -12340230.562 8  -9615727.87623
  25006317.3104    7549986.21645   5883116.27261
  22653019.3104   10045401.86846   7827574.53462
  22243482.513   -11582387.433 7  -8928790.47722
 91  4 24 22 15 30.0010000  0  3G 2G19G 6
  21301592.2944  -12341092.76448  -9616399.69463
  22659590.3414   10079939.05946   7854486.57062
  22239246.731   -11604650.995 7  -8946138.65022
 91  4 24 22 15 45.0010000  0  3G 2G19G 6
  21301440.9274  -12341890.17248  -9617021.02263
  22666176.4354   10114543.63946   7881451.11962
  22235016.0444  -11626887.36447  -8963465.63362
 91  4 24 22 16  0.0010000  0  3G 2G19G 6
  21301300.6224  -12342621.51348  -9617590.87164
  22672778.536    10149216.930 6   7908469.21522
  22230790.2714  -11649094.98747  -8980770.21562
 91  4 24 22 16 15.0010000  0  3G 2G19G 6
  21301174.872   -12343283.941 8  -9618107.02324
  22679386.5604   10183961.75646   7935543.04562
  22226568.646   -11671270.790 7  -8998050.01022
 91  4 24 22 16 30.0010000  0  3G 2G19G 6
  21301059.614   -12343885.843 8  -9618576.01424
  22686016.6464   10218770.07046   7962666.34661
  22222353.411   -11693423.010 7  -9015311.42622
 91  4 24 22 16 45.0010000  0  3G 2G19G 6
  21300958.216   -12344426.794 8  -9618997.50924
  22692645.2634   10253642.17846   7989839.35762
  22218142.286   -11715550.964 7  -9032553.93422
 91  4 24 22 17  0.0010000  0  3G 2G19G 6
  21300864.8024  -12344906.27748  -9619371.10664
  22699294.950    10288578.778 6   8017062.62622
  22213937.146   -11737653.916 7  -9049776.95622
 91  4 24 22 17 15.0010000  0  3G 2G19G 6
  21300787.5604  -12345321.32248  -9619694.49163
  22705954.8724   10323582.86746   8044338.47762
  22209735.677   -11759728.517 7  -9066977.89122
 91  4 24 22 17 30.0010000  0  3G 2G19G 6
  21300718.6144  -12345679.06948  -9619973.22564
  22712630.2004   10358647.16546   8071661.25062
  22205538.489   -11781781.854 7  -9084162.25922
 91  4 24 22 17 45.0010000  0  3G 2G19G 6
  21300663.2474  -12345974.89648  -9620203.71264
  22719313.5834   10393776.63746   8099034.80362
  22201347.333   -11803809.084 7  -9101326.28222
 91  4 24 22 18  0.0010000  0  3G 2G19G 6
  21300616.646   -12346212.204 8  -9620388.60324
  22726012.0444   10428967.99246   8126456.58462
  22197159.005   -11825813.109 7  -9118472.22922
 91  4 24 22 18 15.0010000  0  3G 2G19G 6
  21300585.396   -12346387.319 8  -9620525.03023
  22732718.4814   10464225.09446   8153929.59162
  22192977.341   -11847790.101 7  -9135597.10522
 91  4 24 22 18 30.0010000  0  3G 2G19G 6
  21300564.1224  -12346501.74648
  22739445.208    10499546.189 6   8181452.46822
  22188801.622   -11869741.449 7  -9152702.00522
 91  4 24 22 18 45.0010000  0  3G 2G19G 6
  21300554.4974  -12346552.95148
  22746173.942    10534933.813 6   8209027.18522
  22184628.911   -11891664.458 7  -9169784.81422
 91  4 24 22 19  0.0010000  0  3G 2G19G 6
  21300556.4894  -12346542.72548
  22752925.864    10570386.600 6   8236652.67522
  22180461.786   -11913560.383 7  -9186846.52222
 91  4 24 22 19 15.0010000  0  3G 2G19G 6
  21300568.0134  -12346470.36248
  22759678.0284   10605905.22046   8264329.46462
  22176300.747   -11935428.329 7  -9203886.42922
 91  4 24 22 19 30.0010000  0  3G 2G19G 6
  21300595.763   -12346334.705 8
  22766454.9894   10641490.74246   8292058.38362
  22172145.146   -11957267.186 7  -9220903.67222
 91  4 24 22 19 45.0010000  0  3G 2G19G 6
  21300634.138   -12346137.056 8
  22773235.5994   10677142.13246   8319838.61962
  22167994.114   -11979077.718 7  -9237898.84422
 91  4 24 22 20  0.0010000  0  3G 2G19G 6
  21300680.153   -12345879.544 8  -9620129.19724
  22780033.1854   10712857.37546   8347668.61062
  22163848.067   -12000861.826 7  -9254873.42222
 91  4 24 22 20 15.0010000  0  3G 2G19G 6
  21300744.177   -12345560.626 8  -9619880.66624
  22786838.9034   10748637.89946   8375549.47762
  22159708.161   -12022617.767 7  -9271826.05022
 91  4 24 22 20 30.0010000  0  3G 2G19G 6
  21300815.646   -12345181.906 8  -9619585.53724
  22793664.1534   10784482.04146   8403479.91462
  22155573.755   -12044346.989 7  -9288757.86222
 91  4 24 22 20 45.0010000  0  3G 2G19G 6
  21300897.302   -12344741.734 8  -9619242.52424
  22800495.3644   10820391.62446   8431461.33562
  22151443.513   -12066047.473 7  -9305667.28322
 91  4 24 22 21  0.0010000  0  3G 2G19G 6
  21300994.075   -12344239.685 8  -9618851.29624
  22807342.7084   10856367.10746   8459494.12162
  22147320.302   -12087718.682 7  -9322553.89922
 91  4 24 22 21 15.0010000  0  3G 2G19G 6
  21301099.200   -12343682.562 8  -9618417.15124
  22814199.9584   10892401.97346   8487573.16962
  22143201.4354  -12109367.15747  -9339422.80162
 91  4 24 22 21 30.0010000  0  3G 2G19G 6
  21301217.028   -12343066.742 8  -9617937.26724
  22821071.0754   10928499.87246   8515701.33962
  22139085.755   -12130988.852 7  -9356270.82822
 91  4 24 22 21 45.0010000  0  3G 2G19G 6
  21301342.778   -12342393.303 8  -9617412.48824
  22827951.0134   10964659.76946   8543877.81862
  22134977.247   -12152584.648 7  -9373098.67722
 91  4 24 22 22  0.0010000  0  3G 2G19G 6
  21301483.638   -12341663.115 8  -9616843.48623
  22834843.3024   11000880.81046   8572101.94762
  22130872.4664  -12174155.28247  -9389906.92062
 91  4 24 22 22 15.0010000  0  3G 2G19G 6
  21301630.935   -12340882.201 8  -9616234.96024
  22841743.1304   11037156.99746   8600369.04461
  22126772.177   -12195706.407 7  -9406699.95922
 91  4 24 22 22 30.0010000  0  3G 2G19G 6
  21301790.981   -12340043.644 8  -9615581.52024
  22848662.8254   11073495.31246   8628684.55361
  22122674.450   -12217230.883 7  -9423472.23622
 91  4 24 22 22 45.0010000  0  3G 2G19G 6
  21301961.747   -12339143.689 8  -9614880.23524
  22855585.739    11109899.721 6   8657051.56422
  22118584.966   -12238724.585 7  -9440220.53322
 91  4 24 22 23  0.0010000  0  3G 2G19G 6
  21302145.138   -12338183.214 8  -9614131.79324
  22862527.3804   11146369.16746   8685469.24861
  22114500.317   -12260188.326 7  -9456945.48422
 91  4 24 22 23 15.0010000  0  3G 2G19G 6
  21302338.966   -12337160.959 8  -9613335.20924
  22869478.2084   11182904.94246   8713938.62261
  22110421.2784  -12281620.62247  -9473645.93562
 91  4 24 22 23 30.0010000  0  3G 2G19G 6
  21302545.950   -12336078.873 8  -9612492.00524
  22876445.8494   11219505.32046   8742458.33661
  22106349.388   -12303023.076 7  -9490323.12922
 91  4 24 22 23 45.0010000  0  3G 2G19G 6
  21302764.083   -12334932.661 8  -9611598.83324
  22883425.0914   11256174.72546   8771031.82961
  22102282.7634  -12324391.11947  -9506973.51162
 91  4 24 22 24  0.0010000  0  3G 2G19G 6
  21302993.161   -12333723.314 8  -9610656.46424
  22890413.8564   11292912.24046   8799658.40461
  22098223.5444  -12345725.54847  -9523597.70162
 91  4 24 22 24 15.0010000  0  3G 2G19G 6
  21303236.896   -12332448.977 8  -9609663.45623
  22897416.8564   11329719.98846   8828339.69161
  22094169.263   -12367024.087 7  -9540193.92822
 91  4 24 22 24 30.0010000  0  3G 2G19G 6
  21303492.716   -12331107.788 8  -9608618.35623
  22904438.0994   11366599.65646   8857077.02962
  22090124.2314  -12388284.61847  -9556760.53362
 91  4 24 22 24 45.0010000  0  3G 2G19G 6
  21303760.216   -12329699.152 8  -9607520.69723
  22911466.2474   11403551.97446   8885870.98061
  22086085.6614  -12409506.35647  -9573296.91262
 91  4 24 22 25  0.0010000  0  3G 2G19G 6
  21304040.200   -12328226.987 8  -9606373.53623
  22918514.4814   11440573.09146   8914718.54061
  22082053.638   -12430692.850 7  -9589805.82822
 91  4 24 22 25 15.0010000  0  3G 2G19G 6
  21304334.458   -12326684.811 8  -9605171.82023
  22925571.9274   11477669.57246   8943624.82361
  22078030.849   -12451837.438 7  -9606282.08422
 91  4 24 22 25 30.0010000  0  3G 2G19G 6
  21304640.458   -12325073.010 8  -9603915.84923
  22932649.1854   11514840.81146   8972589.36461
  22074015.3724  -12472940.44247  -9622725.94362
 91  4 24 22 25 45.0010000  0  3G 2G19G 6
  21304959.192   -12323392.114 8  -9602606.04723
  22939732.9114   11552086.50646   9001611.92061
  22070006.9664  -12494002.00847  -9639137.51662
 91  4 24 22 26  0.0010000  0  3G 2G19G 6
  21305292.239   -12321645.224 8  -9601244.81424
  22946836.8494   11589403.40346   9030689.94961
  22066006.817   -12515024.854 7  -9655518.91223
 91  4 24 22 26 15.0010000  0  3G 2G19G 6
  21305635.864   -12319838.517 8  -9599836.96924
  22953947.497    11626785.551 6   9059818.82921
  22062011.5444  -12536015.00647  -9671874.83663
 91  4 24 22 26 30.0010000  0  3G 2G19G 6
  21305993.091   -12317966.088 8  -9598377.91724
  22961074.3254   11664239.07946   9089003.33361
  22058025.169   -12556966.188 7  -9688200.38623
 91  4 24 22 26 45.0010000  0  3G 2G19G 6
  21306359.872   -12316032.782 8  -9596871.42124
  22968214.1924   11701759.03946   9118239.59561
  22054045.0364  -12577883.15247  -9704499.28062
 91  4 24 22 27  0.0010000  0  3G 2G19G 6
  21306740.028   -12314037.480 8  -9595316.62223
  22975369.271    11739346.750 6   9147528.64421
  22050070.9584  -12598764.49847  -9720770.42663
 91  4 24 22 27 15.0010000  0  3G 2G19G 6
  21307131.544   -12311981.902 8  -9593714.85323
  22982531.6924   11777000.51246   9176869.17261
  22046103.5674  -12619611.44447  -9737014.75862
 91  4 24 22 27 30.0010000  0  3G 2G19G 6
  21307533.653   -12309868.793 8  -9592068.25323
  22989712.552    11814717.547 6   9206258.99021
  22042143.2084  -12640426.59547  -9753234.31962
 91  4 24 22 27 45.0010000  0  3G 2G19G 6
  21307945.724   -12307701.154 8  -9590379.16324
  22996896.716    11852494.956 6   9235695.86021
  22038187.716   -12661212.682 7  -9769431.22423
 91  4 24 22 28  0.0010000  0  3G 2G19G 6
  21308367.521   -12305481.206 8  -9588649.31524
  23004099.817    11890330.257 6   9265177.84221
  22034236.724   -12681971.918 7  -9785607.20223
 91  4 24 22 28 15.0010000  0  4G13G 2G19G 6
  24589328.5754         -0.80254
  21308800.005   -12303205.777 8  -9586876.23124
  23011309.560    11928226.778 6   9294707.52021
  22030292.185   -12702700.811 7  -9801759.53723
 91  4 24 22 28 30.0010000  0  4G13G 2G19G 6
  24578839.9814     -55124.13444
  21309244.911   -12300872.105 8  -9585057.76623
  23018540.106    11966187.411 6   9324287.15621
  22026355.278   -12723396.135 7  -9817885.71123
 91  4 24 22 28 45.0010000  0  5G13G 2G15G19G 6
  24568357.2784    -110225.80744
  21309700.239   -12298483.328 8  -9583196.35624
  24764932.0284         -0.32455
  23025769.966    12004209.402 6   9353914.60921
  22022421.763   -12744060.536 7  -9833987.79823
 91  4 24 22 29  0.0010000  0  5G13G 2G15G19G 6
  24557884.6144    -165299.42445
  21310165.739   -12296033.514 8  -9581287.39024
  24761156.6534     -19823.70645
  23033023.1464   12042298.52146   9383594.38061
  22018497.067   -12764688.181 7  -9850061.24523
 91  4 24 22 29 15.0010000  0  5G13G 2G15G19G 6
  24547407.9194    -220349.43045
  21310642.981   -12293527.633 8  -9579334.73524
  24757399.5214     -39563.02745
  23040278.974    12080449.797 6   9413322.56321
  22014575.849   -12785283.874 7  -9866109.79023
 91  4 24 22 29 30.0010000  0  5G13G 2G15G19G 6
  24536931.0834    -275371.54645
  21311131.599   -12290961.635 8  -9577335.23624
  24753662.739      -59213.719 5
  23047552.864    12118667.335 6   9443102.38721
  22010663.060   -12805842.889 7  -9882129.75423
 91  4 24 22 29 45.0020000  0  5G13G 2G15G19G 6
  24526464.3854    -330370.34545
  21311630.783   -12288336.936 8  -9575289.99924
  24749938.4554     -78778.15945
  23054836.3224   12156952.07746   9472934.58461
  22006758.033   -12826368.161 7  -9898123.42523
 91  4 24 22 30  0.0020000  0  5G13G 2G15G19G 6
  24516004.9634    -385337.70345
  21312141.268   -12285653.642 8  -9573199.10424
  24746234.4244     -98253.12145        -0.46871
  23062134.768    12195299.404 6   9502815.53921
  22002859.002   -12846856.473 7  -9914088.29623
 91  4 24 22 30 15.0020000  0  5G13G 2G15G19G 6
  24505551.111     -440271.219 5
  21312664.502   -12282906.031 8  -9571058.09023
  24742545.416     -117633.947 5    -15102.31221
  23069443.908    12233717.626 6   9532751.74221
  21998968.658   -12867303.208 7  -9930020.77423
 91  4 24 22 30 30.0020000  0  5G13G 2G15G19G 6
  24495105.4244    -495169.15245
  21313198.830   -12280092.925 8  -9568866.03623
  24738870.1894    -136919.40845    -30129.84361
  23076771.760    12272207.739 6   9562743.95921
  21995086.885   -12887706.961 7  -9945919.75623
 91  4 24 22 30 45.0020000  0  5G13G 2G15G19G 6
  24484664.4084    -550033.87045        -0.00271
  21313746.471   -12277217.004 8  -9566625.03723
  24735222.033     -156111.728 5    -45084.80121
  23084106.557    12310766.991 6   9592790.05321
  21991212.096   -12908070.212 7  -9961787.18023
 91  4 24 22 31  0.0020000  0  5G13G 2G15G19G 6
  24474230.3614    -604863.95044    -42724.32261
  21314305.502   -12274277.048 8  -9564334.14623
  24731590.674     -175208.903 5    -59965.60621
  23091461.221    12349396.687 6   9622891.04521
  21987343.080   -12928391.480 7  -9977621.88923
 91  4 24 22 31 15.0020000  0  5G13G 2G15G19G 6
  24463806.557     -659660.031 5    -85422.10721
  21314877.338   -12271274.092 8  -9561994.16623
  24727972.713     -194211.804 5    -74772.95221
  23098819.643    12388095.828 6   9653046.13521
  21983485.072   -12948671.628 7  -9993424.55423
 91  4 24 22 31 30.0020000  0  5G13G 2G15G19G 6
  24453380.0414    -714418.51745   -128090.65661
  21315462.283   -12268205.264 8  -9559602.85423
  24724372.236     -213117.305 5    -89504.42621
  23106204.916    12426867.110 6   9683257.45021
  21979634.385   -12968907.300 7 -10009192.56323
 91  4 24 22 31 45.0020000  0  5G13G 2G15G19G 6
  24442961.4714    -769140.89244   -170731.06761
  21316058.096   -12265072.531 8  -9557161.74823
  24720794.025     -231926.919 5   -104161.16121
  23113590.119    12465708.899 6   9713523.70021
  21975791.525   -12989100.212 7 -10024927.25223
 91  4 24 22 32  0.0020000  0  5G13G 2G15G19G 6
  24432554.111     -823823.815 4   -213340.71221
  21316666.838   -12261872.878 8  -9554668.49524
  24717231.7684    -250636.92445   -118740.28661
  23120999.572    12504624.359 6   9743847.35421
  21971958.260   -13009247.246 7 -10040626.19523
 91  4 24 22 32 15.0020000  0  5G13G 2G15G19G 6
  24422162.7914    -878466.66044   -255919.12961
  21317287.947   -12258606.035 8  -9552122.88624
  24713691.7364    -269246.90545   -133241.47461
  23128416.346    12543613.769 6   9774228.63521
  21968131.775   -13029347.812 7 -10056288.93123
 91  4 24 22 32 30.0020000  0  5G13G 2G15G19G 6
  24411771.541     -933074.724 4   -298470.47821
  21317921.635   -12255278.013 8  -9549529.60724
  24710163.7134    -287762.06345   -147668.77061
  23135847.197    12582671.211 6   9804662.92521
  21964316.1354  -13049407.41347 -10071919.74963
 91  4 24 22 32 45.0020000  0  5G13G 2G15G19G 6
  24401385.9084    -987653.75044   -340999.15361
  21318564.721   -12251894.911 8  -9546893.40824
  24706654.6194    -306188.05945   -162026.60461
  23143291.869    12621790.709 6   9835145.57721
  21960505.8854  -13069431.84347 -10087523.16363
 91  4 24 22 33  0.0020000  0  5G13G 2G15G19G 6
  24391001.150    -1042198.342 4   -383501.03521
  21319220.393   -12248451.654 8  -9544210.32824
  24703171.1894    -324519.59045   -176310.81861
  23150752.658    12660977.235 6   9865680.45921
  21956702.6194  -13089415.89047 -10103095.11063
 91  4 24 22 33 15.0020000  0  5G13G 2G15G19G 6
  24380625.7214   -1096712.78244   -425979.39261
  21319886.025   -12244953.044 8  -9541484.12523
  24699700.908     -342761.016 5   -190524.82321
  23158221.768    12700225.990 6   9896263.82521
  21952905.5024  -13109364.12347 -10118639.15263
 91  4 24 22 33 30.0020000  0  5G13G 2G15G19G 6
  24370254.2364   -1151198.64344   -468435.50461
  21320561.775   -12241401.138 8  -9538716.38523
  24696248.221     -360914.349 5   -204670.19621
  23165701.275    12739534.911 6   9926894.07521
  21949116.4244  -13129278.49547 -10134156.80063
 91  4 24 22 33 45.0020000  0  5G13G 2G15G19G 6
  24359896.244    -1205657.020 5   -510870.22421
  21321247.666   -12237797.675 8  -9535908.47423
  24692810.3614    -378980.89145   -218747.93061
  23173189.088    12778902.222 6   9957569.82321
  21945332.189   -13149160.301 7 -10149649.07523
 91  4 24 22 34  0.0020000  0  5G13G 2G15G19G 6
  24349542.236    -1260088.722 5   -553284.18921
  21321943.268   -12234143.879 8  -9533061.34424
  24689387.611     -396961.296 5   -232758.53521
  23180695.893    12818326.996 6   9988290.35121
  21941555.502   -13169010.248 7 -10165116.52423
 91  4 24 22 34 15.0020000  0  5G13G 2G15G19G 6
  24339189.1894   -1314492.02545   -595675.91761
  21322648.432   -12230438.381 8  -9530173.93223
  24685979.783     -414853.798 5   -246700.64421
  23188204.986    12857810.505 6  10019056.63121
  21937784.807   -13188827.108 7 -10180558.19223
 91  4 24 22 34 30.0020000  0  5G13G 2G15G19G 6
  24328840.3384   -1368867.74245   -638046.20361
  21323362.010   -12226682.535 8  -9527247.28424
  24682593.393     -432659.173 5   -260574.88721
  23195733.080    12897351.455 6  10049867.69121
  21934019.2994  -13208611.72547 -10195974.73663
 91  4 24 22 34 45.0020000  0  5G13G 2G15G19G 6
  24318494.627    -1423212.310 5   -680392.24021
  21324086.627   -12222873.062 8  -9524278.85124
  24679223.5254    -450374.03345   -274378.58461
  23203266.9714   12936953.00946  10080725.97361
  21930261.8774  -13228360.70047 -10211363.50663
 91  4 24 22 35  0.0020000  0  5G13G 2G15G19G 6
  24308161.799    -1477526.342 5   -722714.47821
  21324822.768   -12219011.008 8  -9521269.44424
  24675861.744     -467998.762 5   -288112.04621
  23210819.400    12976614.306 6  10111630.80221
  21926510.0724  -13248074.51047 -10226724.87963
 91  4 24 22 35 15.0020000  0  5G13G 2G15G19G 6
  24297829.3694   -1531804.19145   -765008.52161
  21325568.986   -12215091.378 8  -9518215.17024
  24672534.8934    -485528.03045   -301771.12661
  23218373.2134   13016340.39446  10142586.11061
  21922766.127   -13267748.092 7 -10242054.90023
 91  4 24 22 35 30.0020000  0  5G13G 2G15G19G 6
  24287507.283    -1586047.785 5   -807275.83321
  21326324.018   -12211116.683 8  -9515117.98824
  24669211.299     -502964.156 5   -315357.61021
  23225945.791    13056128.810 6  10173589.99621
  21919029.330   -13287383.678 7 -10257355.31423
 91  4 24 22 35 45.0020000  0  5G13G 2G15G19G 6
  24277196.6744   -1640257.22045   -849516.57061
  21327091.104   -12207087.271 8  -9511978.16624
  24665909.447     -520307.244 5   -328871.62921
  23233528.064    13095979.103 6  10204642.09121
  21915300.0804  -13306981.34047 -10272626.18163
 91  4 24 22 36  0.0020000  0  5G13G 2G15G19G 6
  24266885.7054   -1694434.32945   -891732.10161
  21327868.369   -12203005.329 8  -9508797.41524
  24662624.4864    -537559.00245   -342314.47261
  23241125.1744   13135889.24446  10235740.81261
  21911578.1664  -13326542.93947 -10287868.94263
 91  4 24 22 36 15.0020000  0  5G13G 2G15G19G 6
  24256578.189    -1748577.058 5   -933920.80121
  21328655.979   -12198869.363 8  -9505574.57224
  24659366.689     -554717.198 5   -355684.41521
  23248728.260    13175860.634 6  10266887.27121
  21907862.9794  -13346066.80147 -10303082.30563
 91  4 24 22 36 30.0020000  0  5G13G 2G15G19G 6
  24246279.8544   -1802679.48445   -976078.20661
  21329453.729   -12194674.135 8  -9502305.54824
  24656117.369     -571776.364 5   -368977.19721
  23256352.2834   13215898.74246  10298085.71461
  21904154.3614  -13365547.22447 -10318261.82063
 91  4 24 22 36 45.0020000  0  5G13G 2G15G19G 6
  24235997.150    -1856741.626 5  -1018204.12321
  21330262.924   -12190419.825 8  -9498990.48424
  24652892.166     -588736.360 5   -382192.70021
  23263981.236    13256003.372 6  10329335.99221
  21900456.8224  -13384984.14447 -10333407.43263
 91  4 24 22 37  0.0020000  0  5G13G 2G15G19G 6
  24225717.5334   -1910765.47645  -1060300.25561
  21331083.971   -12186109.062 8  -9495631.43323
  24649680.010     -605599.133 5   -395332.43721
  23271626.7994   13296171.95446  10360636.09261
  21896765.494   -13404379.800 7 -10348520.88423
 91  4 24 22 37 15.0020000  0  5G13G 2G15G19G 6
  24215448.3144   -1964748.41445  -1102364.50461
  21331915.150   -12181739.612 8  -9492226.64824
  24646490.893     -622362.203 5   -408394.48821
  23279277.377    13336406.608 6  10391987.70621
  21893084.096   -13423731.731 7 -10363600.26823
 91  4 24 22 37 30.0020000  0  5G13G 2G15G19G 6
  24205178.619    -2018690.812 5  -1144397.10321
  21332757.900   -12177312.245 8  -9488776.73724
  24643325.1664    -639026.17445   -421379.31761
  23286951.2364   13376706.50146  10423390.12361
  21889409.127   -13443040.625 7 -10378646.11023
 91  4 24 22 37 45.0020000  0  5G13G 2G15G19G 6
  24194917.135    -2072592.759 5  -1186398.27021
  21333610.713   -12172827.584 8  -9485282.18023
  24640172.1274    -655590.95345   -434286.84961
  23294630.3934   13417071.13846  10454842.99261
  21885742.783   -13462306.611 7 -10393658.52423
 91  4 24 22 38  0.0020000  0  5G13G 2G15G19G 6
  24184667.635    -2126448.892 5  -1228363.68621
  21334476.424   -12168280.709 8  -9481739.14524
  24637037.861     -672051.482 5   -447113.15621
  23302329.7684   13457505.65846  10486350.33061
  21882085.783   -13481524.746 7 -10408633.65123
 91  4 24 22 38 15.0020000  0  5G13G 2G15G19G 6
  24174433.6354   -2180259.11845  -1270293.34661
  21335353.713   -12163672.008 8  -9478147.93524
  24633925.814     -688407.820 5   -459858.28021
  23310033.2364   13498009.72646  10517911.85261
  21878437.2604  -13500694.93047 -10423571.42063
 91  4 24 22 38 30.0020000  0  5G13G 2G15G19G 6
  24164200.947    -2234027.023 5  -1312190.02521
  21336241.096   -12159005.255 8  -9474511.48524
  24630832.1974    -704663.28745   -472524.78461
  23317752.713    13538579.395 6  10549524.49821
  21874798.6744  -13519820.59247 -10438474.49263
 91  4 24 22 38 45.0020000  0  5G13G 2G15G19G 6
  24153977.697    -2287753.476 5  -1354054.40321
  21337140.283   -12154282.054 8  -9470831.05324
  24627759.885     -720819.036 5   -485113.58821
  23325485.9084   13579213.19846  10581187.11561
  21871166.8304  -13538903.24947 -10453344.05563
 91  4 24 22 39  0.0020000  0  5G13G 2G15G19G 6
  24143761.2914   -2341439.10945  -1395886.99361
  21338048.760   -12149503.544 8  -9467107.52124
  24624705.1354    -736875.92345   -497625.35461
  23333230.0024   13619909.98846  10612898.80861
  21867543.525   -13557943.564 7 -10468180.61923
 91  4 24 22 39 15.0020000  0  5G13G 2G15G19G 6
  24133550.9864   -2395084.02745  -1437687.83461
  21338970.346   -12144670.131 8  -9463341.20424
  24621664.033     -752833.879 5   -510060.04521
  23340987.9474   13660669.41946  10644659.31261
  21863927.354   -13576941.630 7 -10482984.26423
 91  4 24 22 39 30.0020000  0  5G13G 2G15G19G 6
  24123350.5104   -2448689.93845  -1479458.30261
  21339898.986   -12139784.063 8  -9459533.86024
  24618648.549     -768694.717 5   -522419.04621
  23348756.2524   13701489.00546  10676466.68861
  21860320.5964  -13595899.69047 -10497756.74163
 91  4 24 22 39 45.0020000  0  5G13G 2G15G19G 6
  24113159.861    -2502255.490 5  -1521197.33521
  21340838.705   -12134844.430 8  -9455684.78224
  24615649.361     -784457.019 5   -534701.28821
  23356532.7524   13742369.95546  10708321.88061
  21856721.1974  -13614816.36747 -10512496.97063
 91  4 24 22 40  0.0020000  0  5G13G 2G15G19G 6
  24102969.775    -2555784.025 5  -1562907.47221
  21341788.400   -12129855.272 8  -9451797.10724
  24612665.010     -800124.442 5   -546909.58021
  23364324.9554   13783308.49746  10740221.95261
  21853129.3384  -13633695.10047 -10527207.63463
 91  4 24 22 40 15.0020000  0  5G13G 2G15G19G 6
  24092791.393    -2609276.602 5  -1604589.63121
  21342746.221   -12124817.863 8  -9447871.84224
  24609703.3694    -815698.24045   -559044.90361
  23372123.2524   13824303.00546  10772165.63061
  21849542.5494  -13652537.17747 -10541889.73463
 91  4 24 22 40 30.0020000  0  5G13G 2G15G19G 6
  24082614.830    -2662731.564 5  -1646242.46721
  21343714.830   -12119730.937 8  -9443907.98924
  24606756.197     -831176.671 5   -571105.94021
  23379936.8614   13865354.93546  10804154.06161
  21845965.346   -13671341.132 7 -10556542.12223
 91  4 24 22 40 45.0020000  0  5G13G 2G15G19G 6
  24072450.0184   -2716145.04345  -1687862.98661
  21344693.494   -12114591.009 8  -9439902.83524
  24603826.6504    -846555.77245   -583089.56661
  23387762.6894   13906467.75646  10836189.92761
  21842394.244   -13690103.145 7 -10571161.82923
 91  4 24 22 41  0.0020000  0  4G13G15G19G 6
  24062295.033    -2769517.256 5  -1729451.36021
  24600918.189     -861836.165 5   -594996.28621
  23395599.9084   13947640.62845  10868272.59861
  21838831.947   -13708823.719 7 -10585749.24423
 91  4 24 22 41 15.0020000  0  5G13G 2G15G19G 6
  24052147.018    -2822850.473 5  -1771009.32721
  21346678.252          -0.62818
  24598033.8614    -877020.08245   -606827.81761
  23403444.5184   13988870.87946  10900399.96761
  21835276.8614  -13727505.24447 -10600306.24163
 91  4 24 22 41 30.0020000  0  5G13G 2G15G19G 6
  24042006.174    -2876139.800 5  -1812533.11521
  21347686.2294       5294.82948
  24595161.385     -892102.452 5   -618580.23121
  23411301.002    14030163.050 5  10932575.59821
  21831731.0574  -13746142.88347 -10614829.03563
 91  4 24 22 41 45.0020000  0  5G13G 2G15G19G 6
  24031873.479    -2929385.760 5  -1854023.11121
  21348704.291       10643.298 8        -0.39934
  24592314.3774    -907083.86845   -630253.96961
  23419171.7524   14071516.25746  10964798.78161
  21828191.0574  -13764737.27747 -10629318.13263
 91  4 24 22 42  0.0020000  0  5G13G 2G15G19G 6
  24021748.9554   -2982588.11745  -1895479.14561
  21349731.369       16044.724 8      4208.51824
  24589478.0494    -921964.66045   -641849.31661
  23427050.0184   14112930.02846  10997069.15261
  21824661.6504  -13783288.62247 -10643773.68763
 91  4 24 22 42 15.0020000  0  5G13G 2G15G19G 6
  24011635.650    -3035744.588 5  -1936899.41221
  21350770.393       21500.696 8      8459.94224
  24586664.1504    -936742.54345   -653364.44661
  23434944.330    14154406.252 6  11029388.19321
  21821139.8934  -13801794.76147 -10658194.01863
 91  4 24 22 42 30.0020000  0  5G13G 2G15G19G 6
  24001528.494    -3088854.570 5  -1978283.44421
  21351818.2134      27011.32148     12753.94364
  24583876.2054    -951416.76845   -664798.83161
  23442846.854    14195945.299 6  11061756.18921
  21817627.8144  -13820255.09647 -10672578.66163
 91  4 24 22 42 45.0020000  0  5G13G 2G15G19G 6
  23991430.760    -3141921.294 5  -2019633.78821
  21352876.557       32573.020 8     17087.74723
  24581104.9634    -965990.73245   -676155.07061
  23450763.3934   14237543.49246  11094170.27361
  21814123.5804  -13838672.91447 -10686930.17263
 91  4 24 22 43  0.0020000  0  5G13G 2G15G19G 6
  23981335.275    -3194947.431 5  -2060952.49621
  21353944.447       38182.537 8     21458.81424
  24578346.3614    -980467.16045   -687435.32261
  23458691.3144   14279197.58545  11126627.91961
  21810624.8774  -13857051.38347 -10701251.02263
 91  4 24 22 43 15.0020000  0  5G13G 2G15G19G 6
  23971255.9324   -3247931.35545  -2102238.31861
  21355021.174       43841.098 8     25868.09524
  24575611.416     -994844.695 5   -698638.49521
  23466622.1744   14320908.80545  11159130.06961
  21807136.0494  -13875388.97447 -10715540.02563
 91  4 24 22 43 30.0020000  0  5G13G 2G15G19G 6
  23961178.9164   -3300875.56445  -2143493.20661
  21356107.111       49545.577 8     30313.15324
  24572889.0724   -1009126.02645   -709766.73061
  23474581.729    14362674.069 5  11191674.32721
  21803654.2604  -13893688.42947 -10729799.30663
 91  4 24 22 43 45.0020000  0  5G13G 2G15G19G 6
  23951112.932    -3353778.005 5  -2184715.53221
  21357200.494       55298.194 8     34795.72424
  24570196.1744   -1023308.75545   -720818.12361
  23482534.057    14404495.438 6  11224262.30621
  21800177.5184  -13911947.36547 -10744027.01763
 91  4 24 22 44  0.0020000  0  5G13G 2G15G19G 6
  23941056.0184   -3406635.16745  -2225902.59961
  21358305.760       61101.901 8     39318.10824
  24567513.4554   -1037389.36145   -731789.93161
  23490508.5644   14446375.78145  11256896.24061
  21796711.8144  -13930162.56647 -10758220.64763
 91  4 24 22 44 15.0020000  0  5G13G 2G15G19G 6
  23931001.2294   -3459447.06545  -2267054.38061
  21359419.697       66955.906 8     43879.68124
  24564847.588    -1051368.207 5   -742682.48121
  23498481.6434   14488314.43145  11289575.61261
  21793255.0644  -13948334.45747 -10772380.52963
 91  4 24 22 44 30.0020000  0  5G13G 2G15G19G 6
  23920961.2054   -3512214.39045  -2308171.45161
  21360543.260       72859.213 8     48479.67024
  24562210.8304   -1065246.14745   -753496.35261
  23506478.486    14530310.285 5  11322299.55021
  21789804.5804  -13966463.70247 -10786507.18563
 91  4 24 22 44 45.0020000  0  5G13G 2G15G19G 6
  23910928.783    -3564937.169 5  -2349253.79721
  21361675.947       78810.993 8     53117.43724
  24559593.369    -1079023.301 5   -764231.72121
  23514480.463    14572362.985 6  11355067.78021
  21786362.3774  -13984550.69847 -10800600.91263
 91  4 24 22 45  0.0020000  0  5G13G 2G15G19G 6
  23900905.752    -3617607.442 5  -2390295.23021
  21362819.338       84818.840 8     57798.89024
  24556995.689    -1092691.882 5   -774882.47621
  23522494.7054   14614479.98145  11387886.11961
  21782930.3774  -14002587.53747 -10814655.55563
 91  4 24 22 45 15.0020000  0  5G13G 2G15G19G 6
  23890890.104    -3670230.365 5  -2431299.78321
  21363972.010       90877.299 8     62519.77824
  24554411.9084   -1106256.89245   -785452.53061
  23530517.4944   14656655.76845  11420750.27361
  21779506.4164  -14020579.44847 -10828675.19263
 91  4 24 22 45 30.0020000  0  5G13G 2G15G19G 6
  23880885.9554   -3722802.97745  -2472265.11761
  21365135.3694      96988.92048     67282.08764
  24551847.643    -1119715.515 5   -795939.68921
  23538564.791    14698892.737 5  11453662.08021
  21776091.7994  -14038523.79847 -10842657.76763
 91  4 24 22 45 45.0020000  0  5G13G 2G15G19G 6
  23870892.072    -3775323.350 5  -2513189.75021
  21366307.5644     103155.14348
  24549307.7214   -1133066.01945   -806342.59761
  23546604.244    14741192.389 5  11486622.74621
  21772686.705   -14056418.808 7 -10856601.90423
 91  4 24 22 46  0.0020000  0  4G13G15G19G 6
  23860910.0254   -3827793.45045  -2554075.21961
  24546782.7134   -1146310.44845   -816662.83861
  23554666.572    14783552.367 5  11519630.41521
  21769288.7294  -14074266.45347 -10870509.13263
 91  4 24 22 46 15.0020000  0  5G13G 2G15G19G 6
  23850932.127    -3880212.105 5  -2594920.59321
  21368684.682          -0.04618
  24544282.502    -1159447.955 5   -826899.76021
  23562737.8614   14825973.55046  11552685.77661
  21765902.072   -14092065.738 7 -10884378.66323
 91  4 24 22 46 30.0020000  0  5G13G 2G15G19G 6
  23840966.330    -3932575.857 5  -2635723.21521
  21369887.8224       6327.30548
  24541805.314    -1172474.727 5   -837050.42621
  23570826.229    14868458.807 5  11585791.06621
  21762525.1744  -14109813.37047 -10898207.95463
 91  4 24 22 46 45.0020000  0  5G13G 2G15G19G 6
  23831012.7914   -3984888.78945  -2676486.19261
  21371102.2364      12706.09048        -0.31774
  24539349.8384   -1185395.09945   -847118.16861
  23578918.080    14911003.762 5  11618942.87621
  21759158.3614  -14127513.41947 -10912000.16863
 91  4 24 22 47  0.0020000  0  5G13G 2G15G19G 6
  23821068.2684   -4037149.56345  -2717208.55461
  21372326.4244      19137.10448      5010.87064
  24536909.854    -1198208.011 5   -857102.18521
  23587028.494    14953608.990 5  11652141.64821
  21755798.6044  -14145165.09647 -10925754.68863
 91  4 24 22 47 15.0020000  0  5G13G 2G15G19G 6
  23811130.4004   -4089357.01345  -2757889.36861
  21373560.8464      25621.10148     10063.34164
  24534493.1044   -1210912.28845   -867001.53361
  23595145.260    14996275.595 5  11685388.24821
  21752448.9164  -14162767.08547 -10939470.49163
 91  4 24 22 47 30.0020000  0  5G13G 2G15G19G 6
  23801204.2604   -4141513.20045  -2798530.26061
  21374804.6434      32155.62248     15155.18064
  24532096.830    -1223509.936 5   -876817.81221
  23603282.057    15039000.994 5  11718680.65421
  21749109.4554  -14180321.63947 -10953149.33663
 91  4 24 22 47 45.0020000  0  5G13G 2G15G19G 6
  23791292.400    -4193619.209 5  -2839132.03421
  21376057.0104      38738.96948     20285.06464
  24529714.0104   -1236002.42245   -886552.13761
  23611418.057    15081783.332 5  11752017.42621
  21745776.6744  -14197830.07047 -10966792.23163
 91  4 24 22 48  0.0020000  0  5G13G 2G15G19G 6
  23781389.854    -4245670.859 5  -2879691.43021
  21377320.4864      45374.89948     25455.92264
  24527364.541    -1248385.723 5   -896201.41221
  23619572.486    15124626.564 5  11785401.66721
  21742455.0724  -14215288.36147 -10980396.05763
 91  4 24 22 48 15.0020000  0  5G13G 2G15G19G 6
  23771491.8384   -4297673.37845  -2920212.58361
  21378591.9474      52057.92548     30663.48164
  24525027.2914   -1260665.06045   -905769.65161
  23627731.057    15167525.124 5  11818828.99721
  21739140.0494  -14232701.76947 -10993964.91463
 91  4 24 22 48 30.0020000  0  5G13G 2G15G19G 6
  23761605.275    -4349621.945 5  -2960691.67921
  21379872.7994      58792.44948     35911.16564
  24522706.9794   -1272835.63745   -915253.14061
  23635912.2364   15210483.37945  11852302.87061
  21735836.3224  -14250065.63847 -11007495.15963
 91  4 24 22 48 45.0020000  0  5G13G 2G15G19G 6
  23751732.260    -4401512.466 5  -3001125.52921
  21381164.0184      65582.17948     41201.86964
  24520416.3544   -1284893.36045   -924648.70661
  23644094.916    15253504.939 5  11885826.04121
  21732542.0184  -14267375.95047 -11020983.67763
 91  4 24 22 49  0.0020000  0  5G13G 2G15G19G 6
  23741865.9794   -4453341.25345  -3041511.31361
  21382467.8774      72430.16048     46537.96264
  24518139.268    -1296834.884 5   -933953.71421
  23652296.3384   15296592.89345  11919400.97061
  21729260.2294  -14284629.25847 -11034427.78364
 91  4 24 22 49 15.0020000  0  5G13G 2G15G19G 6
  23732016.1044   -4505112.04645  -3081851.88561
  21383780.2754      79332.23048     51916.20164
  24515893.385    -1308663.833 5   -943171.00821
  23660507.947    15339743.301 5  11953024.54821
  21725986.1434  -14301829.48047 -11047830.51864
 91  4 24 22 49 30.0020000  0  5G13G 2G15G19G 6
  23722172.7834   -4556823.41945  -3122146.16661
  21385104.3144      86289.43548     57337.40664
  24513661.299    -1320379.039 5   -952299.67421
  23668731.604    15382957.052 5  11986697.49021
  21722722.2834  -14318975.34947 -11061190.90364
 91  4 24 22 49 45.0020000  0  5G13G 2G15G19G 6
  23712342.494    -4608471.253 5  -3162390.92721
  21386440.0334      93305.48848     62804.46864
  24511454.0334   -1331976.47445   -961336.54061
  23676964.877    15426237.632 5  12020422.50721
  21719470.0724  -14336062.85847 -11074505.81363
 91  4 24 22 50  0.0020000  0  5G13G 2G15G19G 6
  23702530.104    -4660057.114 5  -3202587.41421
  21387785.8774     100378.36748     68315.80764
  24509270.377    -1343457.625 5   -970282.83521
  23685214.752    15469583.243 5  12054198.19721
  21716229.4554  -14353093.70147 -11087776.56564
 91  4 24 22 50 15.0020000  0  5G13G 2G15G19G 6
  23692726.752    -4711578.018 5  -3242733.27521
  21389142.5884     107510.56348     73873.36864
  24507110.5804   -1354819.96845   -979136.54061
  23693476.158    15512996.331 5  12088026.46521
  21713000.3544  -14370064.94847 -11101000.89164
 91  4 24 22 50 30.0020000  0  5G13G 2G15G19G 6
  23682932.8614   -4763039.74845  -3282833.03261
  21390510.6664     114695.89948     79472.33664
  24504966.9164   -1366069.18345   -987902.10461
  23701750.9244   15556470.74245  12121902.51161
  21709781.8304  -14386982.73647 -11114183.55264
 91  4 24 22 50 45.0020000  0  5G13G 2G15G19G 6
  23673148.9004   -4814444.83945  -3322888.66061
  21391887.6274     121931.37948     85110.37864
  24502848.1824   -1377207.90245   -996581.54861
  23710031.486    15600003.729 5  12155824.20321
  21706572.1894  -14403849.45347 -11127326.42064
 91  4 24 22 51  0.0020000  0  5G13G 2G15G19G 6
  23663379.7684   -4865792.98345  -3362899.90261
  21393273.2054     129216.82648     90787.35464
  24500752.807    -1388236.022 6  -1005174.82521
  23718328.2914   15643595.05945  12189791.35561
  21703372.4794  -14420665.01747 -11140429.42364
 91  4 24 22 51 15.0020000  0  5G13G 2G15G19G 6
  23653618.979    -4917085.205 5  -3402867.59221
  21394669.1824     136550.84048     96502.17764
  24498668.885    -1399154.504 5  -1013682.66121
  23726631.408    15687243.112 5  12223802.72421
  21700181.1194  -14437430.55347 -11153493.44664
 91  4 24 22 51 30.0020000  0  5G13G 2G15G19G 6
  23643867.479    -4968318.282 5  -3442789.17321
  21396074.0414     143936.01948    102256.86864
  24496615.291    -1409960.405 5  -1022102.77721
  23734954.041    15730950.423 5  12257860.25521
  21697000.8544  -14454143.21147 -11166516.26863
 91  4 24 22 51 45.0020000  0  5G13G 2G15G19G 6
  23634133.0964   -5019489.89945  -3482662.88161
  21397490.2834     151374.71648    108053.26264
  24494580.8144   -1420651.26245  -1030433.24461
  23743281.5414   15774719.38846  12291965.82261
  21693830.0494  -14470800.33347 -11179495.81663
 91  4 24 22 52  0.0020000  0  5G13G 2G15G19G 6
  23624402.0254   -5070599.76545  -3522488.48161
  21398914.6044     158866.64848    113891.14064
  24492566.8614   -1431227.25145  -1038674.21661
  23751622.947    15818549.487 5  12326119.03321
  21690671.268   -14487402.232 7 -11192432.33524
 91  4 24 22 52 15.0020000  0  5G13G 2G15G19G 6
  23614690.9944   -5121648.28945  -3562266.27461
  21400351.4244     166410.87448    119769.76464
  24490574.7134   -1441688.66145  -1046825.89161
  23759975.455    15862440.185 6  12360319.46221
  21687523.1044  -14503949.33447 -11205326.15064
 91  4 24 22 52 30.0020000  0  5G13G 2G15G19G 6
  23604986.9944   -5172633.50945  -3601994.74061
  21401797.1504     174008.85548    125690.27764
  24488603.096    -1452033.757 5  -1054886.94821
  23768339.174    15906392.772 5  12394568.12321
  21684384.822   -14520439.684 7 -11218175.75023
 91  4 24 22 52 45.0020000  0  5G13G 2G15G19G 6
  23595298.0964   -5223555.82445  -3641674.19761
  21403252.5574     181659.45948    131651.79364
  24486660.5494   -1462263.21145  -1062857.87961
  23776714.229    15950406.115 5  12428864.12021
  21681258.8774  -14536874.20947 -11230981.84763
 91  4 24 22 53  0.0020000  0  5G13G 2G15G19G 6
  23585621.400    -5274416.693 5  -3681305.76021
  21404718.2834     189361.19348    137653.15064
  24484733.994    -1472378.193 5  -1070739.63421
  23785101.0184   15994478.72645  12463206.30761
  21678141.8544  -14553254.13647 -11243745.39563
 91  4 24 22 53 15.0020000  0  5G13G 2G15G19G 6
  23575952.150    -5325213.544 5  -3720887.45021
  21406194.7524     197116.03248    143695.89164
  24482834.986    -1482376.730 5  -1078530.61621
  23793497.408    16038612.599 5  12497596.22821
  21675034.752   -14569577.142 7 -11256464.60123
 91  4 24 22 53 30.0020000  0  5G13G 2G15G19G 6
  23566295.705    -5375948.388 5  -3760420.84021
  21407680.5334     204921.38448    149777.99064
  24480955.6274   -1492261.00046  -1086232.59161
  23801917.502    16082804.803 5  12532031.58321
  21671939.682   -14585845.675 7 -11269141.35724
 91  4 24 22 53 45.0020000  0  5G13G 2G15G19G 6
  23556654.213    -5426623.055 5  -3799907.33121
  21409174.3224     212774.98048    155897.67564
  24479097.307    -1502032.750 6  -1093846.85521
  23810329.9794   16127053.27245  12566510.79261
  21668852.393   -14602061.549 7 -11281777.07724
 91  4 24 22 54  0.0020000  0  5G13G 2G15G19G 6
  23547022.479    -5477236.012 5  -3839345.74021
  21410679.1354     220678.11648    162055.96964
  24477256.3074   -1511690.43646  -1101372.26761
  23818761.838    16171359.404 5  12601034.93321
  21665778.6434  -14618223.06747 -11294370.43864
 91  4 24 22 54 15.0020000  0  5G13G 2G15G19G 6
  23537399.4944   -5527783.26845  -3878732.96561
  21412193.2684     228634.41148    168255.68964
  24475442.244    -1521230.187 6  -1108805.77721
  23827202.7914   16215726.78645  12635606.80061
  21662713.6974  -14634326.29247 -11306918.37764
 91  4 24 22 54 30.0020000  0  5G13G 2G15G19G 6
  23527793.8854   -5578266.94545  -3918070.65961
  21413716.8934     236641.36048    174494.87564
  24473647.9714   -1530654.38946  -1116149.24861
  23835655.783    16260152.700 5  12670224.28621
  21659659.791   -14650373.705 7 -11319422.82723
 91  4 24 22 54 45.0020000  0  5G13G 2G15G19G 6
  23518200.9324   -5628687.46046  -3957359.09561
  21415249.7754     244697.94148    180772.73564
  24471869.346    -1539963.623 5  -1123403.13321
  23844122.2914   16304636.29745  12704886.70461
  21656616.658   -14666365.854 7 -11331884.22023
 91  4 24 22 55  0.0020000  0  5G13G 2G15G19G 6
  23508620.8074   -5679046.70146  -3996599.83161
  21416791.1974     252801.98448    187087.58264
  24470124.6824   -1549159.92345  -1130569.00561
  23852595.971    16349175.395 5  12739592.38321
  21653582.0574  -14682304.64847 -11344304.03164
 91  4 24 22 55 15.0020000  0  5G13G 2G15G19G 6
  23499048.9944   -5729342.74946  -4035791.30661
  21418342.479      260954.738 8    193440.38724
  24468397.7914   -1558241.47646  -1137645.47461
  23861083.3144   16393771.21545  12774342.24861
  21650560.299   -14698188.542 7 -11356681.06524
 91  4 24 22 55 30.0020000  0  5G13G 2G15G19G 6
  23489486.564    -5779575.574 5  -4074933.51921
  21419903.1274     269155.79548    199830.83264
  24466691.7754   -1567208.43546  -1144632.64461
  23869582.6664   16438423.28445  12809135.95061
  21647549.361   -14714017.611 7 -11369015.38024
 91  4 24 22 55 45.0020000  0  5G13G 2G15G19G 6
  23479941.744    -5829742.120 6  -4114024.10421
  21421474.2134     277407.99948    206261.13064
  24465008.6504   -1576057.97846  -1151528.33661
  23878088.1974   16483134.21045  12843975.52261
  21644547.775   -14729788.887 7 -11381304.66624
 91  4 24 22 56  0.0020000  0  5G13G 2G15G19G 6
  23470407.041    -5879843.029 6  -4153063.52921
  21423053.3464     285710.18848    212730.37564
  24463343.9164   -1584790.66445  -1158332.95661
  23886615.158    16527902.978 5  12878860.14421
  21641556.838   -14745503.020 7 -11393549.42024
 91  4 24 22 56 15.0020000  0  5G13G 2G15G19G 6
  23460886.0884   -5929869.47046  -4192044.93561
  21424645.1434     294070.77248    219245.12364
  24461707.2604   -1593397.52545  -1165039.54461
  23895139.0494   16572738.06045  12913796.46961
  21638580.080   -14761151.235 7 -11405742.82224
 91  4 24 22 56 30.0020000  0  5G13G 2G15G19G 6
  23451383.260    -5979825.561 6  -4230971.52121
  21426245.4944     302485.51248    225802.06664
  24460088.1274   -1601882.77945  -1171651.35961
  23903691.096    16617635.155 5  12948781.08721
  21635613.377   -14776737.610 7 -11417888.02324
 91  4 24 22 56 45.0020000  0  5G13G 2G15G19G 6
  23441889.307    -6029706.398 6  -4269839.46821
  21427857.5804     310958.69148    232404.55364
  24458500.291    -1610241.899 6  -1178164.90521
  23912238.1114   16662598.42245  12983817.29961
  21632660.666   -14792257.619 7 -11429981.51424
 91  4 24 22 57  0.0020000  0  5G13G 2G15G19G 6
  23432408.0104   -6079513.78346  -4308650.19761
  21429481.2994     319488.09148    239050.84664
  24456934.3074   -1618476.92846  -1184581.75161
  23920811.4474   16707625.71445  13018903.38761
  21629718.799   -14807713.224 7 -11442024.81724
 91  4 24 22 57 15.0020000  0  5G13G 2G15G19G 6
  23422944.338    -6129247.544 6  -4347403.55021
  21431115.127      328073.204 8    245740.55224
  24455392.5644   -1626587.78246  -1190901.83861
  23929386.5414   16752716.57345  13054039.00461
  21626789.611   -14823104.404 7 -11454017.92524
 91  4 24 22 57 30.0020000  0  5G13G 2G15G19G 6
  23413497.7604   -6178910.18046  -4386101.48861
  21432758.8774     336711.07348    252471.36764
  24453870.057    -1634577.040 6  -1197127.16721
  23937984.322    16797868.032 5  13089221.84221
  21623872.658   -14838433.680 7 -11465962.79524
 91  4 24 22 57 45.0020000  0  5G13G 2G15G19G 6
  23404058.689    -6228499.899 6  -4424742.59921
  21434412.5104     345403.29448    259244.52964
  24452369.8224   -1642442.95346  -1203256.39361
  23946583.236    16843081.504 5  13124452.99121
  21620967.439   -14853699.461 7 -11477858.18024
 91  4 24 22 58  0.0020000  0  5G13G 2G15G19G 6
  23394635.611    -6278016.102 6  -4463326.42421
  21436077.0574     354150.15548    266060.26564
  24450898.7054   -1650184.97546  -1209289.06961
  23955203.002    16888357.071 5  13159732.55021
  21618075.143   -14868901.037 7 -11489703.54124
 91  4 24 22 58 15.0020000  0  5G13G 2G15G19G 6
  23385228.244    -6327456.059 6  -4501850.84221
  21437753.5024     362953.95548    272920.37464
  24449450.502    -1657800.676 6  -1215223.31921
  23963830.2364   16933697.25645  13195062.42861
  21615195.354   -14884035.899 7 -11501496.91724
 91  4 24 22 58 30.0020000  0  5G13G 2G15G19G 6
  23375832.8694   -6376823.41846  -4540318.67961
  21439438.0494     371810.22148    279821.36664
  24448025.9244   -1665294.01546  -1221062.23161
  23972469.6584   16979097.74645  13230439.32161
  21612328.1194  -14899108.05047 -11513241.42364
 91  4 24 22 58 45.0020000  0  5G13G 2G15G19G 6
  23366452.564    -6426119.651 6  -4578731.11721
  21441133.3224     380717.21648    286761.89164
  24446622.9084   -1672666.70146  -1226807.11361
  23981119.5644   17024556.60345  13265861.68161
  21609470.229   -14914119.097 7 -11524938.32224
 91  4 24 22 59  0.0020000  0  5G13G 2G15G19G 6
  23357087.4474   -6475338.21746  -4617083.04061
  21442838.5104     389681.09448    293746.73764
  24445245.9324   -1679912.23046  -1232452.92261
  23989782.666    17070079.785 5  13301334.15721
  21606626.580   -14929062.477 7 -11536582.49324
 91  4 24 22 59 15.0020000  0  5G13G 2G15G19G 6
  23347737.3544   -6524477.08346  -4655372.82661
  21444555.1044     398703.45948    300777.15664
  24443889.3774   -1687028.74746  -1237998.20261
  23998457.0414   17115668.84745  13336857.98861
  21603796.385   -14943936.385 7 -11548172.53324
 91  4 24 22 59 30.0020000  0  5G13G 2G15G19G 6
  23338399.6664   -6573535.21846  -4693599.74461
  21446284.2214     407785.31848    307853.93164
  24442557.291    -1694014.836 6  -1243441.85921
  24007145.361    17161324.950 5  13372434.02821
  21600979.3224  -14958739.45947 -11559707.36763
 91  4 24 22 59 45.0020000  0  5G13G 2G15G19G 6
  23329080.408    -6622513.645 6  -4731764.52521
  21448022.6434     416925.01348    314975.77964
  24441256.2994   -1700871.91646  -1248784.98061
  24015845.119    17207046.348 5  13408060.95921
  21598175.830   -14973473.073 7 -11571188.08323
 91  4 24 23  0  0.0020000  0  5G13G 2G15G19G 6
  23319776.619    -6671407.342 6  -4769863.29421
  21449773.8074     426126.88448    322146.07464
  24439975.6434   -1707595.52646  -1254024.09561
  24024563.1744   17252837.44045  13443742.20661
  21595385.8774  -14988132.50747 -11582610.99163
 91  4 24 23  0 15.0020000  0  5G13G 2G15G19G 6
  23310484.729    -6720222.971 6  -4807901.24321
  21451535.4244     435383.84648    329359.30364
  24438719.2994   -1714192.31945  -1259164.41261
  24033285.7754   17298691.11545  13479472.20361
  21592609.1044  -15002724.53347 -11593981.37363
 91  4 24 23  0 30.0020000  0  5G13G 2G15G19G 6
  23301208.5724   -6768962.48646  -4845879.87161
  21453307.5964     444693.56248    336613.63364
  24437487.041    -1720664.144 6  -1264207.35121
  24042021.0724   17344604.91545  13515249.06761
  21589845.697   -15017251.152 7 -11605300.79123
 91  4 24 23  0 45.0020000  0  5G13G 2G15G19G 6
  23291950.596    -6817621.249 6  -4883795.57121
  21455089.9794     454060.37048    343912.45164
  24436279.7684   -1727006.68945  -1269149.53461
  24050773.0414   17390583.01645  13551076.00961
  21587093.713   -15031707.954 7 -11616565.80623
 91  4 24 23  1  0.0020000  0  5G13G 2G15G19G 6
  23282705.9944   -6866205.26746  -4921653.03361
  21456880.8464     463477.89348    351250.78964
  24435095.689    -1733226.163 6  -1273995.82421
  24059535.705    17436619.174 5  13586948.20321
  21584355.5804  -15046100.84047 -11627781.01463
 91  4 24 23  1 15.0020000  0  5G13G 2G15G19G 6
  23273473.8304   -6914708.82746  -4959447.80961
  21458683.7994     472951.48248    358632.81164
  24433940.8144   -1739316.79046  -1278741.73061
  24068303.3304   17482718.49445  13622869.62661
  21581628.9004  -15060424.26947 -11638942.09563
 91  4 24 23  1 30.0020000  0  5G13G 2G15G19G 6
  23264262.150    -6963131.344 6  -4997179.44221
  21460498.6274     482481.03148    366058.44264
  24432805.4714   -1745278.21846  -1283386.94661
  24077093.666    17528881.038 5  13658840.30021
  21578917.2294  -15074677.94547 -11650048.82763
 91  4 24 23  1 45.0020000  0  5G13G 2G15G19G 6
  23255063.072    -7011475.152 6  -5034849.73021
  21462320.8774     492063.97748    373525.68064
  24431695.479    -1751112.973 6  -1287933.44121
  24085889.0964   17575104.15545  13694858.16461
  21576217.971   -15088864.131 7 -11661102.97223
 91  4 24 23  2  0.0020000  0  5G13G 2G15G19G 6
  23245874.4324   -7059744.30846  -5072461.84661
  21464153.5024     501695.83648    381031.02864
  24430608.604    -1756825.233 6  -1292384.50621
  24094695.885    17621383.329 5  13730919.72821
  21573530.0494  -15102986.90947 -11672107.70663
 91  4 24 23  2 15.0020000  0  5G13G 2G15G19G 6
  23236703.760    -7107937.522 6  -5110014.79021
  21465996.4864     511377.61848    388575.28464
  24429542.510    -1762413.796 6  -1296739.17021
  24103511.7914   17667719.54245  13767025.70961
  21570855.4794  -15117045.02347 -11683062.04463
 91  4 24 23  2 30.0020000  0  5G13G 2G15G19G 6
  23227551.705    -7156048.852 6  -5147503.91821
  21467850.0884     521114.49348    396162.46164
  24428503.7294   -1767872.92346  -1300992.98461
  24112340.447    17714118.078 5  13803180.27421
  21568193.2444  -15131032.98147 -11693961.72063
 91  4 24 23  2 45.0020000  0  5G13G 2G15G19G 6
  23218407.377    -7204085.635 6  -5184934.97021
  21469710.6114     530899.11048    403786.84164
  24427491.713    -1773210.051 6  -1305151.74321
  24121174.588    17760571.307 5  13839377.45021
  21565542.0884  -15144958.05147 -11704812.39563
 91  4 24 23  3  0.0020000  0  5G13G 2G15G19G 6
  23209280.9714   -7252042.01746  -5222303.38061
  21471583.4244     540736.94648    411452.69464
  24426497.3144   -1778419.42246  -1309210.93261
  24130032.955    17807084.565 5  13875621.40721
  21562906.5024  -15158814.52747 -11715609.61563
 91  4 24 23  3 15.0020000  0  5G13G 2G15G19G 6
  23200171.7524   -7299914.80846  -5259606.64561
  21473465.0024     550630.60348    419162.04664
  24425530.8934   -1783498.11845  -1313168.31061
  24138894.5884   17853660.54145  13911914.22561
  21560282.869   -15172599.242 7 -11726350.92523
 91  4 24 23  3 30.0020000  0  5G13G 2G15G19G 6
  23191077.2134   -7347706.01646  -5296846.33961
  21475358.8144     560577.72848    426913.05764
  24424588.385    -1788448.508 5  -1317025.70321
  24147769.8934   17900296.75745  13948253.98661
  21557672.3544  -15186314.27947 -11737037.93363
 91  4 24 23  3 45.0020000  0  5G13G 2G15G19G 6
  23181997.869    -7395416.440 6  -5334023.08621
  21477261.7054     570576.77748    434704.52864
  24423669.4244   -1793271.71645  -1320783.99861
  24156656.5414   17946991.74245  13984639.53861
  21555076.6354  -15199960.82047 -11747671.57263
 91  4 24 23  4  0.0020000  0  5G13G 2G15G19G 6
  23172934.416    -7443047.240 6  -5371137.79621
  21479173.6504     580626.57048    442535.54064
  24422774.354    -1797968.443 5  -1324443.73721
  24165553.5184   17993744.28845  14021069.94461
  21552491.908   -15213539.810 7 -11758252.58223
 91  4 24 23  4 15.0020000  0  5G13G 2G15G19G 6
  23163885.1434   -7490595.88946  -5408188.49661
  21481096.2214     590729.02048    450407.58164
  24421907.869    -1802536.528 6  -1328003.23121
  24174460.2914   18040556.29445  14057546.68361
  21549921.4004  -15227048.99047 -11768779.18163
 91  4 24 23  4 30.0020000  0  5G13G 2G15G19G 6
  23154852.221    -7538067.054 6  -5445178.81721
  21483027.6274     600878.73448    458316.45264
  24421063.8224   -1806981.20846  -1331466.57061
  24183381.416    18087422.409 5  14094065.59921
  21547362.580   -15240493.388 7 -11779255.30623
 91  4 24 23  4 45.0020000  0  5G13G 2G15G19G 6
  23145836.8614   -7585455.45346  -5482104.63861
  21484967.5644     611081.22748    466266.45164
  24420242.674    -1811296.838 6  -1334829.35121
  24192309.8544   18134347.92145  14130630.77961
  21544817.174   -15253867.428 7 -11789676.61523
 91  4 24 23  5  0.0020000  0  5G13G 2G15G19G 6
  23136832.189    -7632765.641 6  -5518969.51321
  21486920.1744     621331.49548    474253.67764
  24419445.5884   -1815488.31146  -1338095.40361
  24201250.924    18181327.693 5  14167238.26021
  21542285.314   -15267175.735 7 -11800046.69223
 91  4 24 23  5 15.0020000  0  5G13G 2G15G19G 6
  23127843.9394   -7679996.49346  -5555772.58661
  21488879.5334     631630.40948    482278.80864
  24418669.604    -1819554.429 6  -1341263.75121
  24210200.283    18228362.603 5  14203888.68421
  21539764.588   -15280417.120 7 -11810364.63323
 91  4 24 23  5 30.0020000  0  5G13G 2G15G19G 6
  23118872.0184   -7727146.40046  -5592512.58861
  21490849.1354     641978.78348    490342.47564
  24417921.088    -1823494.024 6  -1344333.51221
  24219160.557    18275453.421 5  14240582.69321
  21537259.564   -15293590.470 7 -11820629.55523
 91  4 24 23  5 45.0020000  0  5G13G 2G15G19G 6
  23109914.768    -7774215.058 6  -5629189.26221
  21492827.0964     652376.41948    498444.53964
  24417193.4004   -1827306.91746  -1347304.56761
  24228133.3694   18322599.94145  14277320.08161
  21534766.0104  -15306695.61547 -11830841.32863
 91  4 24 23  6  0.0020000  0  5G13G 2G15G19G 6
  23100973.1194   -7821201.58546  -5665801.96561
  21494815.9244     662823.83748    506585.38664
  24416492.6504   -1830992.15446  -1350176.13861
  24237119.1664   18369802.73645  14314101.32161
  21532283.3934  -15319731.70047 -11840999.28763
 91  4 24 23  6 15.0020000  0  5G13G 2G15G19G 6
  23092045.5724   -7868105.76346  -5702350.48061
  21496812.3614     673320.86048    514764.89264
  24415816.400    -1834550.013 6  -1352948.44621
  24246105.5574   18417061.37645  14350926.08661
  21529817.119   -15332698.651 7 -11851103.38423
 91  4 24 23  6 30.0020000  0  5G13G 2G15G19G 6
  23083136.2604   -7914928.70346  -5738835.70861
  21498819.3464     683866.19048    522982.03864
  24415160.7754   -1837981.62645  -1355622.38961
  24255113.0104   18464374.67045  14387793.43861
  21527361.807   -15345597.406 7 -11861154.34523
 91  4 24 23  6 45.0020000  0  5G13G 2G15G19G 6
  23074242.369    -7961667.033 6  -5775254.99621
  21500836.5574     694462.60748    531238.99664
  24414532.525    -1841283.852 5  -1358195.51321
  24264124.244    18511745.197 5  14424705.40321
  21524920.635   -15358424.988 7 -11871149.83323
 91  4 24 23  7  0.0020000  0  5G13G 2G15G19G 6
  23065366.7834   -8008320.86146  -5811608.44661
  21502860.7834     705109.30248    539535.12164
  24413926.7684   -1844457.16745  -1360668.18861
  24273150.6974   18559172.24945  14461661.38961
  21522493.455   -15371181.745 7 -11881090.14623
 91  4 24 23  7 15.0020000  0  5G13G 2G15G19G 6
  23056502.9324   -8054890.81446  -5847896.52961
  21504897.8854     715805.72048    547870.00064
  24413353.2524   -1847501.92146  -1363040.68961
  24282185.994    18606655.066 5  14498660.85021
  21520081.025   -15383868.126 7 -11890975.61023
 91  4 24 23  7 30.0020000  0  5G13G 2G15G19G 6
  23047657.0574   -8101377.35246  -5884119.63161
  21506941.838      726551.132 8    556243.05724
  24412796.643    -1850418.738 6  -1365313.48021
  24291235.0574   18654192.88045  14535703.15661
  21517678.104   -15396484.371 7 -11900806.43123
 91  4 24 23  7 45.0020000  0  5G13G 2G15G19G 6
  23038826.033    -8147778.050 6  -5920275.84221
  21508997.3694     737347.23148    564655.60564
  24412263.7834   -1853205.63945  -1367485.05361
  24300292.5024   18701787.36845  14572789.62261
  21515291.2134  -15409028.60847 -11910581.13363
 91  4 24 23  8  0.0020000  0  5G13G 2G15G19G 6
  23030013.682    -8194094.081 6  -5956366.08321
  21511059.4084     748192.62648    573106.56864
  24411760.6974   -1855864.05246  -1369556.51061
  24309360.104    18749436.948 5  14609919.01721
  21512918.330   -15421501.930 7 -11920300.58323
 91  4 24 23  8 15.0020000  0  5G13G 2G15G19G 6
  23021212.7994   -8240327.34046  -5992391.81161
  21513134.197      759085.158 8    581594.26724
  24411280.822    -1858395.832 6  -1371529.27821
  24318433.322    18797139.582 5  14647089.74821
  21510555.752   -15433906.316 7 -11929966.31423
 91  4 24 23  8 30.0020000  0  5G13G 2G15G19G 6
  23012430.4324   -8286476.15646  -6028351.76061
  21515214.9554     770025.75448    590119.41164
  24410820.518    -1860799.706 6  -1373402.38121
  24327525.3384   18844896.19645  14684302.54161
  21508210.9714  -15446240.19647 -11939577.10363
 91  4 24 23  8 45.0020000  0  5G13G 2G15G19G 6
  23003666.8224   -8332537.35546  -6064243.42161
  21517306.8074     781017.47648    598684.39564
  24410387.025    -1863072.227 6  -1375173.14621
  24336621.0724   18892709.59945  14721559.59161
  21505877.346   -15458500.475 7 -11949130.54423
 91  4 24 23  9  0.0020000  0  5G13G 2G15G19G 6
  22994919.096    -8378509.772 6  -6100065.91221
  21519408.1274     792061.02448    607289.76664
  24409976.5254   -1865212.55245  -1376840.90661
  24345735.291    18940580.490 4  14758861.44321
  21503558.041   -15470686.198 7 -11958625.88924
 91  4 24 23  9 15.0020000  0  5G13G 2G15G19G 6
  22986188.604    -8424393.397 6  -6135819.20821
  21521519.5024     803156.14148    615935.31864
  24409596.3854   -1867220.76045  -1378405.70861
  24354850.736    18988508.653 5  14796207.90521
  21501252.682   -15482797.075 7 -11968062.91024
 91  4 24 23  9 30.0020000  0  5G13G 2G15G19G 6
  22977472.1274   -8470188.59346  -6171503.61361
  21523640.9864     814301.88648    624620.32164
  24409240.174    -1869097.474 5  -1379868.06421
  24363986.0334   19036492.97044  14833598.12561
  21498963.408   -15494834.080 7 -11977442.36923
 91  4 24 23  9 45.0020000  0  5G13G 2G15G19G 6
  22968774.807    -8515894.118 6  -6207118.14421
  21525770.5024     825499.02448    633345.36964
  24408905.0574   -1870841.95345  -1381227.35861
  24373123.861    19084534.183 4  14871032.66321
  21496687.221   -15506795.870 7 -11986763.22724
 91  4 24 23 10  0.0020000  0  5G13G 2G15G19G 6
  22960092.4394   -8561515.83246  -6242667.36861
  21527910.6274     836741.25748    642105.55964
  24408599.6824   -1872460.37246  -1382488.43861
  24382272.127    19132626.037 4  14908506.67721
  21494423.213   -15518688.384 7 -11996030.09723
 91  4 24 23 10 15.0020000  0  5G13G 2G15G19G 6
  22951430.4164   -8607049.29446  -6278147.81261
  21530059.6504     848032.84748    650904.20664
  24408318.7524   -1873948.43046  -1383647.92261
  24391441.3304   19180772.55445  14946023.28661
  21492174.049   -15530507.347 7 -12005239.65623
 91  4 24 23 10 30.0020000  0  5G13G 2G15G19G 6
  22942780.377    -8652492.722 6  -6313558.10521
  21532217.7834     859374.99748    659742.24664
  24408060.8304   -1875304.32546  -1384704.43261
  24400615.9244   19228975.03045  14983583.48361
  21489940.424   -15542251.058 7 -12014390.57723
 91  4 24 23 10 45.0020000  0  5G13G 2G15G19G 6
  22934149.033    -8697846.729 6  -6348898.72921
  21534384.6824     870766.97648    668619.12164
  24407828.6044   -1876528.57546  -1385658.36061
  24409796.2364   19277232.44345  15021186.51761
  21487719.1194  -15553919.97847 -12023483.21963
 91  4 24 23 11  0.0020000  0  5G13G 2G15G19G 6
  22925534.5574   -8743114.50246  -6384172.15261
  21536562.6744     882205.36248    677532.15264
  24407620.8384   -1877624.50546  -1386512.29261
  24418991.768    19325541.271 5  15058829.59621
  21485512.9164  -15565517.28447 -12032520.05063
 91  4 24 23 11 15.0020000  0  5G13G 2G15G19G 6
  22916938.729    -8788293.120 6  -6419376.11421
  21538747.8544     893692.50048    686483.16664
  24407433.2754   -1878589.76346  -1387264.39761
  24428189.0494   19373903.91045  15096514.61461
  21483318.713   -15577040.385 7 -12041499.07023
 91  4 24 23 11 30.0020000  0  5G13G 2G15G19G 6
  22908360.174    -8833384.491 6  -6454512.07721
  21540942.9634     905226.13748    695470.41464
  24407272.908    -1879426.353 5  -1387916.23721
  24437408.572    19422317.882 5  15134239.64321
  21481140.010   -15588491.224 7 -12050421.77723
 91  4 24 23 11 45.0020000  0  5G13G 2G15G19G 6
  22899795.369    -8878386.447 6  -6489578.37221
  21543147.2754     916807.65448    704494.97564
  24407140.7684   -1880132.39945  -1388466.37761
  24446625.2134   19470784.82445  15172005.93461
  21478975.463   -15599868.008 7 -12059286.77623
 91  4 24 23 12  0.0020000  0  5G13G 2G15G19G 6
  22891246.8934   -8923299.23546  -6524575.19261
  21545360.2364     928436.58648    713556.48764
  24407030.0724   -1880708.03845  -1388914.89861
  24455858.252    19519304.154 4  15209813.03521
  21476824.486   -15611170.855 7 -12068094.17423
 91  4 24 23 12 15.0020000  0  5G13G 2G15G19G 6
  22882717.479    -8968125.473 6  -6559504.57021
  21547581.4864     940110.07548    722652.71364
  24406940.7914   -1881156.19945  -1389264.08261
  24465097.549    19567872.830 4  15247658.59121
  21474687.924   -15622402.544 7 -12076846.11823
 91  4 24 23 12 30.0020000  0  5G13G 2G15G19G 6
  22874204.736    -9012857.959 6  -6594360.89321
  21549812.8614     951834.80948    731788.86964
  24406887.939    -1881469.761 5  -1389508.39221
  24474360.2914   19616497.55445  15285547.83561
  21472564.471   -15633555.875 7 -12085537.00823
 91  4 24 23 12 45.0020000  0  5G13G 2G15G19G 6
  22865708.9474   -9057501.16146  -6629147.64161
  21552051.8614     963606.17448    740961.35864
  24406850.5334   -1881653.46645
  24483617.8304   19665173.63545  15323477.07761
  21470456.666   -15644635.393 7 -12094170.37123
 91  4 24 23 13  0.0020000  0  5G13G 2G15G19G 6
  22857229.6824   -9102055.20846  -6663864.93361
  21554300.6504     975423.69948    750169.82164
  24406843.4324   -1881707.66945
  24492893.3464   19713900.44945  15361445.86561
  21468362.541   -15655641.092 7 -12102746.22923
 91  4 24 23 13 15.0020000  0  5G13G 2G15G19G 6
  22848768.4554   -9146517.35446  -6698510.60161
  21556559.3074     987289.59648    759415.97664
  24406855.1044   -1881629.90046
  24502172.2754   19762679.83845  15399455.61761
  21466283.377   -15666570.503 7 -12111262.63023
 91  4 24 23 13 30.0020000  0  5G13G 2G15G19G 6
  22840325.6824   -9190890.32946  -6733086.79361
  21558825.2684     999200.74548    768697.38964
  24406897.0254   -1881422.93846
  24511468.658    19811508.871 5  15437504.04721
  21464216.650   -15677426.315 7 -12119721.68424
 91  4 24 23 13 45.0020000  0  5G13G 2G15G19G 6
  22831900.0184   -9235171.72646  -6767591.63061
  21561101.6824    1011159.25348    778015.70864
  24406959.9394   -1881084.56145
  24520764.8074   19860389.60645  15475592.78161
  21462164.971   -15688206.296 7 -12128121.65124
 91  4 24 23 14  0.0020000  0  5G13G 2G15G19G 6
  22823489.018    -9279362.023 6  -6802025.47721
  21563384.9004    1023164.41048    787370.37264
  24407047.643    -1880615.433 5  -1388842.47421
  24530085.6114   19909321.29445  15513721.21461
  21460128.025   -15698910.944 7 -12136462.92024
 91  4 24 23 14 15.0020000  0  5G13G 2G15G19G 6
  22815099.658    -9323460.105 6  -6836387.46221
  21565680.0494    1035216.76448    796761.81364
  24407162.9394   -1880014.57045  -1388374.24361
  24539399.705    19958304.307 5  15551889.63421
  21458104.650   -15709539.369 7 -12144744.79124
 91  4 24 23 14 30.0020000  0  5G13G 2G15G19G 6
  22806722.377    -9367467.580 6  -6870678.85521
  21567982.3144    1047314.24348    806188.41164
  24407299.6584   -1879283.89345  -1387804.85461
  24548731.814    20007336.512 5  15590096.36321
  21456098.166   -15720093.259 7 -12152968.58724
 91  4 24 23 14 45.0020000  0  5G13G 2G15G19G 6
  22798365.932    -9411380.363 6  -6904896.46121
  21570293.7214    1059460.79748    815653.24764
  24407464.7364   -1878419.26545  -1387131.08061
  24558067.900    20056421.859 4  15628344.52221
  21454103.1974  -15730568.25647 -12161130.91364
 91  4 24 23 15  0.0020000  0  5G13G 2G15G19G 6
  22790028.5574   -9455201.67046  -6939042.78661
  21572612.4474    1071652.61648    825153.36564
  24407656.5724   -1877424.22345  -1386355.70161
  24567426.705    20105556.683 5  15666631.23421
  21452125.744   -15740968.021 7 -12169234.60524
 91  4 24 23 15 15.0020000  0  5G13G 2G15G19G 6
  22781708.6974   -9498928.72746  -6973115.66761
  21574942.8464    1083892.23348    834690.72064
  24407870.5104   -1876296.14845  -1385476.64061
  24576783.2444   20154743.08445  15704958.12661
  21450161.8464  -15751289.83647 -12177277.56664
 91  4 24 23 15 30.0020000  0  5G13G 2G15G19G 6
  22773404.393    -9542559.815 6  -7007113.77821
  21577281.6584    1096180.93248    844266.32664
  24408109.9004   -1875033.76845  -1384492.93661
  24586153.791    20203982.474 4  15743326.30621
  21448212.479   -15761531.852 7 -12185258.34624
 91  4 24 23 15 45.0020000  0  5G13G 2G15G19G 6
  22765118.2444   -9586099.55546  -7041040.70561
  21579627.3464    1108513.76148    853876.31964
  24408372.5024   -1873641.78945  -1383408.24961
  24595529.2994   20253269.73745  15781731.79261
  21446277.4004  -15771698.88047 -12193180.69664
 91  4 24 23 16  0.0020000  0  5G13G 2G15G19G 6
  22756851.9634   -9629546.24246  -7074895.11861
  21581984.1824    1120892.13248    863521.79664
  24408668.1274   -1872118.81146  -1382221.47861
  24604922.111    20302606.204 5  15820175.63021
  21444357.533   -15781789.274 7 -12201043.32124
 91  4 24 23 16 15.0020000  0  5G13G 2G15G19G 6
  22748601.9394   -9672898.30146  -7108675.80161
  21584347.5884    1133317.31348    873203.75864
  24408981.729    -1870463.108 6  -1380931.28121
  24614316.463    20351993.061 5  15858658.72021
  21442452.908   -15791801.333 7 -12208844.91124
 91  4 24 23 16 30.0020000  0  5G13G 2G15G19G 6
  22740370.5644   -9716153.54646  -7142381.03961
  21586720.7754    1145790.96448    882923.48664
  24409321.682    -1868673.057 5  -1379536.40921
  24623729.830    20401431.903 5  15897182.32721
  21440559.7524  -15801733.16247 -12216583.98864
 91  4 24 23 16 45.0020000  0  5G13G 2G15G19G 6
  22732154.385    -9759315.676 6  -7176013.72021
  21589103.3544    1158308.92548    892677.72664
  24409685.064    -1866752.761 5  -1378040.04421
  24633141.0414   20450918.42545  15935743.07661
  21438686.3694  -15811588.71447 -12224263.62864
 91  4 24 23 17  0.0020000  0  5G13G 2G15G19G 6
  22723962.432    -9802381.538 6  -7209571.40121
  21591494.7214    1170874.18748    902468.83564
  24410079.4864   -1864698.99945  -1376439.68561
  24642570.2754   20500455.28544  15974343.05461
  21436824.432   -15821364.570 7 -12231881.16924
 91  4 24 23 17 15.0020000  0  5G13G 2G15G19G 6
  22715784.213    -9845350.178 6  -7243053.31521
  21593894.2684    1183487.55148    912297.42764
  24410494.572    -1862510.552 5  -1374734.38521
  24652004.9394   20550043.38845  16012982.96761
  21434980.229   -15831059.780 7 -12239435.85924
 91  4 24 23 17 30.0020000  0  5G13G 2G15G19G 6
  22707627.158    -9888223.362 6  -7276460.85221
  21596305.0644    1196146.61948    922161.63664
  24410934.0574   -1860189.70845  -1372925.89661
  24661452.3774   20599680.12144  16051660.77361
  21433149.8544  -15840676.40147 -12246929.31864
 91  4 24 23 17 45.0020000  0  5G13G 2G15G19G 6
  22699487.025    -9930997.886 6  -7309791.51121
  21598721.5724    1208854.32648    932063.74364
  24411400.5884   -1857733.33745  -1371011.81761
  24670905.7054   20649368.45144  16090378.76661
  21431336.572   -15850211.230 7 -12254359.04624
 91  4 24 23 18  0.0020000  0  5G13G 2G15G19G 6
  22691364.9394   -9973676.46246  -7343047.41261
  21601148.9554    1221607.47048    942001.25164
  24411893.869    -1855144.616 5  -1368994.59821
  24680373.744    20699105.128 4  16129134.46121
  21429537.525   -15859667.058 7 -12261727.20924
 91  4 24 23 18 15.0020000  0  5G13G 2G15G19G 6
  22683262.174   -10016259.341 6  -7376228.73821
  21603584.8614    1234405.78048    951973.95564
  24412413.189    -1852423.706 5  -1366874.37321
  24689844.572    20748889.485 5  16167927.26821
  21427752.627   -15869044.130 7 -12269034.00124
 91  4 24 23 18 30.0020000  0  5G13G 2G15G19G 6
  22675179.189   -10058741.110 6  -7409331.28621
  21606027.8544    1247253.89048    961985.47064
  24412958.3694   -1849565.57545  -1364647.22361
  24699336.408    20798726.364 4  16206761.03921
  21425985.400   -15878337.258 7 -12276275.37924
 91  4 24 23 18 45.0020000  0  5G13G 2G15G19G 6
  22667113.9714  -10101125.03746  -7442357.57661
  21608482.9244    1260148.20548    972032.98364
  24413526.3304   -1846573.98945  -1362316.08461
  24708827.2604   20848612.02345  16245632.80561
  21424230.893   -15887549.841 7 -12283453.99324
 91  4 24 23 19  0.0020000  0  5G13G 2G15G19G 6
  22659064.033   -10143414.727 6  -7475310.44421
  21610944.5724    1273085.09148    982113.66664
  24414121.2444   -1843452.48146  -1359883.71261
  24718327.1044   20898542.71644  16284539.66961
  21422493.736   -15896685.229 7 -12290572.45824
 91  4 24 23 19 15.0020000  0  5G13G 2G15G19G 6
  22651033.9634  -10185606.39446  -7508186.94061
  21613414.5334    1286067.76948    992230.04364
  24414737.4084   -1840197.31945  -1357347.19661
  24727833.4164   20948521.68744  16323484.13161
  21420771.150   -15905739.816 7 -12297627.96924
 91  4 24 23 19 30.0020000  0  5G13G 2G15G19G 6
  22643023.018   -10227700.074 6  -7540987.07521
  21615894.5574    1299095.76348   1002381.71564
  24415381.1274   -1836808.81745  -1354706.77561
  24737357.3144   20998548.38544  16362465.81361
  21419062.283   -15914713.782 7 -12304620.64924
 91  4 24 23 19 45.0020000  0  5G13G 2G15G19G 6
  22635033.611   -10269698.220 6  -7573712.77221
  21618382.3224    1312166.29548   1012566.53764
  24416051.7604   -1833289.60045  -1351964.49961
  24746881.2444   21048620.02444  16401482.49961
  21417369.799   -15923609.529 7 -12311552.38624
 91  4 24 23 20  0.0020000  0  5G13G 2G15G19G 6
  22627062.8144  -10311592.59346  -7606357.59961
  21620878.7294    1325287.26448   1022790.66164
  24416749.635    -1829631.862 5  -1349114.28921
  24756420.127    21098744.256 4  16440540.16321
  21415693.393   -15932419.037 7 -12318416.91924
 91  4 24 23 20 15.0020000  0  5G13G 2G15G19G 6
  22619107.5964  -10353386.12546  -7638923.85361
  21623383.0254    1338455.46148   1033051.58864
  24417473.0644   -1825838.86445  -1346158.66461
  24765970.3544   21148917.85944  16479636.29861
  21414033.072   -15941145.269 7 -12325216.56624
 91  4 24 23 20 30.0020000  0  5G13G 2G15G19G 6
  22611173.518   -10395079.556 6  -7671412.11121
  21625898.4944    1351670.09148   1043348.70264
  24418218.8304   -1821911.29546  -1343098.19961
  24775530.908    21199139.804 4  16518770.10721
  21412386.463   -15949788.853 7 -12331951.81224
 91  4 24 23 20 45.0020000  0  5G13G 2G15G19G 6
  22603258.033   -10436673.548 6  -7703822.87221
  21628423.6894    1364929.92348   1053681.04064
  24418991.9394   -1817850.00945  -1339933.52261
  24785094.2754   21249408.75144  16557940.53661
  21410756.197   -15958350.616 7 -12338623.30224
 91  4 24 23 21  0.0020000  0  5G13G 2G15G19G 6
  22595361.596   -10478167.852 6  -7736155.96721
  21630954.4554    1378234.71948   1064048.41564
  24419790.0644   -1813655.14745  -1336664.76561
  24794668.2524   21299724.42543  16597147.39361
  21409143.580   -15966830.507 7 -12345230.99224
 91  4 24 23 21 15.0020000  0  5G13G 2G15G19G 6
  22587486.0334  -10519558.18246  -7768408.04561
  21633495.3144    1391588.31048   1074453.81464
  24420615.5414   -1809322.45645  -1333288.60761
  24804254.3544   21350090.78044  16636393.72061
  21407546.244   -15975224.088 7 -12351771.42624
 91  4 24 23 21 30.0020000  0  5G13G 2G15G19G 6
  22579630.088   -10560848.753 6  -7800582.38521
  21636044.5414    1404986.31048   1084893.81764
  24421462.7364   -1804856.48645  -1329808.59461
  24813850.9794   21400503.12043  16675675.87661
  21405965.486   -15983535.700 7 -12358247.97924
 91  4 24 23 21 45.0020000  0  5G13G 2G15G19G 6
  22571789.2364  -10602040.05146  -7832679.36961
  21638601.5964    1418427.97648   1095367.84864
  24422338.5414   -1800257.82345  -1326225.19861
  24823446.182    21450960.476 4  16714993.11121
  21404400.682   -15991765.856 7 -12364661.06624
 91  4 24 23 22  0.0020000  0  5G13G 2G15G19G 6
  22563971.0574  -10643128.71446  -7864696.38861
  21641169.5644    1431916.14148   1105878.11564
  24423238.6194   -1795523.59045  -1322536.15461
  24833062.8614   21501465.60243  16754347.57961
  21402850.064   -15999911.395 7 -12371008.22124
 91  4 24 23 22 15.0020000  0  5G13G 2G15G19G 6
  22556171.541   -10684115.731 6  -7896634.19721
  21643744.1504    1445449.70348   1116423.75164
  24424165.7754   -1790654.87145  -1318742.31961
  24842677.5104   21552017.29643  16793738.31861
  21401315.3694  -16007973.21747 -12377290.13464
 91  4 24 23 22 30.0020000  0  5G13G 2G15G19G 6
  22548393.2054  -10725002.28447  -7928493.72561
  21646326.5334    1459026.96448   1127003.44164
  24425119.150    -1785652.859 5  -1314844.60021
  24852307.596    21602613.882 3  16833164.03321
  21399798.1044  -16015952.65747 -12383507.85264
 91  4 24 23 22 45.0020000  0  5G13G 2G15G19G 6
  22540628.174   -10765782.803 6  -7960270.61921
  21648920.4944    1472653.26148   1137621.34364
  24426096.182    -1780512.328 6  -1310838.96121
  24861944.549    21653260.548 3  16872628.79121
  21398294.9474  -16023844.07147 -12389656.97964
 91  4 24 23 23  0.0020000  0  5G13G 2G15G19G 6
  22532887.1824  -10806462.68646  -7991969.11061
  21651522.5414    1486323.02948   1148273.11364
  24427103.5804   -1775238.71046  -1306729.61961
  24871593.111    21703951.517 3  16912128.05921
  21396809.822   -16031652.860 7 -12395741.72124
 91  4 24 23 23 15.0020000  0  5G13G 2G15G19G 6
  22525169.1744  -10847041.67646  -8023588.97361
  21654131.4324    1500035.98748   1158958.54064
  24428125.150    -1769832.306 5  -1302516.79621
  24881239.8384   21754686.57043  16951661.69761
  21395339.424   -16039378.912 7 -12401762.00124
 91  4 24 23 23 30.0020000  0  5G13G 2G15G19G 6
  22517464.854   -10887521.654 6  -8055131.68021
  21656748.1434    1513790.02548   1169675.97764
  24429182.408    -1764295.084 5  -1298202.03521
  24890908.8544   21805463.33343  16991227.80761
  21393883.2834  -16047024.21147 -12407719.35264
 91  4 24 23 23 45.0020000  0  5G13G 2G15G19G 6
  22509779.3694  -10927895.59046  -8086591.76761
  21659374.4244    1527591.67548   1180430.51164
  24430263.7364   -1758620.19345  -1293780.00261
  24900580.377    21856288.263 4  17030831.46021
  21392446.104   -16054581.689 7 -12413608.27024
 91  4 24 23 24  0.0020000  0  5G13G 2G15G19G 6
  22502115.932   -10968165.820 6  -8117971.05421
  21662010.3694    1541438.40948   1191220.17763
  24431367.7054   -1752810.04945  -1289252.58461
  24910263.4714   21907158.61144  17070470.50761
  21391023.807   -16062053.729 7 -12419430.61724
 91  4 24 23 24 15.0020000  0  5G13G 2G15G19G 6
  22494473.4084  -11008333.22046  -8149270.19961
  21664653.8774    1555329.05948   1202044.06464
  24432496.197    -1746865.878 5  -1284620.72021
  24919950.229    21958073.243 4  17110144.07821
  21389617.018   -16069441.367 7 -12425187.19223
 91  4 24 23 24 30.0020000  0  5G13G 2G15G19G 6
  22486848.791   -11048397.202 6  -8180488.75321
  21667305.6434    1569263.93948   1212902.41964
  24433656.0804   -1740787.07146  -1279883.94961
  24929645.682    22009032.392 4  17149852.30121
  21388229.2054  -16076743.86247 -12430877.42063
 91  4 24 23 24 45.0020000  0  5G13G 2G15G19G 6
  22479243.8774  -11088359.66146  -8211628.20561
  21669965.9244    1583241.02348   1223793.65664
  24434838.5574   -1734575.75845  -1275043.91861
  24939351.8074   22060033.72244  17189593.40861
  21386856.494   -16083963.068 7 -12436502.75224
 91  4 24 23 25  0.0020000  0  5G13G 2G15G19G 6
  22471660.3854  -11128218.35646  -8242686.80961
  21672633.846     1597262.115 8   1234719.18924
  24436043.877    -1728229.832 5  -1270099.00221
  24949065.057    22111079.183 4  17229368.90821
  21385496.2364  -16091096.80547 -12442061.48464
 91  4 24 23 25 15.0020000  0  5G13G 2G15G19G 6
  22464095.4634  -11167971.77046  -8273663.37161
  21675309.9164    1611328.04748   1245679.66364
  24437277.572    -1721748.457 5  -1265048.54121
  24958788.604    22162169.588 5  17269179.44021
  21384157.088   -16098143.855 7 -12447552.67024
 91  4 24 23 25 30.0020000  0  5G13G 2G15G19G 6
  22456551.1044  -11207620.34047  -8304558.24161
  21677995.4084    1625438.12148   1256674.53164
  24438537.564    -1715132.338 5  -1259893.07921
  24968519.9394   22213304.01344  17309024.26661
  21382831.885   -16105104.647 7 -12452976.64724
 91  4 24 23 25 45.0020000  0  5G13G 2G15G19G 6
  22449025.8694  -11247159.94947  -8335368.21161
  21680688.9394    1639595.96648   1267706.62564
  24439823.611    -1708377.782 5  -1254629.73821
  24978260.0804   22264485.77645  17348905.96461
  21381524.252   -16111975.426 7 -12458330.47723
 91  4 24 23 26  0.0020000  0  5G13G 2G15G19G 6
  22441521.4944  -11286590.82347  -8366093.45261
  21683392.7134    1653801.36048   1278775.76664
  24441134.549    -1701484.847 5  -1249258.58021
  24988013.0334   22315714.57144  17388824.32261
  21380232.502   -16118756.094 7 -12463614.10023
 91  4 24 23 26 15.0020000  0  5G13G 2G15G19G 6
  22434039.924   -11325909.388 7  -8396731.18421
  21686104.7524    1668057.56248   1289884.49764
  24442472.002    -1694449.869 5  -1243776.73321
  24997762.150    22366993.758 5  17428781.94421
  21378960.330   -16125443.115 7 -12468824.74723
 91  4 24 23 26 30.0020000  0  5G13G 2G15G19G 6
  22426579.158   -11365120.928 7  -8427285.51221
  21688825.6114    1682358.76648   1301028.29164
  24443839.9004   -1687278.77845  -1238188.81761
  25007535.1434   22418317.39844  17468774.21361
  21377704.893   -16132041.817 7 -12473966.58024
 91  4 24 23 26 45.0020000  0  5G13G 2G15G19G 6
  22419136.4554  -11404225.63546  -8457756.59561
  21691556.4474    1696704.69548   1312206.93764
  24445225.814    -1679971.890 5  -1232495.09421
  25017306.7134   22469684.85244  17508800.61361
  21376467.0334  -16138552.45647 -12479039.79564
 91  4 24 23 27  0.0020000  0  5G13G 2G15G19G 6
  22411715.479   -11443220.949 6  -8488142.44521
  21694295.6504    1711097.46248   1323422.07964
  24446645.4004   -1672526.59045  -1226693.53061
  25027092.674    22521098.345 4  17548862.88521
  21375243.791   -16144972.474 7 -12484042.39524
 91  4 24 23 27 15.0020000  0  5G13G 2G15G19G 6
  22404315.635   -11482104.843 6  -8518441.46521
  21697043.6354    1725538.67348   1334674.96763
  24448087.955    -1664941.400 6  -1220782.94821
  25036883.869    22572559.311 4  17588962.14321
  21374041.760   -16151300.016 7 -12488972.93124
 91  4 24 23 27 30.0020000  0  5G13G 2G15G19G 6
  22396939.4324  -11520879.58446  -8548655.43361
  21699800.8074    1740026.23948   1345963.97964
  24449560.541    -1657218.760 6  -1214765.24821
  25046681.986    22624065.443 3  17629096.59721
  21372852.369   -16157537.132 7 -12493833.00823
 91  4 24 23 27 45.0020000  0  5G13G 2G15G19G 6
  22389580.4944  -11559547.39746  -8578786.07561
  21702565.7364    1754557.38348   1357286.95364
  24451050.768    -1649360.986 5  -1208642.26721
  25056492.338    22675614.004 4  17669264.11121
  21371685.814   -16163686.081 7 -12498624.38124
 91  4 24 23 28  0.0020000  0  4G13G 2G15G 6
  22382241.0254  -11598104.70146  -8608830.60761
  21705340.9084    1769135.13048   1368646.23464
  24452575.744    -1641364.912 5  -1202411.51821
  21370530.9474  -16169743.51847 -12503344.45164
 91  4 24 23 28 15.0020000  0  4G13G 2G15G 6
  22374928.041   -11636549.868 7  -8638787.77221
  21708122.6044    1783760.94548   1380042.97364
  24454123.229    -1633228.758 5  -1196071.61021
  21369395.3774  -16175707.88547 -12507992.00763
 91  4 24 23 28 30.0020000  0  4G13G 2G15G 6
  22367633.057   -11674884.301 7  -8668658.64821
  21710913.7994    1798433.15548   1391475.87164
  24455700.111    -1624954.433 5  -1189624.03321
  21368280.010   -16181580.580 7 -12512568.11824
 91  4 24 23 28 45.0020000  0  4G13G 2G15G 6
  22360357.064   -11713107.054 7  -8698442.49121
  21713715.6894    1813152.56748   1402945.55164
  24457299.205    -1616541.150 5  -1183068.19021
  21367177.854   -16187360.566 7 -12517071.98523
 91  4 24 23 29  0.0020000  0  4G13G 2G15G 6
  22353105.338   -11751216.381 7  -8728137.96621
  21716525.7834    1827920.26348   1414452.84963
  24458925.0254   -1607987.91646  -1176403.28361
  21366096.4554  -16193046.36647 -12521502.46863
 91  4 24 23 29 15.0020000  0  4G13G 2G15G 6
  22345874.822   -11789217.730 7  -8757749.30121
  21719343.4244    1842730.58548   1425993.36064
  24460580.6664   -1599299.78246  -1169633.26361
  21365033.1824  -16198643.33647 -12525863.73963
 91  4 24 23 29 30.0020000  0  4G13G 2G15G 6
  22338664.916   -11827108.717 7  -8787274.62921
  21722170.2754    1857585.63648   1437568.71764
  24462261.1894   -1590474.91346  -1162756.68561
  21363984.033   -16204149.166 7 -12530153.98223
 91  4 24 23 29 45.0020000  0  4G13G 2G15G 6
  22331475.127   -11864881.519 7  -8816707.87121
  21725007.8934    1872493.00648   1449184.85064
  24463966.760    -1581505.674 6  -1155767.61721
  21362955.869   -16209555.928 7 -12534367.02724
 91  4 24 23 30  0.0020000  0  4G13G 2G15G 6
  22324308.760   -11902541.882 7  -8846053.50021
  21727854.3464    1887446.52448   1460836.93864
  24465696.893    -1572398.007 5  -1148670.69021
  21361944.0024  -16214869.52547 -12538507.47663
 91  4 24 23 30 15.0020000  0  4G13G 2G15G 6
  22317164.471   -11940089.899 7  -8875311.59121
  21730707.9324    1902446.00648   1472524.84164
  24467455.557    -1563152.181 5  -1141466.11121
  21360949.8544  -16220089.90147 -12542575.29163
 91  4 24 23 30 30.0020000  0  4G13G 2G15G 6
  22310040.182   -11977527.298 7  -8904483.47021
  21733570.6194    1917489.61748   1484247.13364
  24469242.064    -1553770.147 5  -1134155.38421
  21359973.869   -16225218.918 7 -12546571.91223
 91  4 24 23 30 45.0020000  0  4G13G 2G15G 6
  22302936.9324  -12014847.68247  -8933564.18661
  21736443.6894    1932583.14548   1496008.32664
  24471055.807    -1544245.830 5  -1126733.79121
  21359017.471   -16230250.188 7 -12550492.36723
 91  4 24 23 31  0.0020000  0  4G13G 2G15G 6
  22295856.650   -12052054.181 7  -8962556.15521
  21739323.4554    1947723.04048   1507805.64563
  24472891.6584   -1534582.67845  -1119204.01761
  21358077.111   -16235187.235 7 -12554339.40223
 91  4 24 23 31 15.0020000  0  4G13G 2G15G 6
  22288799.111   -12089149.131 7  -8991461.20721
  21742212.5724    1962906.92148   1519637.23364
  24474760.9164   -1524783.11046  -1111567.93861
  21357155.861   -16240031.887 7 -12558114.44423
 91  4 24 23 31 30.0020000  0  4G13G 2G15G 6
  22281763.104   -12126128.738 7  -9020276.37221
  21745111.5964    1978138.28848   1531505.83463
  24476652.4714   -1514843.62246  -1103822.83161
  21356251.314   -16244780.539 7 -12561814.67623
 91  4 24 23 31 45.0020000  0  4G13G 2G15G 6
  22274745.572   -12162993.246 6  -9049001.85221
  21748019.7054    1993416.72848   1543411.11263
  24478567.8464   -1504764.63246  -1095969.01761
  21355366.229   -16249433.549 7 -12565440.38023
 91  4 24 23 32  0.0020000  0  4G13G 2G15G 6
  22267753.463   -12199743.237 7  -9077638.10521
  21750935.760     2008741.175 8   1555352.22723
  24480514.736    -1494546.975 5  -1088007.16221
  21354498.369   -16253991.350 7 -12568991.89823
 91  4 24 23 32 15.0020000  0  4G13G 2G15G 6
  22260781.596   -12236375.237 7  -9106182.41121
  21753860.3614    2024114.78848   1567331.66164
  24482481.9794   -1484187.51745  -1079934.81461
  21353650.322   -16258450.660 7 -12572466.66823
 91  4 24 23 32 30.0020000  0  4G13G 2G15G 6
  22253832.838   -12272891.114 7  -9134636.23821
  21756795.5884    2039535.23448   1579347.59864
  24484478.127    -1473688.417 5  -1071753.65221
  21352820.619   -16262813.281 7 -12575866.09823
 91  4 24 23 32 45.0020000  0  4G13G 2G15G 6
  22246904.861   -12309291.156 7  -9162999.80021
  21759738.3074    2055001.95948   1591399.59664
  24486503.674    -1463050.240 6  -1063464.13021
  21352009.424   -16267079.748 7 -12579190.60223
 91  4 24 23 33  0.0020000  0  4G13G 2G15G 6
  22240000.939   -12345579.013 7  -9191275.95121
  21762689.1824    2070511.38748   1603484.86764
  24488555.9634   -1452276.42246  -1055068.90261
  21351216.158   -16271253.494 7 -12582442.85323
 91  4 24 23 33 15.0020000  0  4G13G 2G15G 6
  22233119.275   -12381753.485 7  -9219463.74221
  21765650.6744    2086064.53248   1615604.19764
  24490632.9244   -1441365.90246  -1046567.16861
  21350436.549   -16275333.215 7 -12585621.84423
 91  4 24 23 33 30.0020000  0  4G13G 2G15G 6
  22226256.236   -12417815.685 7  -9247564.05121
  21768617.1974    2101659.81048   1627756.36064
  24492732.604    -1430320.382 6  -1037960.21021
  21349678.908   -16279320.157 7 -12588728.53223
 91  4 24 23 33 45.0020000  0  4G13G 2G15G 6
  22219413.307   -12453764.554 7  -9275576.05121
  21771593.5414    2117297.89448   1639941.87964
  24494857.8464   -1419139.07645  -1029247.46361
  21348939.268   -16283213.412 7 -12591762.21423
 91  4 24 23 34  0.0020000  0  4G13G 2G15G 6
  22212592.955   -12489605.140 7  -9303503.67421
  21774576.9944    2132973.42848   1652156.57964
  24497016.127    -1407827.440 6  -1020433.16321
  21348213.979   -16287018.077 7 -12594726.87123
 91  4 24 23 34 15.0020000  0  4G13G 2G15G 6
  22205794.682   -12525336.179 7  -9331345.93721
  21777566.1824    2148687.31148   1664401.16264
  24499192.752    -1396384.401 5  -1011516.46021
  21347508.096   -16290733.010 7 -12597621.60723
 91  4 24 23 34 30.0020000  0  4G13G 2G15G 6
  22199014.127   -12560958.678 7  -9359103.62821
  21780562.6434    2164438.30148   1676674.66764
  24501396.5884   -1384811.14345  -1002498.28961
  21346816.814   -16294358.982 7 -12600447.02623
 91  4 24 23 34 45.0020000  0  4G13G 2G15G 6
  22192257.408   -12596469.827 7  -9386774.55021
  21783566.6274    2180229.07648   1688979.16964
  24503621.7834   -1373105.12545   -993376.68561
  21346142.572   -16297893.274 7 -12603201.00423
 91  4 24 23 35  0.0020000  0  4G13G 2G15G 6
  22185520.697   -12631871.368 7  -9414360.06521
  21786578.1664    2196057.61248   1701313.09064
  24505875.4944   -1361268.20045   -984153.07761
  21345490.236   -16301337.577 7 -12605884.86123
 91  4 24 23 35 15.0020000  0  4G13G 2G15G 6
  22178806.150   -12667162.958 7  -9441859.89821
  21789600.5334    2211924.01148   1713676.51864
  24508150.1114   -1349300.29546   -974827.38161
  21344850.354   -16304691.643 7 -12608498.40123
 91  4 24 23 35 30.0020000  0  4G13G 2G15G 6
  22172109.494   -12702346.920 7  -9469275.87021
  21792624.5644    2227825.62148   1726067.37964
  24510456.682    -1337203.986 6   -965401.63921
  21344231.322   -16307957.888 7 -12611043.51423
 91  4 24 23 35 45.0020000  0  4G13G 2G15G 6
  22165436.0184  -12737419.75847  -9496605.25761
  21795659.5804    2243765.88648   1738488.36364
  24512777.0884   -1324975.94245   -955873.26461
  21343625.244   -16311132.609 7 -12613517.30523
 91  4 24 23 36  0.0020000  0  4G13G 2G15G 6
  22158782.3774  -12772382.19547  -9523848.61361
  21798699.8544    2259743.48648   1750938.44864
  24515133.299    -1312617.246 5   -946243.06521
  21343038.6114  -16314216.80247 -12615920.56263
 91  4 24 23 36 15.0020000  0  4G13G 2G15G 6
  22152151.064   -12807232.261 7  -9551004.40521
  21801747.4794    2275760.30948   1763419.08864
  24517510.0334   -1300126.08845   -936509.66661
  21342469.838   -16317208.270 7 -12618251.56223
 91  4 24 23 36 30.0020000  0  4G13G 2G15G 6
  22145538.5724  -12841973.11347  -9578075.10661
  21804800.9004    2291812.74848   1775927.48264
  24519907.3774   -1287505.92145   -926675.73861
  21341917.033   -16320110.381 7 -12620512.93423
 91  4 24 23 36 45.0020000  0  4G13G 2G15G 6
  22138949.104   -12876600.047 7  -9605057.02721
  21807865.1044    2307905.58748   1788467.36164
  24522337.143    -1274752.235 6   -916737.74721
  21341382.330   -16322918.170 7 -12622700.80823
 91  4 24 23 37  0.0020000  0  4G13G 2G15G 6
  22132381.8384  -12911111.08647  -9631948.64961
  21810933.5574    2324040.26648   1801039.83964
  24524793.986    -1261863.662 6   -906694.66221
  21340866.760   -16325629.878 7 -12624813.81323
 91  4 24 23 37 15.0020000  0  4G13G 2G15G 6
  22125838.775   -12945507.026 7  -9658750.57521
  21814011.9944    2340215.76948   1813644.12764
  24527270.791    -1248840.942 6   -896547.03221
  21340368.557   -16328246.399 7 -12626852.64323
 91  4 24 23 37 30.0020000  0  4G13G 2G15G 6
  22119312.3224  -12979789.53147  -9685464.11361
  21817098.7364    2356430.25548   1826278.80064
  24529770.5104   -1235686.03945   -886296.43561
  21339888.8544  -16330769.25147 -12628818.49163
 91  4 24 23 37 45.0020000  0  4G13G 2G15G 6
  22112810.8464  -13013957.33247  -9712088.28561
  21820191.8934    2372684.79848   1838944.68764
  24532297.994    -1222397.866 5   -875941.97521
  21339425.8544  -16333197.18047 -12630710.37263
 91  4 24 23 38  0.0020000  0  4G13G 2G15G 6
  22106332.4084  -13048010.45847  -9738623.08861
  21823292.6434    2388979.02248   1851641.48664
  24534848.127    -1208976.562 5   -865483.78821
  21338982.3464  -16335530.21447 -12632528.31063
 91  4 24 23 38 15.0020000  0  4G13G 2G15G 6
  22099872.1274  -13081949.77447  -9765069.21061
  21826400.0334    2405311.80548   1864368.33864
  24537433.9864   -1195423.31846   -854922.79861
  21338554.479   -16337769.203 7 -12634272.96523
 91  4 24 23 38 30.0020000  0  4G13G 2G15G 6
  22093435.5804  -13115772.87647  -9791424.78161
  21829515.6114    2421685.19448   1877126.82464
  24540038.924    -1181736.131 6   -844257.41221
  21338146.861   -16339911.912 7 -12635942.59323
 91  4 24 23 38 45.0020000  0  4G13G 2G15G 6
  22087022.3224  -13149481.48747  -9817691.14161
  21832639.025     2438097.370 8   1889915.54424
  24542668.2524   -1167916.84146   -833489.11561
  21337758.5724  -16341959.97847 -12637538.49163
 91  4 24 23 39  0.0020000  0  4G13G 2G15G 6
  22080629.7754  -13183074.50447  -9843867.42261
  21835770.6194    2454549.28448   1902735.22764
  24545322.283    -1153964.532 5   -822617.14421
  21337385.932   -16343912.068 7 -12639059.58623
 91  4 24 23 39 15.0020000  0  4G13G 2G15G 6
  22074256.4244  -13216552.09347  -9869953.75761
  21838907.7214    2471040.40848   1915585.45864
  24548004.0024   -1139879.87845   -811642.05661
  21337034.424   -16345768.556 7 -12640506.17823
 91  4 24 23 39 30.0020000  0  4G13G 2G15G 6
  22067908.7604  -13249916.90447  -9895952.22561
  21842051.5804    2487567.80348   1928463.95764
  24550704.1044   -1125665.61445   -800565.98061
  21336698.7994  -16347532.09747 -12641880.35963
 91  4 24 23 39 45.0020000  0  4G13G 2G15G 6
  22061582.5024  -13283163.80747  -9921858.80761
  21845204.1744    2504136.24348   1941374.43464
  24553437.018    -1111316.801 5   -789385.06821
  21336383.432   -16349197.643 7 -12643178.17923
 91  4 24 23 40  0.0020000  0  4G13G 2G15G 6
  22055278.0184  -13316292.53347  -9947673.31061
  21848365.3774    2520745.98648   1954317.09964
  24556193.8544   -1096833.91945   -778099.66461
  21336083.564   -16350764.943 7 -12644399.43423
 91  4 24 23 40 15.0020000  0  4G13G 2G15G 6
  22048996.0804  -13349304.11647  -9973396.52861
  21851535.7054    2537395.83548   1967291.01664
  24558970.9714   -1082217.61645   -766710.30661
  21335803.361   -16352234.829 7 -12645544.78823
 91  4 24 23 40 30.0020000  0  4G13G 2G15G 6
  22042736.4864  -13382200.81547  -9999030.23061
  21854711.1114    2554083.34048   1980294.27064
  24561781.7134   -1067470.38845   -755218.95861
  21335541.588   -16353609.509 7 -12646615.95623
 91  4 24 23 40 45.0020000  0  4G13G 2G15G 6
  22036499.2684  -13414979.10447 -10024571.65761
  21857892.9634    2570811.53548   1993329.23564
  24564618.213    -1052589.264 6   -743623.25421
  21335299.244   -16354885.752 7 -12647610.41923
 91  4 24 23 41  0.0020000  0  4G13G 2G15G 6
  22030282.760   -13447639.979 7 -10050021.60221
  21861084.1894    2587579.21948   2006394.96964
  24567474.5024   -1037575.43946   -731924.12361
  21335074.338   -16356064.497 7 -12648528.90723
 91  4 24 23 41 15.0020000  0  4G13G 2G15G 6
  22024091.283   -13480179.883 7 -10075377.29021
  21864283.0334    2604389.57748   2019493.95164
  24570352.635    -1022425.474 5   -720118.93921
  21334870.5804  -16357142.11747 -12649368.60063
 91  4 24 23 41 30.0020000  0  4G13G 2G15G 6
  22017922.6194  -13512602.62047 -10100641.67061
  21867488.8224    2621238.56248   2032623.03764
  24573264.799    -1007143.649 6   -708211.00521
  21334682.650   -16358122.476 7 -12650132.50123
 91  4 24 23 41 45.0020000  0  4G13G 2G15G 6
  22011775.5104  -13544902.42447 -10125810.25061
  21870704.4944    2638131.87348   2045786.65664
  24576198.010     -991724.538 5   -696196.07221
  21334515.861   -16358999.624 7 -12650815.98223
 91  4 24 23 42  0.0020000  0  4G13G 2G15G 6
  22005650.5964  -13577082.21547 -10150885.32861
  21873924.4244    2655066.26348   2058982.28964
  24579157.947     -976171.052 6   -684076.46521
  21334371.189   -16359776.771 7 -12651421.53523
 91  4 24 23 42 15.0020000  0  4G13G 2G15G 6
  21999551.9864  -13609140.63047 -10175865.81861
  21877155.7994    2672042.63348   2072210.63064
  24582142.0184    -960482.41545   -671851.53561
  21334237.713   -16360452.568 7 -12651948.11523
 91  4 24 23 42 30.0020000  0  4G13G 2G15G 6
  21993472.877   -13641075.263 7 -10200749.86021
  21880395.9164    2689063.48448   2085473.63264
  24585152.8854    -944656.36145   -659519.53761
  21334129.697   -16361024.536 7 -12652393.78423
 91  4 24 23 42 45.0020000  0  4G13G 2G15G 6
  21987418.7834  -13672890.95747 -10225541.22661
  21883644.6664    2706123.70648   2098767.31664
  24588186.213     -928697.832 5   -647084.29321
  21334043.072   -16361497.299 7 -12652762.15823
 91  4 24 23 43  0.0020000  0  4G13G 2G15G 6
  21981387.9004  -13704583.87147 -10250236.91261
  21886897.7444    2723226.96048   2112094.53064
  24591255.479     -912603.085 5   -634542.92321
  21333970.854   -16361867.054 7 -12653050.26623
 91  4 24 23 43 15.0020000  0  4G13G 2G15G 6
  21975380.9004  -13736151.99547 -10274835.36561
  21890162.2834    2740375.22348   2125456.81964
  24594338.354     -896370.485 5   -621894.11321
  21333921.330   -16362131.855 7 -12653256.58423
 91  4 24 23 43 30.0020000  0  4G13G 2G15G 6
  21969396.5644  -13767597.14047 -10299337.98261
  21893430.4164    2757566.12548   2138852.33164
  24597454.744     -880002.248 5   -609139.63021
  21333892.229   -16362293.593 7
 91  4 24 23 43 45.0020000  0  4G13G 2G15G 6
  21963437.713   -13798917.072 7 -10323743.04221
  21896712.0804    2774801.97248   2152282.86164
  24600594.1974    -863496.33345   -596277.87961
  21333878.994   -16362349.792 7
 91  4 24 23 44  0.0020000  0  4G13G 2G15G 6
  21957499.486   -13830113.623 7 -10348051.95421
  21899998.9714    2792080.43248   2165746.60064
  24603767.0574    -846854.79945   -583310.42761
  21333887.861   -16362302.512 7
 91  4 24 23 44 15.0020000  0  4G13G 2G15G 6
  21951587.3304  -13861186.43347 -10372264.44961
  21903295.1744    2809401.80948   2179243.78264
  24606954.0964    -830077.66545   -570237.31261
  21333915.236   -16362151.312 7
 91  4 24 23 44 30.0020000  0  4G13G 2G15G 6
  21945699.6044  -13892127.26047 -10396374.09961
  21906601.7294    2826774.34948   2192780.83264
  24610174.275     -813156.585 5   -557052.04121
  21333967.627   -16361887.647 7
 91  4 24 23 44 45.0020000  0  4G13G 2G15G 6
  21939835.2524  -13922939.71547 -10420383.71361
  21909915.5414    2844194.13748   2206354.69264
  24613424.705     -796095.412 5   -543757.60421
  21334039.643   -16361515.373 7 -12652776.12623
 91  4 24 23 45  0.0020000  0  4G13G 2G15G 6
  21933995.783   -13953625.864 7 -10444294.91821
  21913239.6584    2861658.73148   2219963.47064
  24616694.877     -778896.683 5   -530355.98121
  21334128.361   -16361036.637 7 -12652403.06523
 91  4 24 23 45 15.0020000  0  4G13G 2G15G 6
  21928180.557   -13984184.894 7 -10468107.05821
  21916571.2054    2879168.55848   2233607.48964
  24619994.283     -761560.005 5   -516846.86421
  21334240.150   -16360450.613 7 -12651946.41023
 91  4 24 23 45 30.0020000  0  4G13G 2G15G 6
  21922388.1824  -14014621.50947 -10491823.81961
  21919910.9714    2896718.71048
  24623316.314     -744090.369 5
  21334372.346   -16359761.976 7 -12651409.80123
 91  4 24 23 45 45.0020000  0  4G13G 2G15G 6
  21916620.986   -14044931.318 7 -10515441.76521
  21923259.9244    2914313.65148
  24626667.494     -726483.632 5
  21334522.768   -16358966.239 7 -12650789.73323
 91  4 24 23 46  0.0020000  0  4G13G 2G15G 6
  21910876.8304  -14075118.05147 -10538963.80462
  21926614.7604    2931949.11648   2274735.20964
  24630047.268     -708743.791 5   -475691.33021
  21334694.150   -16358067.328 7 -12650089.26623
 91  4 24 23 46 15.0020000  0  4G13G 2G15G 6
  21905157.729   -14105173.410 7 -10562383.47822
  21929980.1744    2949633.47548   2288515.23764
  24633453.0254    -690862.65345   -461757.96861
  21334886.275   -16357056.607 7 -12649301.68023
 91  4 24 23 46 30.0020000  0  4G13G 2G15G 6
  21899461.705   -14135104.722 7 -10585706.49921
  21933353.4394    2967359.09948   2302327.41364
  24636877.471     -672847.889 5   -447720.45421
  21335097.838   -16355941.587 7 -12648432.82723
 91  4 24 23 46 45.0020000  0  4G13G 2G15G 6
  21893788.7684  -14164913.11947 -10608933.73561
  21936734.4004    2985124.76248   2316170.79364
  24640326.846     -654700.816 5   -433579.85021
  21335330.666   -16354723.381 7 -12647483.55323
 91  4 24 23 47  0.0020000  0  4G13G 2G15G 6
  21888141.518   -14194594.618 7 -10632062.09822
  21940123.7294    3002934.08348   2330048.18464
  24643805.932     -636417.788 5   -419333.33021
  21335582.080   -16353397.961 7 -12646450.74523
 91  4 24 23 47 15.0020000  0  4G13G 2G15G 6
  21882516.9004  -14224149.18047 -10655091.54262
  21943519.7364    3020787.07448   2343959.60664
  24647316.5574    -617998.50745   -404980.62161
  21335854.049   -16351965.147 7 -12645334.25123
 91  4 24 23 47 30.0020000  0  4G13G 2G15G 6
  21876917.354   -14253578.764 7 -10678023.60122
  21946926.2364    3038681.56048   2357903.36464
  24650840.244     -599445.578 5   -390523.77321
  21336147.885   -16350426.952 7 -12644135.64423
 91  4 24 23 47 45.0020000  0  4G13G 2G15G 6
  21871340.7834  -14282881.99847 -10700857.20462
  21950339.6974    3056618.63748   2371880.30864
  24654403.611     -580757.779 5   -375961.81321
  21336459.189   -16348782.025 7 -12642853.87223
 91  4 24 23 48  0.0030000  0  4G13G 2G15G 6
  21865786.421   -14312065.219 7 -10723597.29322
  21953760.4294    3074595.05348   2385887.90764
  24657982.507     -561938.684 5   -361297.56221
  21336792.710   -16347034.546 7 -12641492.18023
 91  4 24 23 48 15.0030000  0  4G13G 2G15G 6
  21860259.8514  -14341118.33347 -10746236.00062
  21957189.5544    3092614.49848   2399929.03364
  24661588.726     -542984.810 5   -346528.30021
  21337146.452   -16345178.502 7 -12640045.89623
 91  4 24 23 48 30.0030000  0  4G13G 2G15G 6
  21854753.757   -14370042.229 7 -10768774.01322
  21960626.4054    3110678.81948   2414005.12164
  24665220.655     -523894.179 5   -331652.46021
  21337519.444   -16343212.808 7 -12638514.16923
 91  4 24 23 48 45.0030000  0  4G13G 2G15G 6
  21849272.124   -14398839.330 7 -10791213.23222
  21964073.1084    3128785.58748   2428114.28864
  24668874.312     -504669.398 5   -316672.09121
  21337913.569   -16341139.718 7 -12636898.76023
 91  4 24 23 49  0.0030000  0  4G13G 2G15G 6
  21843819.187   -14427508.493 7 -10813552.76222
  21967525.6634    3146935.61448   2442257.16564
  24672559.694     -485309.751 5   -301586.63321
  21338331.210   -16338958.285 7 -12635198.92123
 91  4 24 23 49 15.0030000  0  4G13G 2G15G 6
  21838386.0074  -14456053.99347 -10835795.92262
  21970985.4604    3165124.34148   2456430.19864
  24676273.562     -465819.546 5   -286399.44221
  21338763.913   -16336672.774 7 -12633417.99123
 91  4 24 23 49 30.0030000  0  4G13G 2G15G 6
  21832979.062   -14484473.670 7 -10857941.04021
  21974456.5464    3183353.67648   2470634.87164
  24680010.0934    -446197.14545   -271109.22061
  21339219.507   -16334280.944 7 -12631554.20923
 91  4 24 23 49 45.0030000  0  4G13G 2G15G 6
  21827596.483   -14512762.775 7 -10879984.41622
  21977934.1084    3201628.62348   2484875.08764
  24683768.937     -426437.813 5   -255712.32221
  21339695.108   -16331777.724 7 -12629603.62823
 91  4 24 23 50  0.0030000  0  4G13G 2G15G 6
  21822236.585   -14540924.118 7 -10901928.24022
  21981419.6014    3219945.93848   2499148.31364
  24687550.1634    -406544.58045   -240211.07961
  21340193.491   -16329166.041 7 -12627568.53323
 91  4 24 23 50 15.0030000  0  4G13G 2G15G 6
  21816901.421   -14568956.340 7 -10923771.45422
  21984912.6164    3238306.94448   2513455.58864
  24691364.569     -386516.351 5   -224604.64921
  21340710.397   -16326444.617 7 -12625447.92823
 91  4 24 23 50 30.0030000  0  4G13G 2G15G 6
  21811592.741   -14596859.139 7 -10945513.81922
  21988415.5694    3256711.57948   2527796.86564
  24695199.2184    -366353.20045   -208893.07361
  21341248.921   -16323613.218 7 -12623241.62323
 91  4 24 23 50 45.0030000  0  4G13G 2G15G 6
  21806306.054   -14624636.601 7 -10967158.51222
  21991926.3744    3275155.63148   2542168.85164
  24699058.413     -346059.701 5   -193079.94521
  21341807.851   -16320675.841 7 -12620952.74523
 91  4 24 23 51  0.0030000  0  4G13G 2G15G 6
  21801044.944   -14652283.884 7 -10988701.76721
  21995442.7804    3293643.74148   2556575.16764
  24702949.397     -325631.018 5   -177161.46421
  21342388.444   -16317627.597 7 -12618577.47123
 91  4 24 23 51 15.0030000  0  4G13G 2G15G 6
  21795808.757   -14679802.016 7 -11010144.39322
  21998969.1554    3312174.67748   2571014.85964
  24706863.4374    -305068.33445   -161138.57961
  21342989.819   -16314469.633 7 -12616116.70123
 91  4 24 23 51 30.0030000  0  4G13G 2G15G 6
  21790595.663   -14707191.021 7 -11031486.39822
  22002505.2334    3330748.33748   2585487.83764
  24710798.3974    -284371.86645   -145011.43361
  21343612.507   -16311201.678 7 -12613570.22823
 91  4 24 23 51 45.0030000  0  4G13G 2G15G 6
  21785409.5774  -14734450.57147 -11052727.53361
  22006047.0074    3349364.93048   2599994.26964
  24714765.9914    -263541.61845   -128780.03261
  21344254.702   -16307823.300 7 -12610937.70623
 91  4 24 23 52  0.0030000  0  4G13G 2G15G 6
  21780245.351   -14761583.158 7 -11073869.73322
  22009598.1944    3368021.69948   2614532.01064
  24718751.132     -242580.536 5   -112446.70621
  21344917.718   -16304337.248 7 -12608221.28423
 91  4 24 23 52 15.0030000  0  4G13G 2G15G 6
  21775106.921   -14788582.105 7 -11094907.79822
  22013156.3124    3386725.02148   2629106.02064
  24722769.2334    -221482.37445    -96006.55861
  21345602.546   -16300736.832 7 -12605415.74723
 91  4 24 23 52 30.0030000  0  4G13G 2G15G 6
  21769995.819   -14815441.107 7 -11115836.81522
  22016727.4604    3405481.07248   2643721.12564
  24726803.5774    -200240.75145    -79454.59861
  21346307.155   -16297015.621 7 -12602516.08723
 91  4 24 23 52 45.0030000  0  4G13G 2G15G 6
  21764910.272   -14842164.367 7 -11136660.06621
  22020304.0224    3424285.48648   2658373.91164
  24730879.405     -178860.200 5    -62794.41721
  21347041.530   -16293177.811 7 -12599525.57423
 91  4 24 23 53  0.0030000  0  4G13G 2G15G 6
  21759852.054   -14868749.817 7 -11157375.92822
  22023891.4524    3443140.44348   2673066.08164
  24734975.835     -157339.085 5    -46024.68721
  21347795.280   -16289221.254 7 -12596442.53123
 91  4 24 23 53 15.0030000  0  4G13G 2G15G 6
  21754819.210   -14895197.582 7 -11177984.50022
  22027490.1874    3462045.55048   2687797.33364
  24739090.9604    -135677.69345    -29145.64361
  21348568.140   -16285146.081 7 -12593267.05723
 91  4 24 23 53 30.0030000  0  4G13G 2G15G 6
  21749812.780   -14921506.145 7 -11198484.60121
  22031096.6714    3481002.26748   2702568.79864
  24743241.241     -113874.735 5    -12156.31421
  21349368.358   -16280950.729 7 -12589997.93623
 91  4 24 23 53 45.0030000  0  4G13G 2G15G 6
  21744833.702   -14947675.856 7 -11218876.51121
  22034714.0854    3500010.05048   2717380.05764
  24747418.3124     -91930.79745      4942.88661
  21350189.499   -16276635.319 7 -12586635.27223
 91  4 24 23 54  0.0030000  0  4G13G 2G15G 6
  21739878.7104  -14973709.53847 -11239162.42562
  22038339.2884    3519065.90648   2732228.77264
  24751618.3124     -69848.78245     22149.69161
  21351032.8354  -16272202.74147 -12583181.30263
 91  4 24 23 54 15.0030000  0  4G13G 2G15G 6
  21734950.976   -14999601.950 7 -11259338.26022
  22041976.5464    3538174.49748   2747118.57964
  24755849.069      -47623.992 5     39467.74221
  21351898.3354  -16267648.10647 -12579632.22863
 91  4 24 23 54 30.0030000  0  4G13G 2G15G 6
  21730051.2024  -15025353.41847 -11279404.27062
  22045623.0774    3557335.71048   2762049.39463
  24760104.2964     -25257.22745     56896.42261
  21352789.593   -16262971.418 7 -12575988.04723
 91  4 24 23 54 45.0030000  0  4G13G 2G15G 6
  21725178.7264  -15050963.18247 -11299359.86162
  22049278.3584    3576550.35848   2777021.84363
  24764389.968       -2747.423 5     74436.53621
  21353703.4684  -16258171.82247 -12572248.09663
 91  4 24 23 55  0.0030000  0  4G13G 2G15G 6
  21720331.116   -15076429.560 7 -11319203.71922
  22052945.6554    3595819.74348   2792036.94863
  24768699.257       19906.496 5     92088.97421
  21354638.8124  -16253247.49447 -12568410.94963
 91  4 24 23 55 15.0030000  0  4G13G 2G15G 6
  21715512.554   -15101750.864 7 -11338934.53822
  22056625.0154    3615144.89748   2807095.50763
  24773035.1404      42705.65645    109854.57961
  21355601.2494  -16248197.28947 -12564475.71563
 91  4 24 23 55 30.0030000  0  4G13G 2G15G 6
  21710721.2334  -15126927.80147 -11358552.86162
  22060310.4914    3634525.58448   2822197.33963
  24777401.554       65649.663 5    127733.07221
  21356586.3044  -16243021.37847 -12560442.53363
 91  4 24 23 55 45.0030000  0  4G13G 2G15G 6
  21705958.9684  -15151959.63047 -11378058.11662
  22064010.7884    3653962.63348   2837343.09063
  24781799.702       88738.974 5    145724.78521
  21357594.9764  -16237718.84247 -12556310.68263
 91  4 24 23 56  0.0030000  0  4G13G 2G15G 6
  21701222.6404  -15176847.42947 -11397451.13962
  22067718.8584    3673454.29948   2852531.39963
  24786220.819      111971.938 5    163828.43621
  21358627.0934  -16232291.00547 -12552081.19863
 91  4 24 23 56 15.0030000  0  4G13G 2G15G 6
  21696514.624   -15201591.751 7 -11416732.36022
  22071438.9134    3693000.12948   2867761.91563
  24790667.171      135347.888 5    182043.47021
  21359682.7964  -16226738.28047 -12547754.39763
 91  4 24 23 56 30.0030000  0  4G13G 2G15G 6
  21691831.3434  -15226197.24947 -11435905.40462
  22075168.1324    3712595.34448   2883030.91163
  24795143.7264     158861.69345    200365.93461
  21360764.6244  -16221065.32847 -12543333.91163
 91  4 24 23 56 45.0030000  0  4G13G 2G15G 6
  21687175.9764  -15250659.60247 -11454966.91362
  22078906.3744    3732244.20148   2898341.70263
  24799645.562      182517.863 5    218799.34121
  21361865.7264  -16215267.67747 -12538816.25663
 91  4 24 23 57  0.0030000  0  4G13G 2G15G 6
  21682548.7884  -15274982.38147 -11473919.66562
  22082656.5074    3751942.89348   2913691.33563
  24804169.4604     206312.17545    237340.39061
  21362993.4444  -16209348.96447 -12534204.26763
 91  4 24 23 57 15.0030000  0  4G13G 2G15G 6
  21677944.8904  -15299168.64847 -11492766.03762
  22086413.9294    3771688.04548   2929077.16663
  24808725.2024     230241.44145    255986.60761
  21364141.7964  -16203312.25147 -12529500.33663
 91  4 24 23 57 30.0030000  0  4G13G 2G15G 6
  21673368.0694  -15323227.37147 -11511513.02662
  22090175.7414    3791470.85348   2944492.34063
  24813304.421      254296.535 5    274730.85021
  21365311.4764  -16197166.44447 -12524711.39263
 91  4 24 23 57 45.0030000  0  4G13G 2G15G 6
  21668814.1164  -15347150.96547 -11530154.72962
  22093950.8974    3811298.83148   2959942.71363
  24817910.3124     278484.66845    293578.75961
  21366503.1634  -16190903.80647 -12519831.41763
 91  4 24 23 58  0.0030000  0  4G13G 2G15G 6
  21664286.9524  -15370943.58647 -11548694.36362
  22097730.8514    3831167.66148   2975424.91863
  24822532.483      302801.518 5    312526.98621
  21367715.8354  -16184528.47147 -12514863.62163
 91  4 24 23 58 15.0030000  0  4G13G 2G15G 6
  21659784.6554  -15394601.72647 -11567129.21362
  22101520.4994    3851080.53948   2990941.44563
  24827187.5074     327250.13645    331577.88761
  21368950.6164  -16178036.96747 -12509805.30763
 91  4 24 23 58 30.0030000  0  4G13G 2G15G 6
  21655305.8904  -15418129.87247 -11585462.76862
  22105316.8514    3871032.86148   3006488.70763
  24831864.7334     351825.75845    350727.75861
  21370208.1014  -16171433.70147 -12504659.90363
 91  4 24 23 58 45.0030000  0  4G13G 2G15G 6
  21650856.9914  -15441526.46647 -11603693.81362
  22109122.5624    3891025.87248   3022067.67163
  24836563.679      376529.636 5    369977.54221
  21371484.1634  -16164717.16947 -12499426.24063
 91  4 24 23 59  0.0030000  0  4G13G 2G15G 6
  21646427.3274  -15464792.42947 -11621823.07362
  22112932.3514    3911058.81148   3037677.75663
  24841292.5384     401360.83745    389326.55161
  21372784.6324  -16157888.09247 -12494104.88563
 91  4 24 23 59 15.0030000  0  4G13G 2G15G 6
  21642026.6944  -15487929.16747 -11639851.63762
  22116753.7884    3931130.14648   3053317.75363
  24846040.937      426317.753 5    408773.52521
  21374107.1714  -16150947.85147 -12488696.91063
 91  4 24 23 59 30.0030000  0  4G13G 2G15G 6
  21637647.2024  -15510933.66347 -11657777.15362
  22120579.7964    3951242.91247   3068990.04263
  24850812.108      451403.048 5    428320.52021
  21375448.8044  -16143893.31747 -12483199.86763
 91  4 24 23 59 45.0030000  0  4G13G 2G15G 6
  21633295.7184  -15533805.29747 -11675599.14062
  22124417.4524    3971397.34248   3084694.78963
  24855609.9214     476616.81345    447967.64061
  21376812.2654  -16136723.98547 -12477613.37463
 91  4 25  0  0  0.0030000  0  4G13G 2G15G 6
  21628966.9684  -15556544.11347 -11693317.63562
  22128259.2654    3991593.29748   3100431.89463
  24860435.7334     501958.99745    467714.82561
  21378199.9054  -16129439.99847 -12471937.53763
 91  4 25  0  0 15.0030000  0  4G13G 2G15G 6
  21624665.8664  -15579150.05547 -11710932.59562
  22132109.8744    4011830.84647   3116201.40863
  24865280.4764     527429.32045    487561.83761
  21379606.7884  -16122040.97347 -12466172.06063
 91  4 25  0  0 30.0030000  0  4G13G 2G15G 6
  21620389.1794  -15601622.40347 -11728443.45362
  22135966.6474    4032110.41247   3132003.66563
  24870153.1164     553028.16845    507508.99261
  21381036.9134  -16114526.40847 -12460316.55363
 91  4 25  0  0 45.0030000  0  4G13G 2G15G 6
  21616139.5224  -15623959.72047 -11745849.08862
  22139836.4444    4052433.51147   3147839.84263
  24875045.624      578757.141 5    527557.56421
  21382489.4294  -16106894.30047 -12454369.45363
 91  4 25  0  1  0.0030000  0  4G13G 2G15G 6
  21611913.0774  -15646160.93647 -11763148.67662
  22143711.2964    4072801.04648   3163710.64163
  24879967.483      604616.621 5    547707.82621
  21383964.8434  -16099143.98447 -12448330.23863
 91  4 25  0  1 15.0030000  0  4G13G 2G15G 6
  21607715.2884  -15668230.29547 -11780345.51162
  22147596.7964    4093208.79948   3179612.77863
  24884907.7724     630602.22345    567956.37561
  21385459.0854  -16091279.42547 -12442202.01163
 91  4 25  0  1 30.0030000  0  4G13G 2G15G 6
  21603539.7334  -15690165.39147 -11797437.73362
  22151487.3824    4113659.02448   3195548.01163
  24889881.9764     656716.28745    588305.02061
  21386979.8744  -16083298.42247 -12435983.04663
 91  4 25  0  1 45.0030000  0  4G13G 2G15G 6
  21599391.9214  -15711966.04147 -11814425.19262
  22155388.0074    4134151.68648   3211516.31563
  24894876.241      682958.749 5    608753.70921
  21388520.1554  -16075200.52847 -12429672.99163
 91  4 25  0  2  0.0030000  0  4G13G 2G15G 6
  21595267.7024  -15733628.68947 -11831305.11062
  22159294.9294    4154690.29548   3227520.41963
  24899892.6474     709332.83545    629304.94661
  21390084.9684  -16066982.06047 -12423268.98963
 91  4 25  0  2 15.0030000  0  4G13G 2G15G 6
  21591171.9834  -15755156.71647 -11848080.13762
  22163212.4524    4175271.45548   3243557.68063
  24904935.0694     735834.64145    649955.70161
  21391671.4054  -16058646.60547 -12416773.82763
 91  4 25  0  2 30.0030000  0  4G13G 2G15G 6
  21587102.5074  -15776548.07147 -11864748.66762
  22167136.8354    4195897.16848   3259629.65863
  24910003.022      762465.909 5    670707.35421
  21393278.8124  -16050191.87147 -12410185.72163
 91  4 25  0  2 45.0030000  0  4G13G 2G15G 6
  21583056.1874  -15797801.58947 -11881309.78462
  22171071.3044    4216568.18848   3275736.93663
  24915096.8044     789227.37745    691560.45961
  21394911.6714  -16041616.89247 -12403503.91663
 91  4 25  0  3  0.0030000  0  4G13G 2G15G 6
  21579038.6874  -15818919.15647 -11897764.96962
  22175011.8974    4237282.79848   3291878.18263
  24920212.312      816117.202 5    712513.57321
  21396565.3274  -16032923.18547 -12396729.59463
 91  4 25  0  3 15.0030000  0  4G13G 2G15G 6
  21575046.2964  -15839897.90347 -11914111.98762
  22178963.6404    4258043.81548   3308055.58963
  24925355.7104     843138.09045    733568.82961
  21398243.1164  -16024107.93847 -12389860.57463
 91  4 25  0  3 30.0030000  0  4G13G 2G15G 6
  21571080.1244  -15860739.37047 -11930352.03062
  22182921.9764    4278849.39148   3324267.71863
  24930521.9914     870287.66045    754724.34161
  21399943.4444  -16015172.83247 -12382898.15063
 91  4 25  0  3 45.0030000  0  4G13G 2G15G 6
  21567139.5154  -15881446.21547 -11946487.17562
  22186888.9914    4299696.78748   3340512.43163
  24935714.6244     897563.39545    775978.16261
  21401666.0624  -16006120.31947 -12375844.24263
 91  4 25  0  4  0.0030000  0  4G13G 2G15G 6
  21563225.5774  -15902016.65847 -11962516.03662
  22190864.2184    4320587.89148   3356791.20863
  24940927.757      924967.198 5    797331.79221
  21403411.9914  -15996948.54347 -12368697.40363
 91  4 25  0  4 15.0030000  0  4G13G 2G15G 6
  21559337.5384  -15922449.33147 -11978437.53962
  22194849.663     4341524.007 8   3373105.05123
  24946169.0774     952499.87345    818785.82161
  21405179.0304  -15987656.06447 -12361456.50563
 91  4 25  0  4 30.0030000  0  4G13G 2G15G 6
  21555475.1324  -15942745.51047 -11994252.68662
  22198841.7724    4362503.57148   3389452.75363
  24951427.429      980160.028 5    840339.21921
  21406969.5154  -15978244.23547 -12354122.60663
 91  4 25  0  4 45.0030000  0  4G13G 2G15G 6
  21551638.8434  -15962903.04447 -12009959.79362
  22202841.7024    4383528.88748   3405836.10563
  24956723.038     1007949.620 6    861993.45021
  21408784.9294  -15968710.69947 -12346693.87663
 91  4 25  0  5  0.0030000  0  4G13G 2G15G 6
  21547830.319   -15982921.355 7 -12025558.42622
  22206852.7184    4404600.30048   3422255.38063
  24962031.804     1035868.737 6    883748.63621
  21410622.4834  -15959054.74847 -12339169.76163
 91  4 25  0  5 15.0030000  0  4G13G 2G15G 6
  21544046.8904  -16002796.33347 -12041045.37062
  22210868.8044    4425721.65148   3438713.56863
  24967369.8194    1063921.26045    905607.74261
  21412483.6084  -15949272.46447 -12331547.20063
 91  4 25  0  5 30.0030000  0  3G13G 2G 6
  21540292.3044  -16022532.20547 -12056423.90962
  22214898.405     4446888.948 8   3455207.55523
  21414368.4994  -15939367.97247 -12323829.42063
 91  4 25  0  5 45.0030000  0  3G13G 2G 6
  21536562.843   -16042127.389 7 -12071692.83022
  22218935.2494    4468103.66548   3471738.49263
  21416277.4374  -15929339.45247 -12316014.98263
 91  4 25  0  6  0.0030000  0  3G13G 2G 6
  21532861.2804  -16061579.20047 -12086850.02562
  22222982.5074    4489368.50348   3488308.48863
  21418209.1874  -15919184.16047 -12308101.77163
 91  4 25  0  6 15.0030000  0  3G13G 2G 6
  21529186.155   -16080888.780 7 -12101896.39522
  22227038.9444    4510682.21248   3504916.56263
  21420165.5544  -15908903.18347 -12300090.61763
 91  4 25  0  6 30.0030000  0  3G13G 2G 6
  21525539.171   -16100056.666 7 -12116832.35922
  22231103.4604    4532044.01348   3521562.11063
  21422147.2574  -15898496.97447 -12291981.88163
 91  4 25  0  6 45.0030000  0  3G13G 2G 6
  21521918.9914  -16119082.24047 -12131657.42362
  22235178.9054    4553454.32748   3538245.46463
  21424149.8824  -15887965.15147 -12283775.26363
 91  4 25  0  7  0.0030000  0  3G13G 2G 6
  21518325.1014  -16137966.71947 -12146372.54862
  22239261.2804    4574911.92948   3554965.66763
  21426178.1324  -15877308.61347 -12275471.46563
 91  4 25  0  7 15.0030000  0  3G13G 2G 6
  21514758.655   -16156712.531 7 -12160979.62022
  22243352.5544    4596414.72548   3571721.08363
  21428228.4994  -15866529.68447 -12267072.29863
 91  4 25  0  7 30.0030000  0  3G13G 2G 6
  21511217.226   -16175314.249 7 -12175474.41522
  22247453.7494    4617967.85148   3588515.71463
  21430303.5934  -15855622.97247 -12258573.55563
 91  4 25  0  7 45.0030000  0  3G13G 2G 6
  21507704.796   -16193773.732 7 -12189858.37222
  22251565.624     4639569.431 8   3605348.10323
  21432404.8194  -15844590.17147 -12249976.56463
 91  4 25  0  8  0.0030000  0  3G13G 2G 6
  21504219.366   -16212093.521 7 -12204133.48622
  22255684.530     4661216.771 8   3622216.14823
  21434526.6554  -15833434.01247 -12241283.45363
 91  4 25  0  8 15.0030000  0  3G13G 2G 6
  21500760.538   -16230268.633 7 -12218295.85022
  22259812.7024    4682914.78748   3639123.68263
  21436674.2414  -15822149.20447 -12232490.09463
 91  4 25  0  8 30.0030000  0  3G13G 2G 6
  21497328.4914  -16248302.99147 -12232348.54462
  22263950.6474    4704659.47348   3656067.58363
  21438846.4214  -15810739.87847 -12223599.70363
 91  4 25  0  8 45.0030000  0  3G13G 2G 6
  21493923.710   -16266195.880 7 -12246291.00822
  22268098.2574    4726451.55648   3673048.42063
  21441040.4374  -15799205.09547 -12214611.55563
 91  4 25  0  9  0.0030000  0  3G13G 2G 6
  21490546.585   -16283947.173 7 -12260123.13022
  22272253.0624    4748291.00948   3690066.16764
  21443261.1474  -15787544.65347 -12205525.49163
 91  4 25  0  9 15.0030000  0  3G13G 2G 6
  21487195.843   -16301551.998 7 -12273841.12222
  22276420.4834    4770182.87348   3707124.75163
  21445503.9764  -15775753.65047 -12196337.69163
 91  4 25  0  9 30.0030000  0  3G13G 2G 6
  21483873.288   -16319015.451 7 -12287448.95922
  22280594.6014    4792122.04748   3724220.20463
  21447772.1874  -15763836.99347 -12187051.97963
 91  4 25  0  9 45.0030000  0  3G13G 2G 6
  21480576.140   -16336340.182 7 -12300948.70422
  22284778.6164    4814105.73548   3741350.34163
  21450061.3194  -15751797.37347 -12177670.45163
 91  4 25  0 10  0.0030000  0  3G13G 2G 6
  21477305.155   -16353522.347 7 -12314337.35222
  22288970.765     4836137.581 8   3758518.00223
  21452376.1474  -15739630.88847 -12168190.07163
 91  4 25  0 10 15.0030000  0  3G13G 2G 6
  21474064.171   -16370558.403 7 -12327612.16022
  22293173.3664    4858221.24148   3775726.04263
  21454716.0074  -15727333.96147 -12158608.04363
 91  4 25  0 10 30.0030000  0  3G13G 2G 6
  21470849.890   -16387454.978 7 -12340778.26722
  22297384.3194    4880350.09748   3792969.30163
  21457078.7964  -15714912.85447 -12148929.25663
 91  4 25  0 10 45.0030000  0  3G13G 2G 6
  21467659.046   -16404211.692 7 -12353835.39222
  22301602.2964    4902524.32648   3810247.92663
  21459470.1164  -15702367.47847 -12139153.63863
 91  4 25  0 11  0.0030000  0  3G13G 2G 6
  21464498.327   -16420826.556 7 -12366781.99022
  22305832.9764    4924745.95148   3827563.46363
  21461880.6474  -15689695.62047 -12129279.46463
 91  4 25  0 11 15.0030000  0  3G13G 2G 6
  21461362.155   -16437303.410 7 -12379621.04822
  22310068.9684    4947010.84848   3844912.73163
  21464313.9764  -15676901.26047 -12119309.83363
